[[{"header":{"parameterUnit":"m.s-1","parameterCategory":1,"la1":31.0,"la2":29.5877,"lo1":-88.7671,"lo2":-86.6584,"dy":0.0162,"dx":0.0185,"nx":115,"ny":88,"refTime":"2024-09-12T18:00:00:Z","depth":0,"parameterNumber":2,"parameterNumberName":"U-component_of_WINDS"},"data":[0.0,0.0,0.0,0.0,0.0,0.0,0.0,0.0,0.0,0.0,0.0,0.0,0.0,0.0,0.0,0.0,0.0,0.0,0.0,0.0,0.0,0.0,0.0,0.0,0.0,0.0,0.0,0.0,0.0,0.0,0.0,0.0,0.0,0.0,0.0,0.0,0.0,0.0,0.0,0.0,0.0,0.0,0.0,0.0,0.0,0.0,0.0,0.0,0.0,0.0,0.0,0.0,0.0,0.0,0.0,0.0,0.0,0.0,0.0,0.0,0.0,0.0,0.0,0.0,0.0,0.0,0.0,0.0,0.0,0.0,0.0,0.0,0.0,0.0,0.0,0.0,0.0,0.0,0.0,0.0,0.0,0.0,0.0,0.0,0.0,0.0,0.0,0.0,0.0,0.0,0.0,0.0,0.0,0.0,0.0,0.0,0.0,0.0,0.0,0.0,0.0,0.0,0.0,0.0,0.0,0.0,0.0,0.0,0.0,0.0,0.0,0.0,0.0,0.0,0.0,0.0,0.0,0.0,0.0,0.0,0.0,0.0,0.0,0.0,0.0,0.0,0.0,0.0,0.0,0.0,0.0,0.0,0.0,0.0,0.0,0.0,0.0,0.0,0.0,0.0,0.0,0.0,0.0,0.0,0.0,0.0,0.0,0.0,0.0,0.0,0.0,0.0,0.0,0.0,0.0,0.0,0.0,0.0,0.0,0.0,0.0,0.0,0.0,0.0,0.0,0.0,0.0,0.0,0.0,0.0,0.0,0.0,0.0,0.0,0.0,0.0,0.0,0.0,0.0,0.0,0.0,0.0,0.0,0.0,0.0,0.0,0.0,0.0,0.0,0.0,0.0,0.0,0.0,0.0,0.0,0.0,0.0,0.0,0.0,0.0,0.0,0.0,0.0,0.0,0.0,0.0,0.0,0.0,0.0,0.0,0.0,0.0,0.0,0.0,0.0,0.0,0.0,0.0,0.0,0.0,0.0,0.0,0.0,0.0,0.0,0.0,0.0,0.0,0.0,0.0,0.0,0.0,0.0,0.0,0.0,0.0,0.0,0.0,0.0,0.0,0.0,0.0,0.0,0.0,0.0,0.0,0.0,0.0,0.0,0.0,0.0,0.0,0.0,0.0,0.0,0.0,0.0,0.0,0.0,0.0,0.0,0.0,0.0,0.0,0.0,0.0,0.0,0.0,0.0,0.0,0.0,0.0,0.0,0.0,0.0,0.0,0.0,0.0,0.0,0.0,0.0,0.0,0.0,0.0,0.0,0.0,0.0,0.0,0.0,0.0,0.0,0.0,0.0,0.0,0.0,0.0,0.0,0.0,0.0,0.0,0.0,0.0,0.0,0.0,0.0,0.0,0.0,0.0,0.0,0.0,0.0,0.0,0.0,0.0,0.0,0.0,0.0,0.0,0.0,0.0,0.0,0.0,0.0,0.0,0.0,0.0,0.0,0.0,0.0,0.0,0.0,0.0,0.0,0.0,0.0,0.0,0.0,0.0,0.0,0.0,0.0,0.0,0.0,0.0,0.0,0.0,0.0,0.0,0.0,0.0,0.0,0.0,0.0,0.0,0.0,0.0,0.0,0.0,0.0,0.0,0.0,0.0,0.0,0.0,0.0,0.0,0.0,0.0,0.0,0.0,0.0,0.0,0.0,0.0,0.0,0.0,0.0,0.0,0.0,0.0,0.0,0.0,0.0,0.0,0.0,0.0,0.0,0.0,0.0,0.0,0.0,0.0,0.0,0.0,0.0,0.0,0.0,0.0,0.0,0.0,0.0,0.0,0.0,0.0,0.0,0.0,0.0,0.0,0.0,0.0,0.0,0.0,0.0,0.0,0.0,0.0,0.0,0.0,0.0,0.0,0.0,0.0,0.0,0.0,0.0,0.0,0.0,0.0,0.0,0.0,0.0,0.0,0.0,0.0,0.0,0.0,0.0,0.0,0.0,0.0,0.0,0.0,0.0,0.0,0.0,0.0,0.0,0.0,0.0,0.0,0.0,0.0,0.0,0.0,0.0,0.0,0.0,0.0,0.0,0.0,0.0,0.0,0.0,0.0,0.0,0.0,0.0,0.0,0.0,0.0,0.0,0.0,0.0,0.0,0.0,0.0,0.0,0.0,0.0,0.0,0.0,0.0,0.0,0.0,0.0,0.0,0.0,0.0,0.0,0.0,0.0,0.0,0.0,0.0,0.0,0.0,0.0,0.0,0.0,0.0,0.0,0.0,0.0,0.0,0.0,0.0,0.0,0.0,0.0,0.0,0.0,0.0,0.0,0.0,0.0,0.0,0.0,0.0,0.0,0.0,0.0,0.0,0.0,0.0,0.0,0.0,0.0,0.0,0.0,0.0,0.0,0.0,0.0,0.0,0.0,0.0,0.0,0.0,0.0,0.0,0.0,0.0,0.0,0.0,0.0,0.0,0.0,0.0,0.0,0.0,0.0,0.0,0.0,0.0,0.0,0.0,0.0,0.0,0.0,0.0,0.0,0.0,0.0,0.0,0.0,0.0,0.0,0.0,0.0,0.0,0.0,0.0,0.0,0.0,0.0,0.0,0.0,0.0,0.0,0.0,0.0,0.0,0.0,0.0,0.0,0.0,0.0,0.0,0.0,0.0,0.0,0.0,0.0,0.0,0.0,0.0,0.0,0.0,0.0,0.0,0.0,0.0,0.0,0.0,0.0,0.0,0.0,0.0,0.0,0.0,0.0,0.0,0.0,0.0,0.0,0.0,0.0,0.0,0.0,0.0,0.0,0.0,0.0,0.0,0.0,0.0,0.0,0.0,0.0,0.0,0.0,0.0,0.0,0.0,0.0,0.0,0.0,0.0,0.0,0.0,0.0,0.0,0.0,0.0,0.0,0.0,0.0,0.0,0.0,0.0,0.0,0.0,0.0,0.0,0.0,0.0,0.0,0.0,0.0,0.0,0.0,0.0,0.0,0.0,0.0,0.0,0.0,0.0,0.0,0.0,0.0,0.0,0.0,0.0,0.0,0.0,0.0,0.0,0.0,0.0,0.0,0.0,0.0,0.0,0.0,0.0,0.0,0.0,0.0,0.0,0.0,0.0,0.0,0.0,0.0,0.0,0.0,0.0,0.0,0.0,0.0,0.0,0.0,0.0,0.0,0.0,0.0,0.0,0.0,0.0,0.0,0.0,0.0,0.0,0.0,0.0,0.0,0.0,0.0,0.0,0.0,0.0,0.0,0.0,0.0,0.0,0.0,0.0,0.0,0.0,0.0,0.0,0.0,0.0,0.0,0.0,0.0,0.0,0.0,0.0,0.0,0.0,0.0,0.0,0.0,0.0,0.0,0.0,0.0,0.0,0.0,0.0,0.0,0.0,0.0,0.0,0.0,0.0,0.0,0.0,0.0,0.0,0.0,0.0,0.0,0.0,0.0,0.0,0.0,0.0,0.0,0.0,0.0,0.0,0.0,0.0,0.0,0.0,0.0,0.0,0.0,0.0,0.0,0.0,0.0,0.0,0.0,0.0,0.0,0.0,0.0,0.0,0.0,0.0,0.0,0.0,0.0,0.0,0.0,0.0,0.0,0.0,0.0,0.0,0.0,0.0,0.0,0.0,0.0,0.0,0.0,0.0,0.0,0.0,0.0,0.0,0.0,0.0,0.0,0.0,0.0,0.0,0.0,0.0,0.0,0.0,0.0,0.0,0.0,0.0,0.0,0.0,0.0,0.0,0.0,0.0,0.0,0.0,0.0,0.0,0.0,0.0,0.0,0.0,0.0,0.0,0.0,0.0,0.0,0.0,0.0,0.0,0.0,0.0,0.0,0.0,0.0,0.0,0.0,0.0,0.0,0.0,0.0,0.0,0.0,0.0,0.0,0.0,0.0,0.0,0.0,0.0,0.0,0.0,0.0,0.0,0.0,0.0,0.0,0.0,0.0,0.0,0.0,0.0,0.0,0.0,0.0,0.0,0.0,0.0,0.0,0.0,0.0,0.0,0.0,0.0,0.0,0.0,0.0,0.0,0.0,0.0,0.0,0.0,0.0,0.0,0.0,0.0,0.0,0.0,0.0,0.0,0.0,0.0,0.0,0.0,0.0,0.0,0.0,0.0,0.0,0.0,0.0,0.0,0.0,0.0,0.0,0.0,0.0,0.0,0.0,0.0,0.0,0.0,0.0,0.0,0.0,0.0,0.0,0.0,0.0,0.0,0.0,0.0,0.0,0.0,0.0,0.0,0.0,0.0,0.0,0.0,0.0,0.0,0.0,0.0,0.0,0.0,0.0,0.0,0.0,0.0,0.0,0.0,0.0,0.0,0.9001,0.0,0.0,0.0,0.0,0.0,0.0,0.0,0.0,0.0,0.0,0.0,0.0,0.0,0.0,0.0,0.0,0.0,0.0,0.0,0.0,0.0,0.0,0.0,0.0,0.0,0.0,0.0,0.0,0.0,0.0,0.0,0.0,0.0,0.0,0.0,0.0,0.0,0.0,0.0,0.0,0.0,0.0,0.0,0.0,0.0,0.0,0.0,0.0,0.0,0.0,0.0,0.0,0.0,0.0,0.0,0.0,0.0,0.0,0.0,0.0,0.0,0.0,0.0,0.0,0.0,0.0,0.0,0.0,0.0,0.0,0.0,0.0,0.0,0.0,0.0,0.0,0.0,0.0,0.0,0.0,0.0,0.0,0.0,0.0,0.0,0.0,0.0,0.0,0.0,0.0,0.0,0.0,0.0,0.0,0.0,0.0,0.0,0.0,0.0,0.0,0.0,0.0,0.0,0.0,0.0,0.0,0.0,0.0,0.0,0.0,0.8947,0.8992,0.8996,0.9007,0.9011,0.0,0.0,0.0,0.0,0.0,0.0,0.0,0.0,0.0,0.0,0.0,0.0,0.0,0.0,0.0,0.0,0.0,0.0,0.0,0.0,0.0,0.0,0.0,0.0,0.0,0.0,0.0,0.0,0.0,0.0,0.0,0.0,0.0,0.0,0.0,0.0,0.0,0.0,0.0,0.0,0.0,0.0,0.0,0.0,0.0,0.0,0.0,0.0,0.0,0.0,0.0,0.0,0.0,0.0,0.0,0.0,0.0,0.0,0.0,0.0,0.0,0.0,0.0,0.0,0.0,0.0,0.0,0.0,0.0,0.0,0.0,0.0,0.0,0.0,0.0,0.0,0.0,0.0,0.0,0.0,0.0,0.0,0.0,0.0,0.0,0.0,0.0,0.0,0.0,0.0,0.0,0.0,0.0,0.0,0.0,0.0,0.0,0.0,0.0,0.0,0.0,0.0,0.0,0.0,0.0,0.0,0.0,0.0,0.0,0.0,0.0,0.0,0.9532,0.9537,0.9549,0.0,0.0,0.0,0.0,0.0,0.0,0.0,0.0,0.0,0.0,0.0,0.0,0.0,0.0,0.0,0.0,0.0,0.0,0.0,0.0,0.0,0.0,0.0,0.0,0.0,0.0,0.0,0.0,0.0,0.0,0.0,0.0,0.0,0.0,0.0,0.0,0.0,0.0,0.0,0.0,0.0,0.0,0.0,0.0,0.0,0.0,0.0,0.0,0.0,0.0,0.0,0.0,0.0,0.0,0.0,0.0,0.0,0.0,0.0,0.0,0.0,0.0,0.0,0.0,0.0,0.0,0.0,0.0,0.0,0.0,0.0,0.0,0.0,0.0,0.0,0.0,0.0,0.0,0.0,0.0,0.0,0.0,0.0,0.0,0.0,0.0,0.0,0.0,0.0,0.0,0.0,0.0,0.0,0.0,0.0,0.0,0.0,0.0,0.0,0.0,0.0,0.0,0.0,0.0,0.0,0.0,0.0,0.0,0.0,0.0,0.9669,1.1028,1.1127,0.0,1.1196,0.0,0.0,0.0,0.0,0.0,0.0,0.0,0.0,0.0,0.0,0.0,0.0,0.0,0.0,0.0,0.0,0.0,0.0,0.0,0.0,0.0,0.0,0.0,0.0,0.0,0.0,0.0,0.0,0.0,0.0,0.0,0.0,0.0,0.0,0.0,0.0,0.0,0.0,0.0,0.0,0.0,0.0,0.0,0.0,0.0,0.0,0.0,0.0,0.0,0.0,0.0,0.0,0.0,0.0,0.0,0.0,0.0,0.0,0.0,0.0,0.0,0.0,0.0,0.0,0.0,0.0,0.0,0.0,0.0,0.0,0.0,0.0,0.0,0.0,0.0,0.0,0.0,0.0,0.0,0.0,0.0,0.0,0.0,0.0,0.0,0.0,0.0,0.0,0.0,0.0,0.0,0.0,0.0,0.0,0.0,0.0,0.0,0.0,0.0,0.0,0.0,0.0,0.0,0.0,0.0,0.0,0.0,0.0,0.0,0.0,1.0595,1.1227,1.1315,1.1378,0.0,0.0,0.0,0.0,0.0,0.0,0.0,0.0,0.0,0.0,0.0,0.0,0.0,0.0,0.0,0.0,0.0,0.0,0.0,0.0,0.0,0.0,0.0,0.0,0.0,0.0,0.0,0.0,0.0,0.0,0.0,0.0,0.0,0.0,0.0,0.0,0.0,0.0,0.0,0.0,0.0,0.0,0.0,0.0,0.0,0.0,0.0,0.0,0.0,0.0,0.0,0.0,0.0,0.0,0.0,0.0,0.0,0.0,0.0,0.0,0.0,0.0,0.0,0.0,0.0,0.0,0.0,0.0,0.0,0.0,0.0,0.0,0.0,0.0,0.0,0.0,0.0,0.0,0.0,0.0,0.0,0.0,0.0,0.0,0.0,0.0,0.0,0.0,0.0,0.0,0.0,0.0,0.0,0.0,0.0,0.0,0.0,0.0,0.0,0.0,0.0,0.0,0.0,0.0,0.0,0.0,0.0,0.0,0.0,0.0,1.0885,1.1431,1.1835,1.1898,1.1792,1.1514,0.0,0.0,0.0,0.0,0.0,0.0,0.0,0.0,0.0,0.0,0.0,0.0,0.0,0.0,0.0,0.0,0.0,0.0,0.0,0.0,0.0,0.0,0.0,0.0,0.0,0.0,0.0,0.0,0.0,0.0,0.0,0.0,0.0,0.0,0.0,0.0,0.0,0.0,0.0,0.0,0.0,0.0,0.0,0.0,0.0,0.0,0.0,0.0,0.0,0.0,0.0,0.0,0.0,0.0,0.0,0.0,0.0,0.0,0.0,0.0,0.0,0.0,0.0,0.0,0.0,0.0,0.0,0.0,0.0,0.0,0.0,0.0,0.0,0.0,0.0,0.0,0.0,0.0,0.0,0.0,0.0,0.0,0.0,0.0,0.0,0.0,0.0,0.0,0.0,0.0,0.0,0.0,0.0,0.0,0.0,0.0,0.0,0.0,0.0,0.0,0.0,0.0,0.0,0.0,0.0,0.0,0.0,0.0,0.0,1.1955,1.1998,1.3434,1.3501,1.2872,0.0,0.0,0.0,0.0,0.0,0.0,0.0,0.0,0.0,0.0,0.0,0.0,0.0,0.0,0.0,0.0,0.0,0.0,0.0,0.0,0.0,0.0,0.0,0.0,0.0,0.0,0.0,0.0,0.0,0.0,0.0,0.0,0.0,0.0,0.0,0.0,0.0,0.0,0.0,0.0,0.0,0.0,0.0,0.0,0.0,0.0,0.0,0.0,0.0,0.0,0.0,0.0,0.0,0.0,0.0,0.0,0.0,0.0,0.0,0.0,0.0,0.0,0.0,0.0,0.0,0.0,0.0,0.0,0.0,0.0,0.0,0.0,0.0,0.0,0.0,0.0,0.0,0.0,0.0,0.0,0.0,0.0,0.0,0.0,0.0,0.0,0.0,0.0,0.0,0.0,0.0,0.0,0.0,0.0,0.0,0.0,0.0,0.0,0.0,0.0,0.0,0.0,0.0,0.0,0.0,0.0,0.0,0.0,0.0,1.0561,1.1005,1.2212,1.416,1.2906,1.2196,0.0,0.0,0.0,0.0,0.0,0.0,0.0,0.0,0.0,0.0,0.0,0.0,0.0,0.0,0.0,0.0,0.0,0.0,0.0,0.0,0.0,0.0,0.0,0.0,0.0,0.0,0.0,0.0,0.0,0.0,0.0,0.0,0.0,0.0,0.0,0.0,0.0,0.0,0.0,0.0,0.0,0.0,0.0,0.0,0.0,0.0,0.0,0.0,0.0,0.0,0.0,0.0,0.0,0.0,0.0,0.0,0.0,0.0,0.0,0.0,0.0,0.0,0.0,0.0,0.0,0.0,0.0,0.0,0.0,0.0,0.0,0.0,0.0,0.0,0.0,0.0,0.0,0.0,0.0,0.0,0.0,0.0,0.0,0.0,0.0,0.0,0.0,0.0,0.0,0.0,0.0,0.0,0.0,0.0,0.0,0.0,0.0,0.0,0.0,0.0,0.0,0.0,0.0,0.0,0.0,0.0,0.0,0.0,0.0,1.0462,0.0,1.3012,0.0,1.2631,1.169,0.0,0.0,0.0,0.0,0.0,0.0,0.0,0.0,0.0,0.0,0.0,0.0,0.0,0.0,0.0,0.0,0.0,0.0,0.0,0.0,0.0,0.0,0.0,0.0,0.0,0.0,0.0,0.0,0.0,0.0,0.0,0.0,0.0,0.0,0.0,0.0,0.0,0.0,0.0,0.0,0.0,0.0,0.0,0.0,0.0,0.0,0.0,0.0,0.0,0.0,0.0,0.0,0.0,0.0,0.0,0.0,0.0,0.0,0.0,0.0,0.0,0.0,0.0,0.0,0.0,0.0,0.0,0.0,0.0,0.0,0.0,0.0,0.0,0.0,0.0,0.0,0.0,0.0,0.0,0.0,0.0,0.0,0.0,0.0,0.0,0.0,0.0,0.0,0.0,0.0,0.0,0.0,0.0,0.0,0.0,0.0,0.0,0.0,0.0,0.0,0.0,0.0,0.0,0.0,0.0,0.0,0.0,0.0,1.0514,1.3351,1.4227,1.4244,1.3622,1.2811,1.1516,0.0,0.0,0.0,0.0,0.0,0.0,0.0,0.0,0.0,0.0,0.0,0.0,0.0,0.0,0.0,0.0,0.0,0.0,0.0,0.0,0.0,0.0,0.0,0.0,0.0,0.0,0.0,0.0,0.0,0.0,0.0,0.0,0.0,0.0,0.0,0.0,0.0,0.0,0.0,0.0,0.0,0.0,0.0,0.0,0.0,0.0,0.0,0.0,0.0,0.0,0.0,0.0,0.0,0.0,0.0,0.0,0.0,0.0,0.0,0.0,0.0,0.0,0.0,0.0,0.0,0.0,0.0,0.0,0.0,0.0,0.0,0.0,0.0,0.0,0.0,0.0,0.0,0.0,0.0,0.0,0.0,0.0,0.0,0.0,0.0,0.0,0.0,0.0,0.0,0.0,0.0,0.0,0.0,0.0,0.0,0.0,0.0,0.0,0.0,0.0,0.0,0.0,0.0,0.0,0.0,0.0,0.0,0.0,0.0,1.1304,1.252,1.3329,1.3536,1.1844,1.1147,0.0,0.0,0.0,0.0,0.0,0.0,0.0,0.0,0.0,0.0,0.0,0.0,0.0,0.0,0.0,0.0,0.0,0.0,0.0,0.0,0.0,0.0,0.0,0.0,0.0,0.0,0.0,0.0,0.0,0.0,0.0,0.0,0.0,0.0,0.0,0.0,0.0,0.0,0.0,0.0,0.0,0.0,0.0,0.0,0.0,0.0,0.0,0.0,0.0,0.0,0.0,0.0,0.0,0.0,0.0,0.0,0.0,0.0,0.0,0.0,0.0,0.0,0.0,0.0,0.0,0.0,0.0,0.0,0.0,0.0,0.0,0.0,0.0,0.0,0.0,0.0,0.0,0.0,0.0,0.0,0.0,0.0,0.0,0.0,0.0,0.0,0.0,0.0,0.0,0.0,0.0,0.0,0.0,0.0,0.0,0.0,0.0,0.0,0.0,0.0,0.0,0.0,0.0,0.0,0.0,0.0,0.0,0.0,0.0,1.1819,1.3304,1.4211,1.4435,1.2227,1.1286,1.1744,0.0,0.0,0.0,0.0,0.0,0.0,0.0,0.0,0.0,0.0,0.0,0.0,0.0,0.0,0.0,0.0,0.0,0.0,0.0,0.0,0.0,0.0,0.0,0.0,0.0,0.0,0.0,0.0,0.0,0.0,0.0,0.0,0.0,0.0,0.0,0.0,0.0,0.0,0.0,0.0,0.0,0.0,0.0,0.0,0.0,0.0,0.0,0.0,0.0,0.0,0.0,0.0,0.0,0.0,0.0,0.0,0.0,0.0,0.0,0.0,0.0,0.0,0.0,0.0,0.0,0.0,0.0,0.0,0.0,0.0,0.0,0.0,0.0,0.0,0.0,0.0,0.0,0.0,0.0,0.0,0.0,0.0,0.0,0.0,0.0,0.0,0.0,0.0,0.0,0.0,0.0,0.0,0.0,0.0,0.0,0.0,0.0,0.0,0.0,0.0,0.0,0.0,0.0,0.0,0.0,0.0,0.0,0.0,1.4391,1.6149,1.6698,1.5927,1.3764,1.2008,0.0,0.0,0.0,0.0,0.0,0.0,0.0,0.0,0.0,0.0,0.0,0.0,0.0,0.0,0.0,0.0,0.0,0.0,0.0,0.0,0.0,0.0,0.0,0.0,0.0,0.0,0.0,0.0,0.0,0.0,0.0,0.0,0.0,0.0,0.0,0.0,0.0,0.0,0.0,0.0,0.0,0.0,0.0,0.0,0.0,0.0,0.0,0.0,0.0,0.0,0.0,0.0,0.0,0.0,0.0,0.0,0.0,0.0,0.0,0.0,0.0,0.0,0.0,0.0,0.0,0.0,0.0,0.0,0.0,0.0,0.0,0.0,0.0,0.0,0.0,0.0,0.0,0.0,0.0,0.0,0.0,0.0,0.0,0.0,0.0,0.0,0.0,0.0,0.0,0.0,0.0,0.0,0.0,0.0,0.0,0.0,0.0,0.0,0.0,0.0,0.0,0.0,0.0,0.0,0.0,0.0,0.0,0.0,0.0,1.6773,1.8444,1.8728,1.7445,1.5292,1.3743,0.0,0.0,0.0,0.0,0.0,0.0,0.0,0.0,0.0,0.0,0.0,0.0,0.0,0.0,0.0,0.0,0.0,0.0,0.0,0.0,0.0,0.0,0.0,0.0,0.0,0.0,0.0,0.0,0.0,0.0,0.0,0.0,0.0,0.0,0.0,0.0,0.0,0.0,0.0,0.0,0.0,0.0,0.0,0.0,0.0,0.0,0.0,0.0,0.0,0.0,0.0,0.0,0.0,0.0,0.0,0.0,0.0,0.0,0.0,0.0,0.0,0.0,0.0,0.0,0.0,0.0,0.0,0.0,0.0,0.0,0.0,0.0,0.0,0.0,0.0,0.0,0.0,0.0,0.0,0.0,0.0,0.0,0.0,0.0,0.0,0.0,0.0,0.0,0.0,0.0,0.0,0.0,0.0,0.0,0.0,0.0,0.0,0.0,0.0,0.0,0.0,0.0,0.0,0.0,0.0,0.0,0.0,0.0,1.6277,1.8054,2.0052,2.0543,1.941,1.7298,1.54,0.0,0.0,0.0,0.0,0.0,0.0,0.0,0.0,0.0,0.0,0.0,0.0,0.0,0.0,0.0,0.0,0.0,0.0,0.0,0.0,0.0,0.0,0.0,0.0,0.0,0.0,0.0,0.0,0.0,0.0,0.0,0.0,0.0,0.0,0.0,0.0,0.0,0.0,0.0,0.0,0.0,0.0,0.0,0.0,0.0,0.0,0.0,0.0,0.0,0.0,0.0,0.0,0.0,0.0,0.0,0.0,0.0,0.0,0.0,0.0,0.0,0.0,0.0,0.0,0.0,0.0,0.0,0.0,0.0,0.0,0.0,0.0,0.0,0.0,0.0,0.0,0.0,0.0,0.0,0.0,0.0,0.0,0.0,0.0,0.0,0.0,0.0,0.0,0.0,0.0,0.0,0.0,0.0,0.0,0.0,0.0,0.0,0.0,0.0,0.0,0.0,0.0,0.0,0.0,0.0,0.0,0.0,0.0,1.7395,1.8726,2.1053,2.2,2.1411,1.939,1.6995,0.0,0.0,0.0,0.0,0.0,0.0,0.0,0.0,0.0,0.0,0.0,0.0,0.0,0.0,0.0,0.0,0.0,0.0,0.0,0.0,0.0,0.0,0.0,0.0,0.0,0.0,0.0,0.0,0.0,0.0,0.0,0.0,0.0,0.0,0.0,0.0,0.0,0.0,0.0,0.0,0.0,0.0,0.0,0.0,0.0,0.0,0.0,0.0,0.0,0.0,0.0,0.0,0.0,0.0,0.0,0.0,0.0,0.0,0.0,0.0,0.0,0.0,0.0,0.0,0.0,0.0,0.0,0.0,0.0,0.0,0.0,0.0,0.0,0.0,0.0,0.0,0.0,0.0,0.0,0.0,0.0,0.0,0.0,0.0,0.0,0.0,0.0,0.0,0.0,0.0,0.0,0.0,0.0,0.0,0.0,0.0,0.0,0.0,0.0,0.0,0.0,0.0,0.0,0.0,0.0,0.0,0.0,0.0,1.8009,1.9596,2.1431,2.2337,2.2231,2.0106,1.7851,0.0,0.0,0.0,0.0,0.0,0.0,0.0,0.0,0.0,0.0,0.0,0.0,0.0,0.0,0.0,0.0,0.0,0.0,0.0,0.0,0.0,0.0,0.0,0.0,0.0,0.0,0.0,0.0,0.0,0.0,0.0,0.0,0.0,0.0,0.0,0.0,0.0,0.0,0.0,0.0,0.0,0.0,0.0,0.0,0.0,0.0,0.0,0.0,1.1795,0.0,0.0,0.0,0.0,0.0,0.0,0.0,0.0,0.0,0.0,0.0,0.0,0.0,0.0,0.0,0.0,0.0,0.0,0.0,0.0,0.0,0.0,0.0,0.0,0.0,0.0,0.0,0.0,0.0,0.0,0.0,0.0,0.0,0.0,0.0,0.0,0.0,0.0,0.0,0.0,0.0,0.0,0.0,0.0,0.0,0.0,0.0,0.0,0.0,0.0,0.0,0.0,0.0,0.0,0.0,0.0,0.0,0.0,0.0,1.8684,2.0244,2.163,2.2394,2.2364,2.0935,1.899,0.0,0.0,0.0,0.0,0.0,0.0,0.0,0.0,0.0,0.0,0.0,0.0,0.0,0.0,0.0,0.0,0.0,0.0,0.0,0.0,0.0,0.0,0.0,0.0,0.0,0.0,0.0,0.0,0.0,0.0,0.0,0.0,0.0,0.0,0.0,0.0,0.0,0.0,0.0,0.0,0.0,0.0,0.0,0.0,0.0,0.0,0.0,0.0,0.0,0.0,0.0,0.0,0.0,0.0,0.0,0.0,0.0,0.0,0.0,0.0,0.0,0.0,0.0,0.0,0.0,0.0,0.0,0.0,0.0,0.0,0.0,0.0,0.0,0.0,0.0,0.0,0.0,0.0,0.0,0.0,0.0,0.0,0.0,0.0,0.0,0.0,0.0,0.0,0.0,0.0,0.0,0.0,0.0,0.0,0.0,0.0,0.0,0.0,0.0,0.0,0.0,0.0,0.0,0.0,0.0,0.0,0.0,1.6967,1.9095,2.082,2.1776,2.2265,2.2377,2.1603,1.9983,1.7341,0.0,0.0,0.0,0.0,0.0,0.0,0.0,0.0,0.0,0.0,0.0,0.0,0.0,0.0,0.0,0.0,0.0,0.0,0.0,0.0,0.0,0.0,0.0,0.0,0.0,0.0,0.0,0.0,0.0,0.0,0.0,0.0,0.0,0.0,0.0,0.0,0.0,0.0,1.1547,1.3494,0.0,0.0,0.0,0.0,0.0,0.0,0.0,0.0,1.3513,0.0,0.0,0.0,0.0,0.0,0.0,0.0,0.0,0.0,0.0,0.0,0.0,0.0,0.0,0.0,0.0,0.0,0.0,0.0,0.0,0.0,0.0,0.0,0.0,0.0,0.0,0.0,0.0,0.0,0.0,0.0,0.0,0.0,0.0,0.0,0.0,0.0,0.0,0.0,0.0,0.0,0.0,0.0,0.0,0.0,0.0,0.0,0.0,0.0,0.0,0.0,0.0,0.0,0.0,0.0,0.0,1.637,1.6912,1.862,2.1532,2.179,2.202,2.2293,2.161,1.9904,1.7181,0.0,0.0,0.0,0.0,0.0,0.0,0.0,0.0,0.0,0.0,0.0,0.0,0.0,0.0,0.0,0.0,0.0,0.0,0.0,0.0,0.0,0.0,0.0,0.0,0.0,0.0,0.0,0.0,0.0,0.0,0.0,0.0,0.0,0.0,0.0,0.0,0.0,0.0,0.0,1.4734,1.5747,0.0,0.0,0.0,0.0,0.0,0.0,0.0,0.0,1.3765,0.0,0.0,0.0,0.0,0.0,0.0,0.0,0.0,0.0,0.0,0.0,0.0,0.0,0.0,0.0,0.0,0.0,0.0,0.0,0.0,0.0,0.0,0.0,0.0,0.0,0.0,0.0,0.0,0.0,0.0,0.0,0.0,0.0,0.0,0.0,0.0,0.0,0.0,0.0,0.0,0.0,0.0,0.0,0.0,0.0,0.0,0.0,0.0,0.0,0.0,0.0,0.0,0.0,0.0,0.0,1.5631,1.7281,1.9223,2.1442,2.1886,2.2152,2.2248,2.0822,1.9032,0.0,0.0,0.0,0.0,0.0,0.0,0.0,0.0,0.0,0.0,0.0,0.0,0.0,0.0,0.0,0.0,0.0,0.0,0.0,0.0,0.0,0.0,0.0,0.0,0.0,0.0,0.0,0.0,0.0,0.0,0.0,0.0,0.0,0.0,0.0,0.0,0.0,0.0,0.0,0.0,1.5764,1.6618,1.7151,0.0,0.0,0.0,0.0,0.0,0.0,1.5379,1.4473,0.0,0.0,0.0,0.0,0.0,0.0,0.0,0.0,0.0,0.0,0.0,0.0,0.0,0.0,0.0,0.0,0.0,0.0,0.0,0.0,0.0,0.0,0.0,0.0,0.0,0.0,0.0,0.0,0.0,0.0,0.0,0.0,0.0,0.0,0.0,0.0,0.0,0.0,0.0,0.0,0.0,0.0,0.0,0.0,0.0,0.0,0.0,0.0,0.0,0.0,0.0,0.0,0.0,0.0,0.0,1.4622,1.7329,1.9556,2.1225,2.1886,2.2237,2.2248,2.0399,1.8477,0.0,0.0,0.0,0.0,0.0,0.0,0.0,0.0,0.0,0.0,0.0,0.0,0.0,0.0,0.0,0.0,0.0,0.0,0.0,0.0,0.0,0.0,0.0,0.0,0.0,0.0,0.0,0.0,0.0,0.0,0.0,0.0,0.0,0.0,0.0,0.0,0.0,0.0,0.0,0.0,0.0,1.7612,1.8178,1.8148,0.0,0.0,0.0,0.0,1.802,1.68,0.0,0.0,0.0,0.0,0.0,0.0,0.0,0.0,0.0,0.0,0.0,0.0,0.0,0.0,0.0,0.0,0.0,0.0,0.0,0.0,0.0,0.0,0.0,0.0,0.0,0.0,0.0,0.0,0.0,0.0,0.0,0.0,0.0,0.0,0.0,0.0,0.0,0.0,0.0,0.0,0.0,0.0,0.0,0.0,0.0,0.0,0.0,0.0,0.0,0.0,0.0,0.0,0.0,0.0,0.0,0.0,1.4558,1.628,1.8501,2.1146,2.1661,2.1974,2.2282,2.1414,1.9307,0.0,0.0,0.0,0.0,0.0,0.0,0.0,0.0,0.0,0.0,0.0,0.0,0.0,0.0,0.0,0.0,0.0,0.0,0.0,0.0,0.0,0.0,0.0,0.0,0.0,0.0,0.0,0.0,0.0,0.0,0.0,0.0,0.0,0.0,0.0,0.0,0.0,0.0,0.0,0.0,0.0,1.8977,1.8612,1.8278,1.8178,0.0,0.0,1.8283,1.9447,1.8924,0.0,0.0,0.0,0.0,0.0,0.0,0.0,0.0,0.0,0.0,0.0,0.0,0.0,0.0,0.0,0.0,0.0,0.0,0.0,0.0,0.0,0.0,0.0,0.0,0.0,0.0,0.0,0.0,0.0,0.0,0.0,0.0,0.0,0.0,0.0,0.0,0.0,0.0,0.0,0.0,0.0,0.0,0.0,0.0,0.0,0.0,0.0,0.0,0.0,0.0,0.0,0.0,0.0,0.0,0.0,1.2745,1.4815,1.7032,1.926,2.1442,2.1886,2.2152,2.231,2.0331,1.8115,0.0,0.0,0.0,0.0,0.0,0.0,0.0,0.0,0.0,0.0,0.0,0.0,0.0,0.0,0.0,0.0,0.0,0.0,0.0,0.0,0.0,0.0,0.0,0.0,0.0,0.0,0.0,0.0,0.0,0.0,0.0,0.0,0.0,0.0,0.0,0.0,0.0,0.0,0.0,0.0,0.0,0.0,1.946,1.9341,0.0,0.0,0.0,1.973,1.9765,0.0,0.0,0.0,0.0,0.0,0.0,0.0,0.0,0.0,0.0,0.0,0.0,0.0,0.0,0.0,0.0,0.0,0.0,0.0,0.0,0.0,0.0,0.0,0.0,0.0,0.0,0.0,0.0,0.0,0.0,0.0,0.0,0.0,0.0,0.0,0.0,0.0,0.0,0.0,0.0,0.0,0.0,0.0,0.0,0.0,0.0,0.0,0.0,0.0,0.0,0.0,0.0,0.0,0.0,0.0,0.0,0.0,1.5016,1.7682,1.9922,2.1628,2.2094,2.2282,2.2276,1.9739,0.0,0.0,0.0,0.0,0.0,0.0,0.0,0.0,0.0,0.0,0.0,0.0,0.0,0.0,0.0,0.0,0.0,0.0,0.0,0.0,0.0,0.0,0.0,0.0,0.0,0.0,0.0,0.893,0.0,0.0,0.0,0.0,0.0,0.0,0.0,0.0,0.0,0.0,0.0,0.0,0.0,0.0,1.8603,1.9871,1.9862,1.9641,0.0,0.0,2.0456,1.9899,1.9915,1.9372,0.0,0.0,0.0,0.0,0.0,0.0,0.0,0.0,0.0,0.0,0.0,0.0,0.0,0.0,0.0,0.0,0.0,0.0,0.0,0.0,0.0,0.0,0.0,0.0,0.0,0.0,0.0,0.0,0.0,0.0,0.0,0.0,0.0,0.0,0.0,0.0,0.0,0.0,0.0,0.0,0.0,0.0,0.0,0.0,0.0,0.0,0.0,0.0,0.0,0.0,0.0,0.0,0.0,0.0,0.0,1.5016,1.7646,1.991,2.1628,2.2036,2.2242,2.2248,2.0694,1.8498,0.0,0.0,0.0,0.0,0.0,0.0,0.0,0.0,0.0,0.0,0.0,0.0,0.0,0.0,0.0,0.0,0.0,0.0,0.0,0.0,0.0,0.0,0.0,0.0,0.0,0.0,0.0,0.0,0.0,0.0,0.0,0.0,0.0,0.0,0.0,0.0,0.0,0.0,0.0,0.0,0.0,1.9001,1.9233,1.91,1.9144,0.0,0.0,1.9576,2.0082,2.0523,2.0157,1.8247,0.0,0.0,0.0,0.0,0.0,0.0,0.0,0.0,0.0,0.0,0.0,0.0,0.0,0.0,0.0,0.0,0.0,0.0,0.0,0.0,0.0,0.0,0.0,0.0,0.0,0.0,0.0,0.0,0.0,0.0,0.0,0.0,0.0,0.0,0.0,0.0,0.0,0.0,0.0,0.0,0.0,0.0,0.0,0.0,0.0,0.0,0.0,0.0,0.0,0.0,0.0,0.0,0.0,1.4177,1.5912,1.8532,2.0537,2.1849,2.2094,2.2225,2.2299,2.0812,1.8843,0.0,0.0,0.0,0.0,0.0,0.0,0.0,0.0,0.0,0.0,0.0,0.0,0.0,0.0,0.0,0.0,0.0,0.0,0.0,0.0,0.0,0.0,0.0,0.0,0.0,0.0,0.0,0.0,0.8443,0.8488,0.8441,0.0,0.0,0.0,0.0,0.0,0.0,0.0,0.0,0.0,0.0,1.8261,1.8647,1.8608,0.0,0.0,1.8812,1.9034,1.8861,1.942,1.9233,1.7546,1.7425,0.0,0.0,0.0,0.0,0.0,0.0,0.0,0.0,0.0,0.0,0.0,0.0,0.0,0.0,0.0,0.0,0.0,0.0,0.0,0.0,0.0,0.0,0.0,0.0,0.0,0.0,0.0,0.0,0.0,0.0,0.0,0.0,0.0,0.0,0.0,0.0,0.0,0.0,0.0,0.0,0.0,0.0,0.0,0.0,0.0,0.0,0.0,0.0,0.0,0.0,0.0,0.0,1.4541,1.6303,1.8904,2.0744,2.1807,2.2049,2.218,2.2175,2.0955,1.9251,0.0,0.0,0.0,0.0,0.0,0.0,0.0,0.0,0.0,0.0,0.0,0.0,0.0,0.0,0.0,0.0,0.0,0.0,0.0,0.0,0.0,0.0,0.0,0.0,0.0,0.0,0.0,0.0,0.8243,0.8258,0.8285,0.0,0.0,0.0,0.0,0.0,0.0,0.0,0.0,0.0,0.0,1.7618,1.8068,1.8166,1.809,1.7747,1.8377,1.8745,1.8299,1.8637,1.8564,1.7294,0.0,0.0,0.0,0.0,0.0,0.0,0.0,0.0,0.0,0.0,0.0,0.0,0.0,0.0,0.0,0.0,0.0,0.0,0.0,0.0,0.0,0.0,0.0,0.0,0.0,0.0,0.0,0.8798,0.0,0.0,0.8814,0.0,0.0,0.0,0.0,0.0,0.0,0.0,0.0,0.0,0.0,0.0,0.0,0.0,0.0,0.0,0.0,0.0,0.0,0.0,0.0,0.0,0.0,1.4183,1.5927,1.8534,2.0351,2.1385,2.1794,2.1998,2.201,2.1317,1.9916,1.7612,0.0,0.0,0.0,0.0,0.0,0.0,0.0,0.0,0.0,0.0,0.0,0.0,0.0,0.0,0.0,0.0,0.0,0.0,0.0,0.0,0.0,0.0,0.0,0.0,0.0,0.0,0.8191,0.8154,0.8085,0.0,0.0,0.0,0.0,0.0,0.0,0.0,0.0,0.0,0.0,1.6629,1.7197,1.7464,1.7827,1.8001,1.8001,1.8372,1.8687,1.8556,1.8535,1.8351,0.0,0.0,0.0,0.0,0.0,0.0,0.0,0.0,0.0,0.0,0.0,0.0,0.0,0.0,0.0,0.0,0.0,0.0,0.0,0.0,0.0,0.0,0.0,0.0,0.0,0.0,0.0,1.1844,1.0303,0.0,0.0,0.0,0.0,0.0,0.0,0.0,0.0,0.0,0.0,0.0,1.6295,1.8335,0.0,0.0,0.0,0.0,0.0,0.0,0.0,0.0,0.0,0.0,0.0,0.0,1.5032,1.6677,1.9396,2.1004,2.1401,2.1735,2.1969,2.1998,2.1295,1.9638,1.6954,0.0,0.0,0.0,0.0,0.0,0.0,0.0,0.0,0.0,0.0,0.0,0.0,0.0,0.0,0.0,0.0,0.0,0.0,0.0,0.0,0.0,0.0,0.0,0.0,0.0,0.8156,0.0,0.0,0.0,0.0,0.0,0.0,0.0,0.0,0.0,0.0,0.0,1.5316,1.6166,1.6414,1.6469,1.6435,1.6495,1.6469,0.0,0.0,0.0,0.0,0.0,0.0,0.0,0.0,0.0,0.0,0.0,0.0,0.0,0.0,1.2328,1.2193,1.2545,1.288,1.2917,0.0,0.0,0.0,0.0,0.0,0.0,0.0,0.0,0.0,0.0,0.0,0.0,0.0,0.0,1.4897,0.0,1.3608,0.0,0.0,0.0,0.0,0.0,0.0,0.0,0.0,1.6102,1.6949,1.8461,2.0246,2.0147,0.0,1.8166,1.6739,0.0,0.0,0.0,0.0,0.0,0.0,0.0,0.0,1.5838,1.771,1.9975,2.1214,2.1355,2.1705,2.1911,2.1895,2.1211,1.9784,1.7629,1.5813,1.4051,0.0,0.0,0.0,0.0,0.0,0.0,0.0,0.0,0.0,0.0,0.0,0.0,0.0,0.0,0.0,0.0,0.0,0.0,0.0,0.0,0.0,0.0,0.0,0.8259,0.0,0.0,0.0,0.0,0.0,0.0,0.0,0.0,0.0,1.4921,1.5448,1.5873,1.6333,1.6313,1.6115,1.5699,0.0,0.0,0.0,0.0,0.0,0.0,0.0,1.5118,1.4639,1.4653,1.4451,1.3701,1.279,1.2139,1.1953,0.0,0.0,1.1918,1.2623,1.3081,1.3118,1.4092,1.4692,1.4145,1.4842,1.5402,0.0,0.0,0.0,0.0,0.0,0.0,0.0,0.0,1.5764,1.8516,0.0,1.7232,0.0,0.0,0.0,0.0,0.0,1.7115,0.0,0.0,2.0336,2.1173,2.0329,2.123,2.1134,2.0251,2.0828,2.0205,1.8313,1.5698,0.0,0.0,0.0,0.0,0.0,0.0,1.6586,1.8961,2.0178,2.0958,2.1277,2.1645,2.184,2.1751,2.1102,2.0345,1.9574,1.755,1.5956,1.4837,1.2416,0.0,0.0,0.0,0.0,0.0,0.0,0.0,0.0,0.0,0.0,0.0,0.0,0.0,0.0,0.0,0.0,0.0,0.0,0.0,0.0,0.8643,0.0,0.0,0.0,0.0,0.0,0.0,0.0,0.0,0.0,0.0,1.6323,1.6475,1.6402,1.6318,0.0,0.0,0.0,0.0,1.5727,1.5647,1.5539,1.5361,1.534,1.4501,1.3824,1.3782,0.0,0.0,1.1372,1.0911,1.0397,0.9594,0.9511,0.9985,1.1719,1.2623,1.3272,1.332,1.3703,1.4143,1.4185,1.4272,1.4594,2.1781,0.0,0.0,0.0,0.0,1.9684,1.9498,1.9518,2.0578,2.1317,2.1635,1.9395,0.0,0.0,0.0,0.0,0.0,0.0,1.9948,2.12,2.0588,2.1087,2.2655,2.2867,2.2442,2.1568,2.1745,2.115,1.9909,1.8783,1.7108,1.4891,0.0,0.0,0.0,0.0,1.7361,1.8408,1.9696,2.0563,2.0925,2.1055,2.1103,2.1071,2.1098,2.0645,1.9711,1.8664,1.7189,1.5245,1.3844,0.0,0.0,0.0,0.0,0.0,0.0,0.0,0.0,0.0,0.0,0.0,0.0,0.0,0.0,0.0,0.0,0.0,0.0,0.0,0.9015,0.8479,0.8597,0.0,0.0,0.0,0.0,0.0,0.0,0.0,0.0,0.0,1.6538,1.6161,1.589,0.0,0.0,1.5425,1.5242,1.4711,1.4202,1.3714,1.3491,0.0,1.2989,1.2581,1.2159,1.1791,1.0959,1.0302,1.0187,0.9672,0.9222,0.9108,0.9124,0.9321,0.9784,1.048,1.1052,1.1349,1.1605,1.1864,1.218,1.2569,1.305,2.5456,2.3981,2.2377,2.2135,2.2805,2.2298,2.2349,2.2802,2.3208,2.3379,2.3328,2.1936,2.0416,1.8828,1.8306,0.0,0.0,0.0,2.1866,2.3112,2.1761,2.205,2.3618,2.4131,2.3767,2.2715,2.2715,2.2271,2.1465,2.1093,1.9655,1.7152,0.0,0.0,1.6866,1.7599,1.8327,1.9168,2.0156,2.0778,2.099,2.099,2.099,2.099,2.1055,2.0799,2.0178,1.9483,1.8371,1.6851,1.5239,1.3518,0.0,0.0,0.0,0.0,0.0,0.0,0.0,0.0,0.0,0.0,0.0,0.9386,0.8756,0.0,0.0,0.0,0.9259,0.9704,0.9928,0.9719,0.0,0.0,0.0,0.0,0.0,0.0,0.0,1.4879,1.4647,1.4868,1.6213,1.5552,1.5169,1.5875,1.5512,1.499,1.4551,0.0,1.3386,1.2553,1.2202,1.1765,1.1009,1.0691,1.0334,0.9995,0.9304,0.8709,0.8516,0.8006,0.7553,0.7358,0.7428,0.7623,0.7817,0.809,0.8696,0.9734,0.9967,1.018,1.0583,1.1086,1.1678,2.8569,2.8373,2.5897,2.4702,2.4463,2.4447,2.4332,2.4166,2.4232,2.4863,2.5816,2.4597,2.3556,2.2671,2.2671,0.0,2.2785,2.3405,2.3715,2.3832,2.3744,2.3694,2.3811,2.4956,2.4839,2.363,2.3562,2.3304,2.2853,2.2545,2.174,2.0347,1.8918,1.8834,1.9994,1.9211,1.9405,2.0663,2.0974,2.1183,2.1183,2.1214,2.1214,2.1151,2.0893,2.0728,2.0679,1.989,1.9307,1.8906,1.6554,1.4764,1.3755,0.0,0.0,0.0,0.0,0.0,0.0,0.0,0.0,0.0,0.0,0.0,0.0,0.0,0.0,0.0,1.0838,0.0,1.1247,1.1733,0.0,0.0,0.0,1.1962,1.2523,1.3439,1.4213,1.474,0.0,0.0,1.5614,1.4812,1.4434,1.4862,1.496,1.4567,1.3563,1.3298,1.287,1.1796,1.1288,1.0585,0.9577,0.8958,0.8508,0.8265,0.7792,0.7199,0.6613,0.6125,0.5463,0.5077,0.5011,0.5404,0.5924,0.5982,0.6392,0.8249,0.8703,0.8843,0.9354,0.9762,1.0227,2.8472,2.84,2.7761,2.7461,2.7424,2.7404,2.673,2.5718,2.6163,2.6211,2.5848,2.4987,2.4144,2.3373,2.3423,2.3734,2.4204,2.4316,2.4691,2.5216,2.5118,2.5098,2.5098,2.4782,2.4366,2.3893,2.3173,2.2717,2.2496,2.2049,2.1858,2.1837,2.114,2.0248,1.9173,1.9793,2.0035,1.9869,1.9995,2.01,2.0085,2.0326,2.0326,2.0085,2.0258,2.0204,1.9904,1.9443,1.8781,1.7852,1.6721,1.5315,1.3572,1.2201,0.0,0.0,0.0,0.0,0.0,0.0,0.0,0.0,0.0,1.1154,0.9474,0.0,1.1492,0.0,1.1007,1.1368,1.2225,1.2002,0.0,0.0,1.3727,1.4249,1.5037,1.493,1.5038,1.5567,1.5241,1.5006,1.5034,1.4757,1.4197,1.3512,1.3651,1.3696,1.3314,1.2244,1.1158,1.029,0.9533,0.9007,0.8538,0.7547,0.6628,0.6176,0.5579,0.5033,0.4897,0.4537,0.4342,0.468,0.4345,0.4408,0.4942,0.508,0.5209,0.5731,0.6256,0.7046,0.8226,0.8006,0.7916,2.9357,2.9334,2.9294,2.9334,2.9284,2.8616,2.7876,2.7199,2.7388,2.7191,2.6667,2.6238,2.588,2.5505,2.5489,2.5663,2.6016,2.5978,2.6065,2.6113,2.5766,2.5599,2.5562,2.5118,2.4703,2.4372,2.3871,2.3366,2.2924,2.2626,2.2409,2.226,2.2109,2.1302,1.9879,2.0679,2.0971,2.0707,2.0421,2.0177,2.0065,2.007,1.9984,1.9904,1.9854,1.9611,1.9165,1.8882,1.8306,1.743,1.6688,1.5648,1.4269,1.3147,1.2213,0.0,0.0,0.0,0.0,0.0,0.0,0.0,0.0,0.0,0.0,0.0,1.2571,1.2378,1.2555,1.2941,1.3638,1.3558,1.3762,1.441,1.458,1.4956,1.5721,1.5413,1.5379,1.5939,1.536,1.4863,1.4936,1.4279,1.3729,1.3219,1.2678,1.234,1.2249,1.1475,1.042,0.9274,0.8321,0.7406,0.6901,0.6032,0.535,0.5209,0.4409,0.3711,0.3698,0.3069,0.2609,0.3011,0.2813,0.2679,0.308,0.3147,0.3278,0.3813,0.3811,0.4535,0.6453,0.6453,0.6375,3.0485,3.0485,3.0417,3.0375,3.0276,2.8984,2.8507,2.8613,2.8296,2.7956,2.7721,2.7688,2.7778,2.7875,2.7721,2.7664,2.7721,2.7664,2.7357,2.6798,2.5982,2.5591,2.5615,2.5484,2.521,2.4799,2.4704,2.4297,2.3696,2.3551,2.3067,2.225,2.242,2.2167,2.1374,2.1754,2.1937,2.1873,2.1182,2.07,2.041,2.0054,1.9929,1.9995,1.9617,1.914,1.8594,1.8405,1.8007,1.7378,1.6695,1.599,1.5322,1.417,1.352,0.0,1.2813,0.0,0.0,0.0,0.0,0.0,0.0,0.0,0.0,1.3651,1.3548,1.3987,1.4636,1.5015,1.5083,1.5509,1.5573,1.5004,1.4945,1.5154,1.5722,1.5546,1.5556,1.6055,1.542,1.4979,1.4873,1.3754,1.3091,1.2954,1.2031,1.1125,1.0789,1.0536,0.9772,0.8295,0.7138,0.5911,0.4997,0.4459,0.4332,0.4465,0.3541,0.277,0.2691,0.1729,0.0949,0.1082,0.1151,0.1081,0.1076,0.1142,0.1478,0.2479,0.2013,0.2278,0.4541,0.5008,0.5077,3.0417,3.0401,3.0274,3.0231,3.0215,2.9809,2.976,2.9793,2.9098,2.8396,2.7705,2.7705,2.7705,2.7721,2.7573,2.7557,2.7705,2.7515,2.7476,2.7437,2.6204,2.5649,2.5699,2.4909,2.442,2.4204,2.361,2.3566,2.4135,2.3392,2.3128,2.3286,2.301,2.2966,2.3148,0.0,0.0,0.0,2.0638,2.0326,1.9822,1.9705,1.9669,1.9683,1.9487,0.0,1.8414,1.83,1.7952,1.7185,1.7026,0.0,0.0,0.0,0.0,0.0,0.0,0.0,0.0,0.0,0.0,0.0,1.4081,1.3838,1.396,1.4866,1.5532,1.5697,1.5618,1.5565,1.556,1.5869,1.5971,1.5879,1.6276,1.6606,1.6713,1.6547,1.63,1.5827,1.5632,1.5078,1.4009,1.3512,1.2947,1.1829,1.1335,1.0501,0.9064,0.8836,0.8147,0.6762,0.5372,0.4441,0.4274,0.3478,0.2843,0.2462,0.1969,0.1344,0.089,0.051,0.0355,0.0838,0.0556,0.0414,0.0946,0.1076,0.1077,0.1411,0.1209,0.1879,0.4281,0.3747,0.3211,3.0603,3.0274,3.0162,3.0119,0.0,2.9989,2.9967,3.0004,2.9621,2.913,2.8587,2.8458,2.8371,2.8371,2.8299,2.8299,2.8371,2.8063,2.7813,2.7553,2.7695,2.7005,2.5703,2.4687,2.4164,2.4132,2.3747,2.351,2.3451,2.2963,2.2933,2.3201,2.2947,2.3037,2.3304,2.2978,2.2309,2.1196,2.09,2.047,1.9868,1.9501,1.9376,1.945,1.9325,0.0,0.0,0.0,0.0,0.0,0.0,0.0,0.0,0.0,0.0,1.5923,1.5207,1.4855,1.5114,1.4941,1.5082,1.5593,1.5674,1.5447,1.4812,1.57,1.6325,1.6371,1.6365,1.6386,1.638,1.6612,1.6727,1.6688,1.6837,1.6914,1.6651,1.6449,1.6081,1.5532,1.5055,1.4418,1.3578,1.3098,1.2439,1.1254,1.0657,0.9664,0.8058,0.7918,0.7387,0.5375,0.4137,0.3285,0.2974,0.2272,0.1803,0.1641,0.0931,0.023,-0.0151,-0.0522,-0.066,-0.0287,-0.0429,-0.0425,-0.0138,-0.0,0.0137,0.0405,0.0269,0.0671,0.2477,0.228,0.1879,3.1122,3.0522,3.0277,3.0124,3.0097,2.9923,2.9806,2.9785,0.0,0.0,0.0,2.9213,2.9091,2.9075,2.9075,2.9029,2.8982,2.8622,2.8091,2.7535,2.8886,2.8198,2.5753,2.4855,2.4268,2.4048,2.4034,2.3589,2.2629,2.2615,2.2675,2.2749,2.2764,2.2795,2.2857,2.2781,2.2536,2.2106,2.1454,2.0787,2.0078,1.9527,1.9232,1.9242,1.9101,1.8774,1.8151,1.8151,1.7813,1.7092,1.7093,1.7022,1.681,1.6858,1.7037,1.7287,1.695,1.6639,1.6506,1.6557,1.6479,1.63,1.6753,1.6726,1.5972,1.633,1.6661,1.6764,1.6959,1.7094,1.7119,1.739,1.7468,1.7279,1.7096,1.6821,1.6379,1.6048,1.5695,1.5059,1.4322,1.3608,1.3091,1.2439,1.17,1.0812,0.99,0.8751,0.7138,0.6681,0.6069,0.4062,0.2974,0.235,0.1724,0.1254,0.0862,0.0783,-0.0,-0.07,-0.0917,-0.1288,-0.15,-0.1474,-0.1391,-0.1228,-0.1134,-0.1053,-0.0904,-0.034,-0.0677,-0.0743,0.0336,0.0739,0.0806,3.1971,3.1841,3.107,3.069,3.0475,2.9849,2.9396,2.9199,2.9229,2.9167,2.9167,2.9121,2.9091,2.9075,2.8826,2.8685,2.8559,2.8271,2.8064,2.7826,2.8082,2.7405,2.5982,2.577,2.4848,2.3507,2.3545,2.3263,2.2672,2.2615,2.2615,2.2615,2.2615,2.2661,2.2661,2.2615,2.2572,2.2517,2.2003,2.111,1.9958,1.9843,1.9541,1.906,1.8927,1.855,1.7977,1.8421,1.837,1.7624,1.7723,1.7548,1.6916,1.7023,1.6889,1.6388,1.6576,1.665,1.6506,1.6734,1.6876,1.7027,1.678,1.6759,1.7162,1.6841,1.683,1.7316,1.7196,1.7129,1.741,1.7671,1.773,1.7546,1.7169,1.6862,1.6684,1.6,1.5176,1.4314,1.3897,1.3011,1.1848,1.1403,1.0726,0.9458,0.8765,0.7999,0.5996,0.4297,0.3288,0.2666,0.2041,0.1256,0.0785,0.0471,-0.0,-0.1019,-0.1098,-0.141,-0.1791,-0.1865,-0.1852,-0.1741,-0.1634,-0.1463,-0.1451,-0.128,-0.1125,-0.0907,-0.1044,-0.0967,-0.0609,-0.0606,-0.0336,3.2208,3.1838,3.123,3.0943,3.0735,2.9326,2.8836,2.9022,2.8186,2.8194,2.8826,2.8558,2.8414,2.835,2.7993,2.778,2.7715,2.7363,2.721,2.7122,2.6905,2.6534,2.595,2.593,2.5289,2.4253,2.4275,2.383,2.2951,2.288,2.2757,2.2537,2.2569,2.2615,2.2615,2.2509,2.2523,2.2495,2.1941,2.1398,2.0826,2.0482,2.0036,1.9405,1.9298,1.8974,1.8366,1.8349,1.8177,1.7772,1.7624,1.7382,1.6993,1.7027,1.7031,1.6901,1.6798,1.6806,1.7024,1.7123,1.7234,1.7291,1.7073,1.7082,1.769,1.7188,1.6937,1.7204,1.7532,1.7791,1.7818,1.7704,1.7542,1.7341,1.6684,1.6088,1.5666,1.5171,1.4482,1.3542,1.2806,1.2137,1.1186,1.0726,1.0051,0.8846,0.7536,0.5841,0.4453,0.2898,0.2041,0.2354,0.1805,0.11,0.0393,-0.0,-0.0549,-0.1489,-0.1803,-0.2041,-0.2353,-0.2198,-0.2109,-0.2013,-0.1834,-0.174,-0.1645,-0.1476,-0.1311,-0.1289,-0.1201,-0.1115,-0.1102,-0.1089,-0.074,3.2155,3.1665,3.1193,3.0935,3.0565,2.9113,2.874,2.8897,2.7595,2.7584,2.8403,2.7886,2.7625,2.7625,2.724,2.7071,2.6916,2.6669,2.6443,2.6351,2.6056,2.5893,2.5893,2.5893,2.557,2.5036,2.498,2.4404,2.3407,2.3168,2.2836,2.2427,2.2477,2.2523,2.2509,2.2417,2.2278,2.2142,2.1766,2.1532,2.1524,2.0968,2.0373,1.9875,1.9585,1.9307,1.8913,1.8453,1.8126,1.8018,1.7613,1.7316,1.7231,1.7042,1.7137,1.7314,1.6995,1.6955,1.7397,1.7447,1.7427,1.7459,1.7412,1.7516,1.7759,1.7511,1.7305,1.7409,1.7936,1.8222,1.7941,1.761,1.7276,1.6793,1.5948,1.5251,1.4609,1.4186,1.3695,1.2893,1.1929,1.126,1.0807,1.0126,0.9216,0.7918,0.5915,0.4139,0.313,0.204,0.1649,0.1727,0.1492,0.0707,0.0078,-0.0471,-0.1098,-0.1724,-0.2352,-0.2743,-0.282,-0.2665,-0.2585,-0.2578,-0.2181,-0.201,-0.1911,-0.1669,-0.1576,-0.1475,-0.1307,-0.1212,-0.1121,-0.1095,-0.0942,3.1906,3.1784,3.1134,3.0356,2.9717,2.9749,2.951,2.8935,2.8204,2.7939,2.7986,2.744,2.7137,2.7174,2.7086,2.6864,2.6563,2.651,2.6297,2.6002,2.5948,2.5893,2.5893,2.5893,2.557,2.505,2.5008,2.4671,2.4019,2.3364,2.2774,2.2301,2.2231,2.2217,2.2231,2.2217,2.1996,2.152,2.1452,2.1401,2.1299,2.0795,2.0447,2.033,1.9387,1.9078,1.9415,1.9025,1.8741,1.8682,1.8105,1.7815,1.7733,1.7303,1.6988,1.69,1.6825,1.6985,1.7358,1.7387,1.7493,1.7665,1.7731,1.7748,1.7653,1.7863,1.8133,1.8226,1.8216,1.8001,1.7543,1.7385,1.6853,1.5948,1.5171,1.4609,1.4258,1.3542,1.2893,1.2673,1.1706,1.0807,1.0045,0.9221,0.8075,0.6538,0.5146,0.3826,0.2895,0.1883,0.1021,0.0707,0.0393,-0.0078,-0.1019,-0.1411,-0.1724,-0.2273,-0.3132,-0.3521,-0.3597,-0.3677,-0.3597,-0.3281,-0.2857,-0.2306,-0.2089,-0.1925,-0.1746,-0.1588,-0.1496,-0.133,-0.1206,-0.1097,-0.1011,3.1607,3.1577,3.1108,3.0683,3.0347,2.9912,2.9464,2.9088,2.8026,2.7116,2.6512,2.64,2.6422,2.6496,2.6258,2.5934,2.5646,2.5839,2.5853,2.5688,2.5839,2.5893,2.5893,2.5893,2.5739,2.5542,2.5514,2.5205,2.4568,2.3575,2.2971,2.2656,2.2082,2.1759,2.1712,2.141,2.114,2.0921,2.0908,2.0899,2.0879,2.0646,2.038,1.9999,1.9561,1.9237,1.9087,1.8634,1.8346,1.8244,1.7751,1.7398,1.7243,1.7015,1.6962,1.7162,1.7422,1.7611,1.7817,1.7668,1.7731,1.8115,1.781,1.7781,1.8203,1.7851,1.775,1.8243,1.8197,1.7811,1.7042,1.6576,1.593,1.5155,1.4394,1.384,1.3702,1.3185,1.2673,1.2003,1.1031,1.0126,0.9221,0.7923,0.6692,0.5461,0.4297,0.3205,0.235,0.1412,0.055,-0.0079,-0.0549,-0.102,-0.1489,-0.1567,-0.2116,-0.2974,-0.3521,-0.383,-0.4455,-0.4535,-0.438,-0.391,-0.349,-0.2939,-0.2423,-0.2184,-0.2011,-0.1772,-0.1424,-0.1244,-0.1129,-0.1097,-0.1079,3.0896,3.0852,3.0703,3.0553,3.0375,2.9643,2.9288,2.9045,2.7875,2.6835,2.6148,2.6126,2.601,2.5869,2.555,2.5201,2.5061,2.5257,2.5383,2.5369,2.5605,2.5702,2.5674,2.5591,2.5591,2.566,2.566,2.5354,2.4674,2.362,2.299,2.277,2.1889,2.1408,2.1269,2.0801,2.0459,2.0308,2.0308,2.0194,2.0042,2.0055,2.0002,1.9937,1.9641,1.9351,1.9028,1.857,1.824,1.8113,1.7716,1.7436,1.726,1.7203,1.7272,1.7553,1.7921,1.8084,1.7975,1.7946,1.7957,1.8129,1.79,1.8036,1.8269,1.78,1.7482,1.7687,1.7423,1.6853,1.6385,1.5745,1.5029,1.4371,1.376,1.3419,1.3185,1.282,1.2231,1.1403,1.0282,0.9221,0.8161,0.685,0.569,0.4611,0.3597,0.2426,0.1647,0.0785,0.0078,-0.0706,-0.1333,-0.1646,-0.1803,-0.2193,-0.2738,-0.3439,-0.4064,-0.4763,-0.5231,-0.5312,-0.5315,-0.4919,-0.4453,-0.3832,-0.3054,-0.2663,-0.2272,-0.187,-0.152,-0.1244,-0.1144,-0.111,-0.1088,2.9665,2.9727,2.9665,2.9526,2.9149,2.9107,2.9035,2.8858,2.7999,2.7727,2.7762,2.6979,2.6236,2.544,2.5175,2.5018,2.4948,2.5005,2.5005,2.5018,2.5256,2.5199,2.5061,2.4854,2.4867,2.5048,2.5061,2.4762,2.4109,2.3342,2.2763,2.2431,2.1707,2.1316,2.1069,2.063,2.0144,1.9718,1.9565,1.9226,1.8815,1.8762,1.9319,2.0181,1.9542,1.9193,1.9389,1.9061,1.8703,1.8543,1.8389,1.8274,1.8298,1.8089,1.797,1.8027,1.8061,1.7986,1.779,1.8024,1.8035,1.7717,1.8173,1.8363,1.7785,1.7742,1.7474,1.6811,1.5965,1.5409,1.5542,1.5188,1.4553,1.3768,1.3557,1.3339,1.2952,1.2224,1.1632,1.0887,0.9679,0.8313,0.6942,0.624,0.5151,0.391,0.3052,0.2193,0.0863,0.0393,-0.0314,-0.1097,-0.1646,-0.1803,-0.2353,-0.2898,-0.3441,-0.4219,-0.5151,-0.6005,-0.6086,-0.6163,-0.6086,-0.5854,-0.5309,-0.4611,-0.3756,-0.3056,-0.2586,-0.2103,-0.1535,-0.1269,-0.1159,-0.1137,-0.111,2.9477,2.9289,2.9035,2.8908,2.878,2.878,2.8733,2.8646,2.8166,2.7846,2.7645,2.6977,2.6149,2.5143,2.5038,2.4805,2.4474,2.4593,2.4694,2.4708,2.4975,2.5046,2.5005,2.4921,2.4738,2.458,2.4523,2.4244,2.3707,2.3013,2.2673,2.236,2.1516,2.1031,2.0809,2.0104,1.9588,1.9413,1.906,1.8774,1.8625,1.8614,1.8869,1.9226,1.8975,1.8827,1.8987,1.8774,1.8625,1.8476,1.8422,1.8367,1.8205,1.815,1.8041,1.7877,1.7579,1.7366,1.7305,1.7019,1.7032,1.7279,1.7407,1.7603,1.7446,1.7279,1.695,1.6464,1.548,1.4848,1.4848,1.4625,1.4129,1.3637,1.3492,1.3134,1.2338,1.1874,1.118,0.983,0.8546,0.7557,0.6633,0.5619,0.453,0.3522,0.2115,0.1098,0.0392,-0.0314,-0.1097,-0.1489,-0.1959,-0.2273,-0.2431,-0.321,-0.3986,-0.4996,-0.5928,-0.6395,-0.6707,-0.6861,-0.6861,-0.6318,-0.5854,-0.5309,-0.4377,-0.3136,-0.2666,-0.2421,-0.1846,-0.1436,-0.1172,-0.1149,-0.1117,2.9162,2.8908,2.8716,2.8522,2.8471,2.8471,2.8329,2.8226,2.7987,2.7736,2.7446,2.7079,2.6412,2.5628,2.5524,2.5092,2.4413,2.4411,2.4363,2.435,2.4421,2.4492,2.4478,2.4292,2.4034,2.3741,2.3564,2.3374,2.3157,2.2521,2.2288,2.2309,2.1406,2.0849,2.066,1.9898,1.9481,1.941,1.9142,1.8908,1.8744,1.8698,1.8627,1.8487,1.8452,1.8464,1.8518,1.8518,1.8464,1.8313,1.8313,1.8259,1.815,1.8084,1.7909,1.7545,1.7331,1.7069,1.6796,1.6535,1.6592,1.7023,1.7035,1.71,1.7139,1.6821,1.6533,1.6044,1.5267,1.4561,1.4418,1.4137,1.3775,1.3557,1.3492,1.3001,1.1857,1.1515,1.0357,0.877,0.794,0.7173,0.6321,0.5151,0.4142,0.3212,0.1412,0.0314,-0.0079,-0.0863,-0.1724,-0.1881,-0.2195,-0.2588,-0.3056,-0.3754,-0.4222,-0.5154,-0.6083,-0.6707,-0.7173,-0.7403,-0.7326,-0.6784,-0.6318,-0.5696,-0.4766,-0.3446,-0.2898,-0.2815,-0.2331,-0.1838,-0.1489,-0.1159,-0.113,2.8587,2.8587,2.8587,2.8341,2.8079,2.8079,2.7868,2.7616,2.7536,2.751,2.7458,2.7484,2.7013,2.6661,2.6387,2.5905,2.4827,2.4281,2.4034,2.4054,2.3628,2.345,2.3437,2.304,2.2834,2.2652,2.2175,2.2187,2.247,2.188,2.162,2.1747,2.1305,2.0875,2.0633,2.0168,1.9901,1.9819,1.9691,1.9414,1.8965,1.8953,1.8769,1.8311,1.823,1.8317,1.8402,1.8379,1.8313,1.8139,1.8096,1.8084,1.803,1.802,1.7723,1.7197,1.728,1.6974,1.6294,1.6625,1.6759,1.6806,1.7079,1.6982,1.6664,1.6464,1.6114,1.548,1.4919,1.4418,1.4137,1.3702,1.3419,1.3492,1.3346,1.2767,1.1689,1.0905,0.9739,0.8012,0.7484,0.6942,0.5854,0.4919,0.3908,0.2665,0.1256,0.0079,-0.0471,-0.1177,-0.1881,-0.2273,-0.2431,-0.2666,-0.3522,-0.4377,-0.4691,-0.516,-0.6009,-0.6707,-0.7173,-0.748,-0.748,-0.7092,-0.6784,-0.624,-0.5854,-0.4613,-0.3679,-0.3359,-0.28,-0.2243,-0.1811,-0.147,-0.1151,2.8276,2.821,2.7934,2.7789,2.7669,2.7669,2.7603,2.7523,2.7469,2.7469,2.7469,2.7469,2.6998,2.6229,2.6049,2.5332,2.3929,2.3691,2.3636,2.3513,2.3065,2.2871,2.2811,2.2665,2.2421,2.2125,2.1639,2.1463,2.1577,2.14,2.1348,2.1365,2.1249,2.1116,2.0934,2.0496,2.0231,2.0197,1.9849,1.9597,1.9459,1.9447,1.9356,1.9195,1.8862,1.8655,1.87,1.8389,1.815,1.8084,1.8084,1.7909,1.7612,1.7654,1.7359,1.6604,1.6353,1.6306,1.6002,1.5855,1.5958,1.6111,1.6289,1.6193,1.607,1.5833,1.5551,1.5133,1.4633,1.4201,1.3985,1.3339,1.2907,1.284,1.2592,1.1868,1.0494,0.9261,0.8318,0.7633,0.7099,0.6479,0.5699,0.4768,0.3761,0.2665,0.1097,-0.0078,-0.0628,-0.1491,-0.2195,-0.251,-0.251,-0.2588,-0.3134,-0.3988,-0.4613,-0.5157,-0.5931,-0.6707,-0.7246,-0.748,-0.748,-0.7326,-0.7019,-0.663,-0.6321,-0.5544,-0.4455,-0.391,-0.3431,-0.2854,-0.2203,-0.1791,-0.1536,2.7868,2.7881,2.7603,2.7469,2.7469,2.7469,2.7469,2.7469,2.7469,2.7271,2.695,2.7095,2.6726,2.6005,2.582,2.5132,2.4038,2.3794,2.3533,2.3121,2.2555,2.2372,2.2322,2.2187,2.1928,2.1639,2.1348,2.1233,2.1233,2.1233,2.1233,2.1233,2.1233,2.1019,2.0816,2.0482,2.0165,1.9868,1.9574,1.9393,1.9238,1.9194,1.9116,1.8857,1.8548,1.8394,1.8372,1.8027,1.7946,1.7999,1.7909,1.7712,1.7579,1.7355,1.6878,1.6266,1.6036,1.5944,1.5654,1.554,1.5523,1.5754,1.5805,1.5726,1.5576,1.5275,1.5125,1.4776,1.4418,1.3985,1.3542,1.3032,1.2459,1.1948,1.1774,1.0968,0.958,0.8335,0.7508,0.7215,0.6942,0.6301,0.5396,0.4673,0.3791,0.2753,0.1175,-0.0,-0.0628,-0.1647,-0.2196,-0.251,-0.251,-0.2588,-0.2588,-0.3446,-0.4457,-0.5234,-0.6009,-0.6707,-0.7326,-0.748,-0.748,-0.7249,-0.6942,-0.6398,-0.6012,-0.5237,-0.4302,-0.4144,-0.3908,-0.3494,-0.2841,-0.2276,-0.1939,2.7536,2.7469,2.7469,2.7469,2.7469,2.7469,2.7482,2.7496,2.7403,2.6883,2.6226,2.6501,2.6346,2.5906,2.5763,2.5294,2.4828,2.4261,2.3546,2.2752,2.2266,2.2091,2.1949,2.1537,2.1348,2.1296,2.1221,2.1233,2.1233,2.1233,2.1233,2.1233,2.1094,2.0839,2.0279,2.0085,1.9716,1.9225,1.9104,1.8874,1.8477,1.8456,1.8226,1.7854,1.7761,1.7709,1.776,1.7646,1.769,1.7924,1.7533,1.7481,1.7821,1.7143,1.6419,1.59,1.614,1.5932,1.5531,1.5557,1.5762,1.5797,1.5735,1.5655,1.5275,1.5054,1.4697,1.4122,1.3912,1.355,1.282,1.2378,1.1855,1.0881,1.0732,1.0132,0.9094,0.8182,0.7553,0.6958,0.6742,0.6453,0.509,0.4433,0.3828,0.292,0.1332,0.0313,-0.0392,-0.1254,-0.2273,-0.251,-0.251,-0.2743,-0.2899,-0.3837,-0.4768,-0.5541,-0.624,-0.6861,-0.7326,-0.748,-0.748,-0.7249,-0.6942,-0.6321,-0.5699,-0.5157,-0.4535,-0.4066,-0.391,-0.3832,-0.3418,-0.2763,-0.2426,2.7469,2.7469,2.7469,2.7469,2.7469,2.7469,2.7494,2.7408,2.705,2.6458,2.5995,2.6045,2.5791,2.5288,2.5217,2.4731,2.405,2.3746,2.3121,2.24,2.2486,2.2062,2.1551,2.1296,2.1233,2.1233,2.1233,2.1233,2.1233,2.1169,2.1169,2.1169,2.0624,2.0302,2.0031,1.9507,1.9243,1.9034,1.8977,1.8936,1.8746,1.8705,1.875,1.8616,1.8222,1.8068,1.8006,1.7573,1.741,1.7609,1.7366,1.7063,1.6941,1.6581,1.6141,1.5748,1.5815,1.5913,1.5721,1.5737,1.5805,1.5797,1.5505,1.5355,1.5204,1.4697,1.4122,1.3535,1.3178,1.2739,1.2003,1.1564,1.0669,0.9528,0.9413,0.9103,0.82,0.7873,0.7517,0.6805,0.6438,0.5708,0.4942,0.4245,0.3722,0.291,0.1646,0.0313,-0.0235,-0.1332,-0.251,-0.251,-0.2588,-0.2978,-0.3444,-0.438,-0.5157,-0.5928,-0.6549,-0.7169,-0.748,-0.748,-0.748,-0.7403,-0.7096,-0.6553,-0.6083,-0.5616,-0.4919,-0.3912,-0.3521,-0.3287,-0.3443,-0.3105,-0.2994,2.6904,2.6607,2.6756,2.6607,2.6377,2.6526,2.6929,2.7196,2.63,2.5615,2.5252,2.5052,2.4933,2.4671,2.4443,2.4244,2.3787,2.3764,2.3265,2.2554,2.2582,2.225,2.1629,2.1319,2.1233,2.1233,2.1169,2.1233,2.1158,2.0892,2.0764,2.056,1.9966,1.9497,1.91,1.8834,1.8442,1.8182,1.8104,1.8114,1.8114,1.8104,1.8104,1.8065,1.7849,1.7654,1.7539,1.7071,1.7074,1.74,1.7103,1.6679,1.6656,1.6211,1.5895,1.5584,1.5764,1.5805,1.5805,1.5805,1.5726,1.5576,1.5275,1.5054,1.4705,1.4122,1.3462,1.3032,1.2526,1.1929,1.1353,1.0674,0.9821,0.885,0.8595,0.8338,0.7585,0.7403,0.7016,0.6485,0.5875,0.5317,0.4551,0.4088,0.3568,0.2753,0.1567,0.0548,-0.0157,-0.1567,-0.2431,-0.2431,-0.2588,-0.2978,-0.3679,-0.4535,-0.5389,-0.6163,-0.678,-0.748,-0.748,-0.748,-0.748,-0.7403,-0.7173,-0.6784,-0.616,-0.5458,-0.4375,-0.3599,-0.3054,-0.2976,-0.3209,-0.3287,-0.3175,2.5923,2.5252,2.5639,2.5405,2.4874,2.5122,2.6015,2.6633,2.5421,2.4422,2.3956,2.3795,2.3925,2.4055,2.374,2.3728,2.402,2.3891,2.3374,2.2822,2.2555,2.2179,2.1486,2.1124,2.0997,2.0963,2.1088,2.0892,2.0624,2.0237,2.0031,1.9835,1.9243,1.8633,1.8307,1.7969,1.751,1.7176,1.7176,1.7176,1.7176,1.7107,1.7097,1.7088,1.701,1.6826,1.6697,1.6453,1.6738,1.773,1.6689,1.6468,1.6725,1.5978,1.567,1.5756,1.578,1.5805,1.5805,1.5726,1.5576,1.5275,1.5133,1.484,1.4201,1.3615,1.298,1.2614,1.1948,1.1335,1.0622,0.9962,0.9203,0.8528,0.8524,0.8155,0.7588,0.7058,0.6592,0.5791,0.5325,0.4819,0.4188,0.3816,0.3542,0.2752,0.1488,0.0627,-0.0235,-0.1412,-0.2118,-0.2273,-0.2586,-0.3056,-0.3834,-0.4691,-0.5541,-0.6395,-0.7015,-0.748,-0.748,-0.748,-0.748,-0.7403,-0.7249,-0.6707,-0.5851,-0.4919,-0.3988,-0.321,-0.2665,-0.2898,-0.3287,-0.321,-0.3113,2.4992,2.4815,2.4969,2.4886,2.4732,2.4815,2.4992,2.518,2.4391,2.3363,2.2687,2.2892,2.3202,2.3309,2.3224,2.3224,2.3224,2.3224,2.284,2.2318,2.2105,2.1492,2.0843,2.0445,2.0398,2.0366,2.0095,1.9813,1.9528,1.9396,1.9243,1.91,1.8566,1.8172,1.7901,1.7364,1.7107,1.6908,1.6899,1.6839,1.683,1.676,1.6682,1.6682,1.6551,1.6412,1.6342,1.6202,1.6289,1.6339,1.6258,1.618,1.6262,1.5974,1.5773,1.5762,1.5805,1.5805,1.5735,1.5505,1.5275,1.5133,1.4697,1.4274,1.4129,1.3193,1.2641,1.2149,1.147,1.0657,0.9769,0.9062,0.8638,0.8391,0.8183,0.7847,0.7293,0.7051,0.6518,0.5616,0.5206,0.4867,0.4095,0.3846,0.3385,0.2526,0.1567,0.0548,-0.0392,-0.1412,-0.1804,-0.2118,-0.2743,-0.329,-0.4377,-0.5231,-0.616,-0.6703,-0.7169,-0.748,-0.748,-0.748,-0.748,-0.748,-0.7407,-0.6707,-0.5931,-0.4996,-0.4217,-0.3209,-0.2352,-0.243,-0.2665,-0.2743,-0.2821,2.4045,2.361,2.3829,2.3672,2.3379,2.3537,2.3519,2.3301,2.3012,2.2499,2.1966,2.2253,2.2628,2.2927,2.2767,2.2692,2.2456,2.2059,2.1669,2.1268,2.1064,2.0658,2.0078,1.9561,1.9312,1.9776,1.9514,1.9172,1.8965,1.8464,1.823,1.822,1.7628,1.7285,1.7217,1.689,1.6751,1.6621,1.6621,1.663,1.6621,1.6551,1.6473,1.6403,1.6272,1.6202,1.6202,1.6061,1.6,1.5929,1.5929,1.5929,1.5929,1.5867,1.5805,1.5805,1.5805,1.5655,1.5505,1.5355,1.5062,1.4705,1.4274,1.384,1.3455,1.2709,1.2175,1.1621,1.0878,1.0021,0.9089,0.8868,0.847,0.7946,0.7815,0.7318,0.655,0.6521,0.6307,0.5289,0.4765,0.4498,0.4105,0.372,0.293,0.2001,0.0942,-0.0,-0.0706,-0.1571,-0.1806,-0.2198,-0.2899,-0.3756,-0.4844,-0.5854,-0.678,-0.7169,-0.7326,-0.748,-0.748,-0.748,-0.748,-0.7484,-0.7407,-0.7096,-0.6395,-0.5384,-0.445,-0.3597,-0.2898,-0.2275,-0.2041,-0.2353,-0.2275,2.2982,2.2327,2.2703,2.2402,2.1883,2.2176,2.2176,2.1883,2.1807,2.1897,2.1759,2.1756,2.2176,2.2467,2.2241,2.2004,2.1527,2.0827,2.0275,2.0285,1.9816,1.9552,1.9238,1.8751,1.8515,1.9311,1.8987,1.8772,1.8424,1.7865,1.7455,1.731,1.6811,1.6612,1.6403,1.6473,1.6473,1.6412,1.6342,1.6342,1.6342,1.6281,1.6272,1.6211,1.6132,1.6061,1.6,1.5929,1.5805,1.5805,1.5805,1.5805,1.5805,1.5805,1.5735,1.5735,1.5655,1.5434,1.5141,1.4991,1.4705,1.4137,1.3992,1.355,1.2802,1.2388,1.1954,1.1257,1.0487,0.9572,0.8777,0.863,0.8227,0.7606,0.7386,0.6858,0.5866,0.5709,0.5565,0.5032,0.4563,0.4222,0.3825,0.3435,0.2391,0.146,0.0398,-0.0472,-0.1102,-0.1493,-0.1729,-0.2276,-0.3056,-0.4608,-0.5774,-0.624,-0.7246,-0.7403,-0.748,-0.748,-0.748,-0.7407,-0.7407,-0.7407,-0.7253,-0.7019,-0.663,-0.5696,-0.4841,-0.4066,-0.321,-0.2431,-0.2119,-0.2041,-0.1884,2.2022,2.1883,2.1949,2.1883,2.1807,2.1883,2.1883,2.1807,2.1731,2.1797,2.1766,2.1797,2.1482,2.1318,2.1242,2.0847,2.0294,1.9668,1.9292,1.9222,1.8745,1.8505,1.8372,1.8205,1.8189,1.8214,1.8185,1.811,1.7816,1.7243,1.7045,1.6893,1.659,1.6386,1.6351,1.6342,1.636,1.6334,1.6307,1.6281,1.6211,1.614,1.6061,1.5938,1.5938,1.5867,1.5867,1.5805,1.5805,1.5805,1.5805,1.5805,1.5735,1.5735,1.5584,1.5426,1.5284,1.5133,1.4776,1.4489,1.4274,1.4065,1.3805,1.3375,1.2702,1.2227,1.1751,1.1163,1.0275,0.9452,0.8699,0.8468,0.8021,0.7476,0.7128,0.6779,0.5714,0.5323,0.519,0.4651,0.4312,0.4041,0.3635,0.2986,0.2102,0.1157,0.0162,-0.0558,-0.1189,-0.142,-0.1571,-0.2275,-0.3209,-0.5071,-0.6857,-0.7015,-0.748,-0.748,-0.748,-0.7484,-0.7407,-0.7334,-0.7257,-0.7176,-0.7099,-0.6945,-0.6475,-0.5854,-0.5309,-0.4613,-0.36,-0.2588,-0.2431,-0.2431,-0.1806,2.2025,2.1818,2.1807,2.1807,2.1807,2.1807,2.1807,2.1731,2.1482,2.1125,2.0931,2.0807,2.0682,2.0459,2.0382,1.9991,1.9371,1.8745,1.8514,1.8362,1.8121,1.8031,1.8031,1.8031,1.8031,1.8017,1.7961,1.7819,1.7482,1.7125,1.695,1.6846,1.663,1.6534,1.6506,1.6342,1.6315,1.627,1.6201,1.6087,1.6079,1.5938,1.5867,1.5805,1.5805,1.5805,1.5805,1.5805,1.5805,1.5735,1.5576,1.5505,1.5434,1.5292,1.5221,1.515,1.4999,1.4713,1.4418,1.4137,1.4061,1.3948,1.3592,1.3071,1.2542,1.1939,1.1266,1.0512,1.0035,0.9258,0.867,0.8201,0.7545,0.6954,0.6659,0.598,0.5188,0.4924,0.4656,0.43,0.4279,0.3903,0.3271,0.2614,0.1718,0.0843,-0.0082,-0.0649,-0.12,-0.1345,-0.1414,-0.2663,-0.3752,-0.5384,-0.7015,-0.7249,-0.7484,-0.7484,-0.7403,-0.7407,-0.733,-0.7176,-0.7026,-0.6872,-0.6795,-0.6795,-0.6637,-0.617,-0.5625,-0.516,-0.438,-0.3679,-0.3132,-0.2665,-0.2041,2.2221,2.1807,2.1807,2.1731,2.1645,2.1645,2.1696,2.164,2.0964,2.0275,1.9599,1.9818,1.9904,1.9668,1.9511,1.9213,1.8754,1.8201,1.8112,1.8031,1.804,1.8031,1.8031,1.8031,1.8031,1.8023,1.798,1.7886,1.7656,1.7286,1.7055,1.7003,1.6802,1.6741,1.6762,1.6508,1.6439,1.634,1.6208,1.6019,1.5925,1.584,1.5805,1.5805,1.5805,1.5805,1.5805,1.5805,1.5726,1.5576,1.5434,1.5204,1.5054,1.4705,1.4673,1.4928,1.4681,1.4377,1.4164,1.4114,1.3985,1.3798,1.3362,1.2875,1.2013,1.1246,1.0447,0.9557,0.9336,0.9152,0.8595,0.7929,0.7217,0.6511,0.5891,0.5191,0.4656,0.4387,0.4476,0.43,0.421,0.3753,0.3025,0.2303,0.1397,0.0514,-0.0419,-0.0821,-0.1294,-0.1267,-0.1727,-0.313,-0.4375,-0.5777,-0.6788,-0.7173,-0.733,-0.7334,-0.7253,-0.7173,-0.7176,-0.7022,-0.6868,-0.6718,-0.6563,-0.6567,-0.6486,-0.6409,-0.6018,-0.555,-0.5237,-0.4613,-0.3677,-0.2899,-0.2198,2.2221,2.1818,2.1807,2.1492,2.1021,2.1021,2.1336,2.1575,2.0469,1.9353,1.8467,1.9303,1.952,1.9143,1.8505,1.8273,1.8121,1.8112,1.8031,1.8031,1.8031,1.8031,1.8031,1.8031,1.8031,1.8031,1.8031,1.8023,1.7852,1.7552,1.7415,1.7329,1.7064,1.691,1.703,1.6839,1.6816,1.6833,1.679,1.6602,1.6302,1.6019,1.5908,1.5874,1.5882,1.5874,1.582,1.5811,1.5627,1.5275,1.5204,1.4991,1.4705,1.4346,1.4379,1.4448,1.4352,1.4114,1.4007,1.3991,1.3889,1.3606,1.327,1.2501,1.1381,1.0393,0.9757,0.941,0.9262,0.8999,0.8472,0.7848,0.7136,0.6428,0.5636,0.5013,0.4476,0.4297,0.4297,0.403,0.3853,0.3403,0.2771,0.196,0.1063,0.0174,-0.0682,-0.1084,-0.1468,-0.1597,-0.2041,-0.3443,-0.4766,-0.6089,-0.671,-0.7096,-0.7176,-0.7257,-0.7176,-0.7019,-0.6945,-0.6868,-0.6714,-0.6563,-0.649,-0.6412,-0.6335,-0.6335,-0.6257,-0.6022,-0.5631,-0.4846,-0.3988,-0.321,-0.251,2.1686,2.1056,2.08,2.0615,2.0382,2.0294,2.044,2.0517,1.9822,1.8867,1.8197,1.8488,1.8665,1.8434,1.8121,1.8031,1.8031,1.8031,1.8031,1.8031,1.8031,1.8031,1.8031,1.8031,1.8031,1.8031,1.8031,1.8031,1.7963,1.7823,1.7783,1.7715,1.7449,1.7372,1.7156,1.703,1.709,1.7098,1.703,1.6841,1.667,1.6524,1.6348,1.6348,1.634,1.6147,1.5867,1.5833,1.5483,1.5,1.4705,1.4489,1.4183,1.3851,1.3679,1.4149,1.3494,1.3488,1.4077,1.386,1.3625,1.3333,1.27,1.1453,1.0243,0.9667,0.9234,0.8903,0.8915,0.8648,0.8028,0.7316,0.6609,0.5899,0.528,0.4924,0.4476,0.4387,0.4208,0.3941,0.3494,0.2865,0.2149,0.1162,0.0357,-0.0441,-0.0949,-0.1177,-0.1807,-0.2484,-0.3002,-0.3834,-0.5079,-0.6402,-0.671,-0.7019,-0.7019,-0.7022,-0.7022,-0.6865,-0.6791,-0.6637,-0.656,-0.6486,-0.6335,-0.6335,-0.6261,-0.6257,-0.6257,-0.6103,-0.6025,-0.5318,-0.4613,-0.3832,-0.3054,2.0826,2.0237,2.0132,1.9929,1.9678,1.9668,1.9599,1.9362,1.8993,1.8461,1.8098,1.8069,1.8031,1.8031,1.804,1.8031,1.8031,1.8031,1.8031,1.8031,1.8031,1.8031,1.8031,1.8031,1.8031,1.8031,1.8031,1.787,1.7619,1.7594,1.7577,1.7619,1.6934,1.6934,1.7056,1.6779,1.6537,1.6675,1.639,1.6228,1.6239,1.6149,1.6032,1.6109,1.6185,1.6094,1.564,1.5749,1.5364,1.4572,1.4304,1.403,1.3604,1.321,1.3158,1.343,1.3015,1.316,1.3614,1.3641,1.3386,1.2788,1.1896,1.0359,0.962,0.9262,0.9087,0.8652,0.8656,0.8296,0.758,0.6871,0.6254,0.5544,0.4835,0.4567,0.4297,0.4297,0.4208,0.3941,0.3314,0.2237,0.1432,0.0358,-0.0537,-0.1159,-0.1398,-0.1358,-0.1899,-0.273,-0.3403,-0.407,-0.5315,-0.6328,-0.6637,-0.6791,-0.6788,-0.6788,-0.6788,-0.671,-0.656,-0.6486,-0.6409,-0.6335,-0.6257,-0.6261,-0.6261,-0.6261,-0.6261,-0.618,-0.6103,-0.6025,-0.5473,-0.4457,-0.3443,1.9798,1.9773,2.0264,1.9901,1.9091,1.9082,1.8674,1.8345,1.8112,1.8103,1.8014,1.8031,1.8031,1.8031,1.8031,1.8031,1.8031,1.8031,1.8031,1.8031,1.8031,1.8031,1.8031,1.8031,1.7951,1.787,1.7781,1.7367,1.6862,1.6617,1.6698,1.6675,1.6114,1.5764,1.5771,1.5912,1.5761,1.5807,1.5491,1.5275,1.5113,1.4986,1.468,1.4565,1.4769,1.4949,1.4694,1.5181,1.4958,1.3951,1.3838,1.3452,1.2895,1.2615,1.2683,1.2991,1.2625,1.2769,1.3105,1.3054,1.2504,1.164,1.06,0.9557,0.9253,0.8828,0.8652,0.8564,0.8476,0.8116,0.7492,0.6782,0.5988,0.5277,0.4656,0.4478,0.4297,0.4297,0.4208,0.3941,0.3132,0.1879,0.0895,-0.0179,-0.0717,-0.1341,-0.1405,-0.1365,-0.1813,-0.2567,-0.3399,-0.4148,-0.5398,-0.6257,-0.649,-0.6563,-0.6563,-0.6563,-0.6563,-0.649,-0.6335,-0.6335,-0.6335,-0.6335,-0.6261,-0.6261,-0.6261,-0.6261,-0.6261,-0.6261,-0.618,-0.6022,-0.5476,-0.446,-0.3522,1.9949,1.971,1.9575,1.926,1.8757,1.8458,1.8201,1.804,1.8031,1.8031,1.8031,1.8031,1.8031,1.8031,1.8031,1.8031,1.8031,1.8031,1.8031,1.8031,1.8031,1.8031,1.8031,1.787,1.7789,1.7367,1.7196,1.6706,1.5966,1.5538,1.5123,1.4956,1.513,1.547,1.5394,1.5228,1.5311,1.5289,1.5194,1.5114,1.5092,1.4871,1.4681,1.4681,1.4593,1.4479,1.4125,1.425,1.3819,1.3319,1.3055,1.275,1.2394,1.217,1.2374,1.2585,1.2105,1.1985,1.2231,1.2178,1.1588,1.0423,0.9602,0.9174,0.8999,0.8656,0.8656,0.8476,0.8204,0.7669,0.6871,0.6166,0.5458,0.4924,0.4567,0.4387,0.4297,0.4297,0.3941,0.3582,0.2506,0.1343,0.0358,-0.0538,-0.0987,-0.1433,-0.1404,-0.1544,-0.1989,-0.2655,-0.3491,-0.4309,-0.5476,-0.6103,-0.6412,-0.6416,-0.6338,-0.6338,-0.6338,-0.6338,-0.6261,-0.6261,-0.6335,-0.6261,-0.6261,-0.6261,-0.6261,-0.6261,-0.6261,-0.6261,-0.618,-0.5944,-0.524,-0.4382,-0.3759,1.9686,1.9362,1.8978,1.8684,1.8338,1.8068,1.7997,1.8027,1.7976,1.8031,1.8031,1.8031,1.8031,1.8031,1.8031,1.8031,1.8031,1.8031,1.8031,1.8031,1.8031,1.8031,1.7853,1.7415,1.6895,1.6593,1.6288,1.5884,1.497,1.4294,1.4041,1.4041,1.4216,1.4384,1.4468,1.4636,1.4559,1.4552,1.4552,1.4468,1.4287,1.4105,1.3924,1.3911,1.3891,1.3748,1.345,1.3487,1.3257,1.2738,1.2437,1.2331,1.2058,1.1969,1.1986,1.1815,1.147,1.089,1.1154,1.0982,1.0467,0.9602,0.9262,0.8915,0.8744,0.8572,0.8572,0.8568,0.7937,0.7224,0.6428,0.5902,0.5191,0.4656,0.4476,0.4297,0.4297,0.4297,0.3673,0.3135,0.2059,0.1074,0.0179,-0.0717,-0.1076,-0.143,-0.1406,-0.1632,-0.2171,-0.293,-0.3754,-0.4577,-0.5473,-0.5944,-0.6261,-0.6338,-0.6338,-0.6338,-0.6338,-0.6338,-0.6261,-0.6261,-0.6261,-0.6261,-0.6261,-0.6261,-0.6261,-0.6261,-0.6261,-0.6261,-0.618,-0.6022,-0.5709,-0.5004,-0.446,1.8819,1.8772,1.8438,1.8153,1.7885,1.792,1.7963,1.7992,1.784,1.7781,1.7789,1.7789,1.787,1.787,1.7789,1.7781,1.787,1.7951,1.7951,1.787,1.7976,1.7968,1.7415,1.6708,1.6047,1.6347,1.5794,1.4963,1.4048,1.3795,1.3372,1.3039,1.3039,1.3039,1.2875,1.2784,1.2699,1.2534,1.2613,1.2619,1.254,1.2546,1.2454,1.2454,1.2613,1.2656,1.2632,1.279,1.2656,1.2289,1.2204,1.1957,1.1571,1.1423,1.1461,1.1305,1.0875,1.0636,1.0549,0.9777,0.9432,0.9174,0.8915,0.8744,0.8656,0.8572,0.848,0.8296,0.776,0.7051,0.6432,0.5725,0.4924,0.4567,0.4387,0.4297,0.4297,0.4297,0.3762,0.2776,0.188,0.1074,0.009,-0.0718,-0.1166,-0.1426,-0.1406,-0.1806,-0.235,-0.3131,-0.3966,-0.4744,-0.555,-0.5944,-0.6261,-0.6261,-0.6261,-0.6261,-0.6261,-0.6261,-0.6261,-0.6261,-0.6261,-0.6261,-0.6261,-0.6261,-0.6261,-0.6261,-0.6261,-0.6261,-0.6261,-0.618,-0.5944,-0.555,-0.4849,1.8827,1.8703,1.8084,1.7397,1.6794,1.7265,1.7646,1.7771,1.691,1.6421,1.6624,1.6468,1.6624,1.6952,1.7123,1.7115,1.7196,1.787,1.787,1.7204,1.7604,1.7506,1.687,1.5913,1.5162,1.4866,1.4461,1.3964,1.3124,1.3124,1.2869,1.2534,1.2369,1.2369,1.2454,1.2369,1.2209,1.2209,1.2118,1.2118,1.2043,1.1871,1.1785,1.1699,1.186,1.1774,1.1774,1.2118,1.2032,1.1774,1.1774,1.1602,1.1262,1.1262,1.1084,1.0819,1.0376,0.9864,0.9519,0.8915,0.8828,0.8744,0.8744,0.8572,0.8572,0.8572,0.8388,0.7848,0.7228,0.6517,0.5813,0.5102,0.4478,0.4389,0.4297,0.4297,0.4297,0.4208,0.3849,0.2416,0.1342,0.0358,-0.0538,-0.0897,-0.1256,-0.1436,-0.1419,-0.1907,-0.2537,-0.3253,-0.4022,-0.4851,-0.5628,-0.6022,-0.6261,-0.6261,-0.6261,-0.6261,-0.6261,-0.6261,-0.6261,-0.6261,-0.6261,-0.6261,-0.6261,-0.6261,-0.6261,-0.6261,-0.6261,-0.6261,-0.6261,-0.6261,-0.618,-0.5553,-0.4771,1.7505,1.7468,1.6883,1.6202,1.5623,1.6275,1.676,1.6609,1.5448,1.5079,1.5462,1.5304,1.5462,1.5869,1.6034,1.6026,1.6026,1.6535,1.6698,1.6131,1.6826,1.6621,1.5891,1.492,1.4156,1.3685,1.3372,1.2954,1.254,1.2369,1.2289,1.2203,1.2037,1.2037,1.2037,1.2037,1.1957,1.1957,1.1866,1.1871,1.1699,1.1613,1.1527,1.1527,1.1435,1.1354,1.1267,1.1267,1.1267,1.1267,1.1267,1.1176,1.1084,1.0992,1.0819,1.0381,0.9946,0.9437,0.8828,0.8656,0.8656,0.8656,0.8572,0.8572,0.8572,0.8572,0.8208,0.758,0.6694,0.6077,0.5369,0.4656,0.4389,0.4297,0.4297,0.4297,0.4119,0.4119,0.3312,0.1969,0.0806,-0.0179,-0.0986,-0.1166,-0.1346,-0.1436,-0.1433,-0.2099,-0.2815,-0.3448,-0.4225,-0.5225,-0.5724,-0.6103,-0.6261,-0.6261,-0.6261,-0.6261,-0.6261,-0.6261,-0.6261,-0.6261,-0.6261,-0.6261,-0.6261,-0.6261,-0.6261,-0.6261,-0.6261,-0.6261,-0.6261,-0.6261,-0.6261,-0.5709,-0.4927,1.5134,1.4994,1.4827,1.4526,1.4353,1.4904,1.505,1.4629,1.3917,1.3924,1.4622,1.4538,1.4538,1.4615,1.4699,1.4699,1.4866,1.4949,1.4866,1.497,1.546,1.5249,1.4525,1.3199,1.2977,1.3021,1.279,1.2375,1.2037,1.2037,1.2037,1.1952,1.1785,1.1699,1.1785,1.1785,1.1785,1.1699,1.1699,1.1613,1.144,1.1354,1.1354,1.1354,1.1354,1.1267,1.1267,1.1262,1.1262,1.1262,1.1176,1.0992,1.0727,1.0636,1.0381,0.9951,0.9524,0.9087,0.8744,0.8572,0.8572,0.8572,0.8572,0.8572,0.8572,0.8568,0.812,0.7316,0.6428,0.5811,0.5282,0.4746,0.4297,0.4297,0.4297,0.4208,0.3941,0.3492,0.2508,0.1433,0.0448,-0.0538,-0.1076,-0.1436,-0.1436,-0.1436,-0.1613,-0.2487,-0.3122,-0.3465,-0.4486,-0.5836,-0.6192,-0.619,-0.6261,-0.6261,-0.6261,-0.6261,-0.6261,-0.6261,-0.6261,-0.6261,-0.6261,-0.6261,-0.6261,-0.6261,-0.6261,-0.6261,-0.6261,-0.6261,-0.6261,-0.6261,-0.6261,-0.6025,-0.5398,1.4859,1.4801,1.434,1.3818,1.3181,1.276,1.2936,1.3548,1.282,1.265,1.3288,1.2875,1.3209,1.3782,1.3782,1.3782,1.4035,1.428,1.4196,1.4132,1.4075,1.3977,1.3444,1.2571,1.2254,1.2272,1.2203,1.1957,1.1957,1.1871,1.1693,1.1527,1.1527,1.144,1.144,1.144,1.144,1.144,1.144,1.144,1.1354,1.1267,1.1267,1.1262,1.1262,1.1176,1.1176,1.0906,1.0992,1.1176,1.0651,1.0381,1.0636,1.0294,0.9951,0.9519,0.9087,0.874,0.8656,0.8572,0.8572,0.8568,0.8568,0.8572,0.8572,0.8388,0.794,0.6874,0.6074,0.5366,0.4924,0.4567,0.4297,0.4297,0.4208,0.403,0.376,0.2955,0.2059,0.0627,-0.0359,-0.0717,-0.1346,-0.1436,-0.1436,-0.1436,-0.179,-0.2668,-0.3333,-0.3672,-0.4599,-0.6044,-0.6369,-0.6271,-0.6261,-0.6261,-0.6261,-0.6261,-0.6261,-0.6261,-0.6261,-0.6261,-0.6261,-0.6261,-0.6261,-0.6261,-0.6261,-0.6261,-0.6261,-0.6261,-0.6261,-0.6261,-0.6257,-0.5948,-0.5398,1.3806,1.3734,1.3243,1.2704,1.2144,1.1587,1.1866,1.2363,1.1815,1.1832,1.2106,1.1866,1.2032,1.2443,1.2528,1.2528,1.2613,1.2863,1.2857,1.2693,1.2699,1.2705,1.2363,1.2106,1.186,1.178,1.1785,1.1699,1.1699,1.1607,1.1435,1.1354,1.1267,1.1267,1.1354,1.1354,1.1354,1.1354,1.1267,1.1267,1.1267,1.1267,1.1176,1.1084,1.1079,1.0997,1.0824,1.0467,1.0559,1.0738,1.0125,0.9951,1.0033,0.9689,0.9437,0.9003,0.8828,0.8656,0.8572,0.8572,0.8572,0.848,0.8296,0.8116,0.8032,0.7852,0.7054,0.6166,0.5544,0.4921,0.4565,0.4297,0.4297,0.4297,0.4119,0.3851,0.3223,0.2596,0.1254,-0.0179,-0.0897,-0.1166,-0.1436,-0.1436,-0.1436,-0.1436,-0.1787,-0.2573,-0.3233,-0.3838,-0.4873,-0.6283,-0.6341,-0.6261,-0.6261,-0.6261,-0.6261,-0.6261,-0.6261,-0.6261,-0.6261,-0.6261,-0.6261,-0.6261,-0.6261,-0.6261,-0.6261,-0.6261,-0.6261,-0.6261,-0.6257,-0.6257,-0.6257,-0.6103,-0.5318,1.2366,1.2307,1.1865,1.1636,1.1283,1.1267,1.1354,1.1267,1.1348,1.1354,1.1348,1.1354,1.1435,1.1602,1.1602,1.1607,1.1602,1.1768,1.1854,1.1348,1.1607,1.1693,1.178,1.1435,1.1521,1.1527,1.1527,1.144,1.1354,1.1354,1.1354,1.1267,1.1267,1.1267,1.1267,1.1267,1.1267,1.1267,1.1176,1.117,1.1262,1.1176,1.1079,1.0727,1.0549,1.0467,1.0125,1.0043,0.9956,0.9951,0.9777,0.9607,0.9257,0.8999,0.874,0.8656,0.8656,0.8656,0.8568,0.8476,0.8384,0.8204,0.7848,0.7404,0.7139,0.7051,0.6343,0.5725,0.5102,0.4743,0.4387,0.4297,0.4297,0.4297,0.4208,0.3491,0.2596,0.17,0.0269,-0.0897,-0.1166,-0.1436,-0.1436,-0.1436,-0.1525,-0.1436,-0.1691,-0.2471,-0.3311,-0.3919,-0.5032,-0.6312,-0.6408,-0.6315,-0.6261,-0.6261,-0.6261,-0.6261,-0.6261,-0.6261,-0.6261,-0.6261,-0.6261,-0.6261,-0.6261,-0.6261,-0.6261,-0.6261,-0.6261,-0.6261,-0.6257,-0.6257,-0.618,-0.5948,-0.524,1.2032,1.1844,1.1553,1.1397,1.1267,1.1267,1.1267,1.1267,1.1267,1.1267,1.1267,1.1267,1.1267,1.1267,1.1267,1.1267,1.1267,1.1267,1.1267,1.1267,1.1267,1.1354,1.1354,1.1354,1.1354,1.1354,1.1354,1.1267,1.1267,1.1267,1.1267,1.1267,1.1267,1.1267,1.1267,1.1267,1.1262,1.1176,1.0911,1.0997,1.1089,1.0906,1.0636,1.0463,1.0381,1.0125,0.9868,0.9607,0.9781,0.9868,0.9262,0.8915,0.874,0.8652,0.8568,0.8572,0.8572,0.8568,0.8388,0.8113,0.7933,0.7577,0.7132,0.6517,0.6074,0.6074,0.5811,0.528,0.4835,0.4478,0.4297,0.4297,0.4297,0.4297,0.4119,0.3042,0.1969,0.0627,-0.0717,-0.1076,-0.1346,-0.1436,-0.1436,-0.1525,-0.1525,-0.1603,-0.1671,-0.2265,-0.3379,-0.4176,-0.5085,-0.6182,-0.6448,-0.6482,-0.6315,-0.6261,-0.6261,-0.6261,-0.6261,-0.6261,-0.6261,-0.6261,-0.6261,-0.6261,-0.6261,-0.6261,-0.6261,-0.6261,-0.6261,-0.6261,-0.618,-0.618,-0.5709,-0.5398,-0.4768,1.1817,1.1671,1.1445,1.1267,1.1267,1.1267,1.1267,1.1267,1.1267,1.1267,1.1267,1.1267,1.1267,1.1267,1.1267,1.1267,1.1267,1.1267,1.1267,1.1267,1.1267,1.1267,1.1267,1.1267,1.1267,1.1267,1.1267,1.1267,1.1267,1.1267,1.1267,1.1267,1.1267,1.1267,1.1267,1.117,1.0992,1.0992,1.0554,1.0559,1.0743,1.0472,1.0207,1.0038,0.9864,0.9607,0.9349,0.9087,0.9174,0.9262,0.8832,0.8744,0.8656,0.8656,0.8568,0.8572,0.8568,0.8476,0.8116,0.7753,0.7305,0.6956,0.634,0.5725,0.5547,0.5458,0.5099,0.4656,0.4567,0.4297,0.4297,0.4297,0.4297,0.4297,0.3582,0.2597,0.1254,-0.0179,-0.0987,-0.1256,-0.1436,-0.1525,-0.1525,-0.1705,-0.1705,-0.1884,-0.1944,-0.2528,-0.3631,-0.4195,-0.5186,-0.599,-0.6273,-0.6417,-0.6295,-0.6261,-0.6261,-0.6261,-0.6261,-0.6261,-0.6261,-0.6261,-0.6261,-0.6257,-0.6257,-0.6261,-0.6261,-0.618,-0.6257,-0.6261,-0.618,-0.6025,-0.5476,-0.4693,-0.4146,1.1682,1.1628,1.1435,1.1267,1.1267,1.1267,1.1267,1.1267,1.1267,1.1267,1.1267,1.1267,1.1267,1.1267,1.1267,1.1267,1.1267,1.1267,1.1267,1.1267,1.1267,1.1267,1.1267,1.1267,1.1267,1.1267,1.1267,1.1267,1.1267,1.1267,1.1267,1.1267,1.1262,1.1176,1.1084,1.0819,1.0554,1.0467,1.0207,0.9951,0.9956,0.9951,0.9694,0.9432,0.9174,0.8999,0.874,0.8652,0.8656,0.8656,0.8656,0.8656,0.8572,0.8572,0.8572,0.8568,0.8388,0.8116,0.7669,0.7221,0.6779,0.634,0.5636,0.5282,0.5104,0.4837,0.4478,0.43,0.4297,0.4297,0.4297,0.4297,0.4297,0.3941,0.3135,0.215,0.0627,-0.0807,-0.1166,-0.1436,-0.1525,-0.1525,-0.1705,-0.1795,-0.1974,-0.2155,-0.2585,-0.3348,-0.3917,-0.4128,-0.4648,-0.5473,-0.6059,-0.6112,-0.6213,-0.6257,-0.618,-0.6261,-0.6261,-0.6261,-0.6261,-0.6261,-0.6257,-0.6257,-0.6257,-0.6025,-0.5944,-0.5789,-0.5944,-0.5944,-0.5553,-0.5085,-0.4538,-0.3837,-0.3524,1.1585,1.1413,1.1283,1.1267,1.1267,1.1267,1.1267,1.1267,1.1267,1.1267,1.1267,1.1267,1.1267,1.1267,1.1267,1.1267,1.1267,1.1267,1.1267,1.1267,1.1267,1.1267,1.1267,1.1267,1.1267,1.1267,1.1267,1.1267,1.1089,1.1176,1.1267,1.1181,1.0819,1.0727,1.0641,1.0381,1.0125,0.9946,0.9689,0.9432,0.9437,0.9437,0.9437,0.9174,0.8911,0.874,0.8564,0.8568,0.8572,0.8572,0.8572,0.8572,0.8572,0.8568,0.8568,0.83,0.8116,0.7669,0.7224,0.6514,0.5985,0.5633,0.5013,0.4656,0.4567,0.4567,0.4297,0.4297,0.4297,0.4297,0.4297,0.4297,0.4208,0.3492,0.2686,0.1433,-0.0,-0.0807,-0.1346,-0.1436,-0.1525,-0.1705,-0.1795,-0.1974,-0.2155,-0.2327,-0.2394,-0.3157,-0.3653,-0.3963,-0.4174,-0.4931,-0.574,-0.6048,-0.6159,-0.6112,-0.6103,-0.618,-0.6261,-0.6261,-0.6261,-0.6261,-0.6257,-0.6022,-0.5786,-0.5553,-0.5473,-0.5237,-0.5082,-0.5002,-0.4455,-0.3988,-0.3444,-0.3134,-0.2901]},{"header":{"parameterUnit":"m.s-1","parameterCategory":1,"la1":31.0,"la2":29.5877,"lo1":-88.7671,"lo2":-86.6584,"dy":0.0162,"dx":0.0185,"nx":115,"ny":88,"refTime":"2024-09-12T18:00:00:Z","depth":0,"parameterNumber":3,"parameterNumberName":"V-component_of_WINDS"},"data":[0.0,0.0,0.0,0.0,0.0,0.0,0.0,0.0,0.0,0.0,0.0,0.0,0.0,0.0,0.0,0.0,0.0,0.0,0.0,0.0,0.0,0.0,0.0,0.0,0.0,0.0,0.0,0.0,0.0,0.0,0.0,0.0,0.0,0.0,0.0,0.0,0.0,0.0,0.0,0.0,0.0,0.0,0.0,0.0,0.0,0.0,0.0,0.0,0.0,0.0,0.0,0.0,0.0,0.0,0.0,0.0,0.0,0.0,0.0,0.0,0.0,0.0,0.0,0.0,0.0,0.0,0.0,0.0,0.0,0.0,0.0,0.0,0.0,0.0,0.0,0.0,0.0,0.0,0.0,0.0,0.0,0.0,0.0,0.0,0.0,0.0,0.0,0.0,0.0,0.0,0.0,0.0,0.0,0.0,0.0,0.0,0.0,0.0,0.0,0.0,0.0,0.0,0.0,0.0,0.0,0.0,0.0,0.0,0.0,0.0,0.0,0.0,0.0,0.0,0.0,0.0,0.0,0.0,0.0,0.0,0.0,0.0,0.0,0.0,0.0,0.0,0.0,0.0,0.0,0.0,0.0,0.0,0.0,0.0,0.0,0.0,0.0,0.0,0.0,0.0,0.0,0.0,0.0,0.0,0.0,0.0,0.0,0.0,0.0,0.0,0.0,0.0,0.0,0.0,0.0,0.0,0.0,0.0,0.0,0.0,0.0,0.0,0.0,0.0,0.0,0.0,0.0,0.0,0.0,0.0,0.0,0.0,0.0,0.0,0.0,0.0,0.0,0.0,0.0,0.0,0.0,0.0,0.0,0.0,0.0,0.0,0.0,0.0,0.0,0.0,0.0,0.0,0.0,0.0,0.0,0.0,0.0,0.0,0.0,0.0,0.0,0.0,0.0,0.0,0.0,0.0,0.0,0.0,0.0,0.0,0.0,0.0,0.0,0.0,0.0,0.0,0.0,0.0,0.0,0.0,0.0,0.0,0.0,0.0,0.0,0.0,0.0,0.0,0.0,0.0,0.0,0.0,0.0,0.0,0.0,0.0,0.0,0.0,0.0,0.0,0.0,0.0,0.0,0.0,0.0,0.0,0.0,0.0,0.0,0.0,0.0,0.0,0.0,0.0,0.0,0.0,0.0,0.0,0.0,0.0,0.0,0.0,0.0,0.0,0.0,0.0,0.0,0.0,0.0,0.0,0.0,0.0,0.0,0.0,0.0,0.0,0.0,0.0,0.0,0.0,0.0,0.0,0.0,0.0,0.0,0.0,0.0,0.0,0.0,0.0,0.0,0.0,0.0,0.0,0.0,0.0,0.0,0.0,0.0,0.0,0.0,0.0,0.0,0.0,0.0,0.0,0.0,0.0,0.0,0.0,0.0,0.0,0.0,0.0,0.0,0.0,0.0,0.0,0.0,0.0,0.0,0.0,0.0,0.0,0.0,0.0,0.0,0.0,0.0,0.0,0.0,0.0,0.0,0.0,0.0,0.0,0.0,0.0,0.0,0.0,0.0,0.0,0.0,0.0,0.0,0.0,0.0,0.0,0.0,0.0,0.0,0.0,0.0,0.0,0.0,0.0,0.0,0.0,0.0,0.0,0.0,0.0,0.0,0.0,0.0,0.0,0.0,0.0,0.0,0.0,0.0,0.0,0.0,0.0,0.0,0.0,0.0,0.0,0.0,0.0,0.0,0.0,0.0,0.0,0.0,0.0,0.0,0.0,0.0,0.0,0.0,0.0,0.0,0.0,0.0,0.0,0.0,0.0,0.0,0.0,0.0,0.0,0.0,0.0,0.0,0.0,0.0,0.0,0.0,0.0,0.0,0.0,0.0,0.0,0.0,0.0,0.0,0.0,0.0,0.0,0.0,0.0,0.0,0.0,0.0,0.0,0.0,0.0,0.0,0.0,0.0,0.0,0.0,0.0,0.0,0.0,0.0,0.0,0.0,0.0,0.0,0.0,0.0,0.0,0.0,0.0,0.0,0.0,0.0,0.0,0.0,0.0,0.0,0.0,0.0,0.0,0.0,0.0,0.0,0.0,0.0,0.0,0.0,0.0,0.0,0.0,0.0,0.0,0.0,0.0,0.0,0.0,0.0,0.0,0.0,0.0,0.0,0.0,0.0,0.0,0.0,0.0,0.0,0.0,0.0,0.0,0.0,0.0,0.0,0.0,0.0,0.0,0.0,0.0,0.0,0.0,0.0,0.0,0.0,0.0,0.0,0.0,0.0,0.0,0.0,0.0,0.0,0.0,0.0,0.0,0.0,0.0,0.0,0.0,0.0,0.0,0.0,0.0,0.0,0.0,0.0,0.0,0.0,0.0,0.0,0.0,0.0,0.0,0.0,0.0,0.0,0.0,0.0,0.0,0.0,0.0,0.0,0.0,0.0,0.0,0.0,0.0,0.0,0.0,0.0,0.0,0.0,0.0,0.0,0.0,0.0,0.0,0.0,0.0,0.0,0.0,0.0,0.0,0.0,0.0,0.0,0.0,0.0,0.0,0.0,0.0,0.0,0.0,0.0,0.0,0.0,0.0,0.0,0.0,0.0,0.0,0.0,0.0,0.0,0.0,0.0,0.0,0.0,0.0,0.0,0.0,0.0,0.0,0.0,0.0,0.0,0.0,0.0,0.0,0.0,0.0,0.0,0.0,0.0,0.0,0.0,0.0,0.0,0.0,0.0,0.0,0.0,0.0,0.0,0.0,0.0,0.0,0.0,0.0,0.0,0.0,0.0,0.0,0.0,0.0,0.0,0.0,0.0,0.0,0.0,0.0,0.0,0.0,0.0,0.0,0.0,0.0,0.0,0.0,0.0,0.0,0.0,0.0,0.0,0.0,0.0,0.0,0.0,0.0,0.0,0.0,0.0,0.0,0.0,0.0,0.0,0.0,0.0,0.0,0.0,0.0,0.0,0.0,0.0,0.0,0.0,0.0,0.0,0.0,0.0,0.0,0.0,0.0,0.0,0.0,0.0,0.0,0.0,0.0,0.0,0.0,0.0,0.0,0.0,0.0,0.0,0.0,0.0,0.0,0.0,0.0,0.0,0.0,0.0,0.0,0.0,0.0,0.0,0.0,0.0,0.0,0.0,0.0,0.0,0.0,0.0,0.0,0.0,0.0,0.0,0.0,0.0,0.0,0.0,0.0,0.0,0.0,0.0,0.0,0.0,0.0,0.0,0.0,0.0,0.0,0.0,0.0,0.0,0.0,0.0,0.0,0.0,0.0,0.0,0.0,0.0,0.0,0.0,0.0,0.0,0.0,0.0,0.0,0.0,0.0,0.0,0.0,0.0,0.0,0.0,0.0,0.0,0.0,0.0,0.0,0.0,0.0,0.0,0.0,0.0,0.0,0.0,0.0,0.0,0.0,0.0,0.0,0.0,0.0,0.0,0.0,0.0,0.0,0.0,0.0,0.0,0.0,0.0,0.0,0.0,0.0,0.0,0.0,0.0,0.0,0.0,0.0,0.0,0.0,0.0,0.0,0.0,0.0,0.0,0.0,0.0,0.0,0.0,0.0,0.0,0.0,0.0,0.0,0.0,0.0,0.0,0.0,0.0,0.0,0.0,0.0,0.0,0.0,0.0,0.0,0.0,0.0,0.0,0.0,0.0,0.0,0.0,0.0,0.0,0.0,0.0,0.0,0.0,0.0,0.0,0.0,0.0,0.0,0.0,0.0,0.0,0.0,0.0,0.0,0.0,0.0,0.0,0.0,0.0,0.0,0.0,0.0,0.0,0.0,0.0,0.0,0.0,0.0,0.0,0.0,0.0,0.0,0.0,0.0,0.0,0.0,0.0,0.0,0.0,0.0,0.0,0.0,0.0,0.0,0.0,0.0,0.0,0.0,0.0,0.0,0.0,0.0,0.0,0.0,0.0,0.0,0.0,0.0,0.0,0.0,0.0,0.0,0.0,0.0,0.0,0.0,0.0,0.0,0.0,0.0,0.0,0.0,0.0,0.0,0.0,0.0,0.0,0.0,0.0,0.0,0.0,0.0,0.0,0.0,0.0,0.0,0.0,0.0,0.0,0.0,0.0,0.0,0.0,0.0,0.0,0.0,0.0,0.0,0.0,0.0,0.0,0.0,0.0,0.0,0.0,0.0,0.0,0.0,0.0,0.0,0.0,0.0,0.0,0.0,0.0,0.0,0.0,0.0,0.0,0.0,0.0,0.0,0.0,0.0,0.0,0.0,0.0,0.0,0.0,0.0,0.0,0.0,0.0,0.0,0.0,0.0,0.0,0.0,0.0,0.0,0.0,0.0,0.0,0.0,0.0,0.0,-0.4912,0.0,0.0,0.0,0.0,0.0,0.0,0.0,0.0,0.0,0.0,0.0,0.0,0.0,0.0,0.0,0.0,0.0,0.0,0.0,0.0,0.0,0.0,0.0,0.0,0.0,0.0,0.0,0.0,0.0,0.0,0.0,0.0,0.0,0.0,0.0,0.0,0.0,0.0,0.0,0.0,0.0,0.0,0.0,0.0,0.0,0.0,0.0,0.0,0.0,0.0,0.0,0.0,0.0,0.0,0.0,0.0,0.0,0.0,0.0,0.0,0.0,0.0,0.0,0.0,0.0,0.0,0.0,0.0,0.0,0.0,0.0,0.0,0.0,0.0,0.0,0.0,0.0,0.0,0.0,0.0,0.0,0.0,0.0,0.0,0.0,0.0,0.0,0.0,0.0,0.0,0.0,0.0,0.0,0.0,0.0,0.0,0.0,0.0,0.0,0.0,0.0,0.0,0.0,0.0,0.0,0.0,0.0,0.0,0.0,0.0,-0.5088,-0.501,-0.4961,-0.4941,-0.4893,0.0,0.0,0.0,0.0,0.0,0.0,0.0,0.0,0.0,0.0,0.0,0.0,0.0,0.0,0.0,0.0,0.0,0.0,0.0,0.0,0.0,0.0,0.0,0.0,0.0,0.0,0.0,0.0,0.0,0.0,0.0,0.0,0.0,0.0,0.0,0.0,0.0,0.0,0.0,0.0,0.0,0.0,0.0,0.0,0.0,0.0,0.0,0.0,0.0,0.0,0.0,0.0,0.0,0.0,0.0,0.0,0.0,0.0,0.0,0.0,0.0,0.0,0.0,0.0,0.0,0.0,0.0,0.0,0.0,0.0,0.0,0.0,0.0,0.0,0.0,0.0,0.0,0.0,0.0,0.0,0.0,0.0,0.0,0.0,0.0,0.0,0.0,0.0,0.0,0.0,0.0,0.0,0.0,0.0,0.0,0.0,0.0,0.0,0.0,0.0,0.0,0.0,0.0,0.0,0.0,0.0,0.0,0.0,0.0,0.0,0.0,0.0,-0.5202,-0.5152,-0.5131,0.0,0.0,0.0,0.0,0.0,0.0,0.0,0.0,0.0,0.0,0.0,0.0,0.0,0.0,0.0,0.0,0.0,0.0,0.0,0.0,0.0,0.0,0.0,0.0,0.0,0.0,0.0,0.0,0.0,0.0,0.0,0.0,0.0,0.0,0.0,0.0,0.0,0.0,0.0,0.0,0.0,0.0,0.0,0.0,0.0,0.0,0.0,0.0,0.0,0.0,0.0,0.0,0.0,0.0,0.0,0.0,0.0,0.0,0.0,0.0,0.0,0.0,0.0,0.0,0.0,0.0,0.0,0.0,0.0,0.0,0.0,0.0,0.0,0.0,0.0,0.0,0.0,0.0,0.0,0.0,0.0,0.0,0.0,0.0,0.0,0.0,0.0,0.0,0.0,0.0,0.0,0.0,0.0,0.0,0.0,0.0,0.0,0.0,0.0,0.0,0.0,0.0,0.0,0.0,0.0,0.0,0.0,0.0,0.0,0.0,-0.5277,-0.605,-0.5948,0.0,-0.5859,0.0,0.0,0.0,0.0,0.0,0.0,0.0,0.0,0.0,0.0,0.0,0.0,0.0,0.0,0.0,0.0,0.0,0.0,0.0,0.0,0.0,0.0,0.0,0.0,0.0,0.0,0.0,0.0,0.0,0.0,0.0,0.0,0.0,0.0,0.0,0.0,0.0,0.0,0.0,0.0,0.0,0.0,0.0,0.0,0.0,0.0,0.0,0.0,0.0,0.0,0.0,0.0,0.0,0.0,0.0,0.0,0.0,0.0,0.0,0.0,0.0,0.0,0.0,0.0,0.0,0.0,0.0,0.0,0.0,0.0,0.0,0.0,0.0,0.0,0.0,0.0,0.0,0.0,0.0,0.0,0.0,0.0,0.0,0.0,0.0,0.0,0.0,0.0,0.0,0.0,0.0,0.0,0.0,0.0,0.0,0.0,0.0,0.0,0.0,0.0,0.0,0.0,0.0,0.0,0.0,0.0,0.0,0.0,0.0,0.0,-0.5903,-0.6255,-0.6176,-0.6018,0.0,0.0,0.0,0.0,0.0,0.0,0.0,0.0,0.0,0.0,0.0,0.0,0.0,0.0,0.0,0.0,0.0,0.0,0.0,0.0,0.0,0.0,0.0,0.0,0.0,0.0,0.0,0.0,0.0,0.0,0.0,0.0,0.0,0.0,0.0,0.0,0.0,0.0,0.0,0.0,0.0,0.0,0.0,0.0,0.0,0.0,0.0,0.0,0.0,0.0,0.0,0.0,0.0,0.0,0.0,0.0,0.0,0.0,0.0,0.0,0.0,0.0,0.0,0.0,0.0,0.0,0.0,0.0,0.0,0.0,0.0,0.0,0.0,0.0,0.0,0.0,0.0,0.0,0.0,0.0,0.0,0.0,0.0,0.0,0.0,0.0,0.0,0.0,0.0,0.0,0.0,0.0,0.0,0.0,0.0,0.0,0.0,0.0,0.0,0.0,0.0,0.0,0.0,0.0,0.0,0.0,0.0,0.0,0.0,0.0,-0.6065,-0.6369,-0.6527,-0.6494,-0.6237,-0.5709,0.0,0.0,0.0,0.0,0.0,0.0,0.0,0.0,0.0,0.0,0.0,0.0,0.0,0.0,0.0,0.0,0.0,0.0,0.0,0.0,0.0,0.0,0.0,0.0,0.0,0.0,0.0,0.0,0.0,0.0,0.0,0.0,0.0,0.0,0.0,0.0,0.0,0.0,0.0,0.0,0.0,0.0,0.0,0.0,0.0,0.0,0.0,0.0,0.0,0.0,0.0,0.0,0.0,0.0,0.0,0.0,0.0,0.0,0.0,0.0,0.0,0.0,0.0,0.0,0.0,0.0,0.0,0.0,0.0,0.0,0.0,0.0,0.0,0.0,0.0,0.0,0.0,0.0,0.0,0.0,0.0,0.0,0.0,0.0,0.0,0.0,0.0,0.0,0.0,0.0,0.0,0.0,0.0,0.0,0.0,0.0,0.0,0.0,0.0,0.0,0.0,0.0,0.0,0.0,0.0,0.0,0.0,0.0,0.0,-0.6593,-0.6514,-0.7143,-0.7141,-0.6701,0.0,0.0,0.0,0.0,0.0,0.0,0.0,0.0,0.0,0.0,0.0,0.0,0.0,0.0,0.0,0.0,0.0,0.0,0.0,0.0,0.0,0.0,0.0,0.0,0.0,0.0,0.0,0.0,0.0,0.0,0.0,0.0,0.0,0.0,0.0,0.0,0.0,0.0,0.0,0.0,0.0,0.0,0.0,0.0,0.0,0.0,0.0,0.0,0.0,0.0,0.0,0.0,0.0,0.0,0.0,0.0,0.0,0.0,0.0,0.0,0.0,0.0,0.0,0.0,0.0,0.0,0.0,0.0,0.0,0.0,0.0,0.0,0.0,0.0,0.0,0.0,0.0,0.0,0.0,0.0,0.0,0.0,0.0,0.0,0.0,0.0,0.0,0.0,0.0,0.0,0.0,0.0,0.0,0.0,0.0,0.0,0.0,0.0,0.0,0.0,0.0,0.0,0.0,0.0,0.0,0.0,0.0,0.0,0.0,-0.5884,-0.6131,-0.6734,-0.7648,-0.6971,-0.6349,0.0,0.0,0.0,0.0,0.0,0.0,0.0,0.0,0.0,0.0,0.0,0.0,0.0,0.0,0.0,0.0,0.0,0.0,0.0,0.0,0.0,0.0,0.0,0.0,0.0,0.0,0.0,0.0,0.0,0.0,0.0,0.0,0.0,0.0,0.0,0.0,0.0,0.0,0.0,0.0,0.0,0.0,0.0,0.0,0.0,0.0,0.0,0.0,0.0,0.0,0.0,0.0,0.0,0.0,0.0,0.0,0.0,0.0,0.0,0.0,0.0,0.0,0.0,0.0,0.0,0.0,0.0,0.0,0.0,0.0,0.0,0.0,0.0,0.0,0.0,0.0,0.0,0.0,0.0,0.0,0.0,0.0,0.0,0.0,0.0,0.0,0.0,0.0,0.0,0.0,0.0,0.0,0.0,0.0,0.0,0.0,0.0,0.0,0.0,0.0,0.0,0.0,0.0,0.0,0.0,0.0,0.0,0.0,0.0,-0.574,0.0,-0.7102,0.0,-0.6822,-0.6053,0.0,0.0,0.0,0.0,0.0,0.0,0.0,0.0,0.0,0.0,0.0,0.0,0.0,0.0,0.0,0.0,0.0,0.0,0.0,0.0,0.0,0.0,0.0,0.0,0.0,0.0,0.0,0.0,0.0,0.0,0.0,0.0,0.0,0.0,0.0,0.0,0.0,0.0,0.0,0.0,0.0,0.0,0.0,0.0,0.0,0.0,0.0,0.0,0.0,0.0,0.0,0.0,0.0,0.0,0.0,0.0,0.0,0.0,0.0,0.0,0.0,0.0,0.0,0.0,0.0,0.0,0.0,0.0,0.0,0.0,0.0,0.0,0.0,0.0,0.0,0.0,0.0,0.0,0.0,0.0,0.0,0.0,0.0,0.0,0.0,0.0,0.0,0.0,0.0,0.0,0.0,0.0,0.0,0.0,0.0,0.0,0.0,0.0,0.0,0.0,0.0,0.0,0.0,0.0,0.0,0.0,0.0,0.0,-0.5768,-0.7174,-0.7565,-0.7534,-0.7205,-0.6776,-0.5836,0.0,0.0,0.0,0.0,0.0,0.0,0.0,0.0,0.0,0.0,0.0,0.0,0.0,0.0,0.0,0.0,0.0,0.0,0.0,0.0,0.0,0.0,0.0,0.0,0.0,0.0,0.0,0.0,0.0,0.0,0.0,0.0,0.0,0.0,0.0,0.0,0.0,0.0,0.0,0.0,0.0,0.0,0.0,0.0,0.0,0.0,0.0,0.0,0.0,0.0,0.0,0.0,0.0,0.0,0.0,0.0,0.0,0.0,0.0,0.0,0.0,0.0,0.0,0.0,0.0,0.0,0.0,0.0,0.0,0.0,0.0,0.0,0.0,0.0,0.0,0.0,0.0,0.0,0.0,0.0,0.0,0.0,0.0,0.0,0.0,0.0,0.0,0.0,0.0,0.0,0.0,0.0,0.0,0.0,0.0,0.0,0.0,0.0,0.0,0.0,0.0,0.0,0.0,0.0,0.0,0.0,0.0,0.0,0.0,-0.6074,-0.6657,-0.705,-0.7159,-0.6264,-0.5741,0.0,0.0,0.0,0.0,0.0,0.0,0.0,0.0,0.0,0.0,0.0,0.0,0.0,0.0,0.0,0.0,0.0,0.0,0.0,0.0,0.0,0.0,0.0,0.0,0.0,0.0,0.0,0.0,0.0,0.0,0.0,0.0,0.0,0.0,0.0,0.0,0.0,0.0,0.0,0.0,0.0,0.0,0.0,0.0,0.0,0.0,0.0,0.0,0.0,0.0,0.0,0.0,0.0,0.0,0.0,0.0,0.0,0.0,0.0,0.0,0.0,0.0,0.0,0.0,0.0,0.0,0.0,0.0,0.0,0.0,0.0,0.0,0.0,0.0,0.0,0.0,0.0,0.0,0.0,0.0,0.0,0.0,0.0,0.0,0.0,0.0,0.0,0.0,0.0,0.0,0.0,0.0,0.0,0.0,0.0,0.0,0.0,0.0,0.0,0.0,0.0,0.0,0.0,0.0,0.0,0.0,0.0,0.0,0.0,-0.6755,-0.7261,-0.7636,-0.7715,-0.6501,-0.5813,-0.5728,0.0,0.0,0.0,0.0,0.0,0.0,0.0,0.0,0.0,0.0,0.0,0.0,0.0,0.0,0.0,0.0,0.0,0.0,0.0,0.0,0.0,0.0,0.0,0.0,0.0,0.0,0.0,0.0,0.0,0.0,0.0,0.0,0.0,0.0,0.0,0.0,0.0,0.0,0.0,0.0,0.0,0.0,0.0,0.0,0.0,0.0,0.0,0.0,0.0,0.0,0.0,0.0,0.0,0.0,0.0,0.0,0.0,0.0,0.0,0.0,0.0,0.0,0.0,0.0,0.0,0.0,0.0,0.0,0.0,0.0,0.0,0.0,0.0,0.0,0.0,0.0,0.0,0.0,0.0,0.0,0.0,0.0,0.0,0.0,0.0,0.0,0.0,0.0,0.0,0.0,0.0,0.0,0.0,0.0,0.0,0.0,0.0,0.0,0.0,0.0,0.0,0.0,0.0,0.0,0.0,0.0,0.0,0.0,-0.8776,-0.9137,-0.9114,-0.8693,-0.7396,-0.6118,0.0,0.0,0.0,0.0,0.0,0.0,0.0,0.0,0.0,0.0,0.0,0.0,0.0,0.0,0.0,0.0,0.0,0.0,0.0,0.0,0.0,0.0,0.0,0.0,0.0,0.0,0.0,0.0,0.0,0.0,0.0,0.0,0.0,0.0,0.0,0.0,0.0,0.0,0.0,0.0,0.0,0.0,0.0,0.0,0.0,0.0,0.0,0.0,0.0,0.0,0.0,0.0,0.0,0.0,0.0,0.0,0.0,0.0,0.0,0.0,0.0,0.0,0.0,0.0,0.0,0.0,0.0,0.0,0.0,0.0,0.0,0.0,0.0,0.0,0.0,0.0,0.0,0.0,0.0,0.0,0.0,0.0,0.0,0.0,0.0,0.0,0.0,0.0,0.0,0.0,0.0,0.0,0.0,0.0,0.0,0.0,0.0,0.0,0.0,0.0,0.0,0.0,0.0,0.0,0.0,0.0,0.0,0.0,0.0,-0.993,-1.0435,-1.0328,-0.962,-0.8346,-0.7269,0.0,0.0,0.0,0.0,0.0,0.0,0.0,0.0,0.0,0.0,0.0,0.0,0.0,0.0,0.0,0.0,0.0,0.0,0.0,0.0,0.0,0.0,0.0,0.0,0.0,0.0,0.0,0.0,0.0,0.0,0.0,0.0,0.0,0.0,0.0,0.0,0.0,0.0,0.0,0.0,0.0,0.0,0.0,0.0,0.0,0.0,0.0,0.0,0.0,0.0,0.0,0.0,0.0,0.0,0.0,0.0,0.0,0.0,0.0,0.0,0.0,0.0,0.0,0.0,0.0,0.0,0.0,0.0,0.0,0.0,0.0,0.0,0.0,0.0,0.0,0.0,0.0,0.0,0.0,0.0,0.0,0.0,0.0,0.0,0.0,0.0,0.0,0.0,0.0,0.0,0.0,0.0,0.0,0.0,0.0,0.0,0.0,0.0,0.0,0.0,0.0,0.0,0.0,0.0,0.0,0.0,0.0,0.0,-0.954,-1.0795,-1.1519,-1.1564,-1.087,-0.9441,-0.8145,0.0,0.0,0.0,0.0,0.0,0.0,0.0,0.0,0.0,0.0,0.0,0.0,0.0,0.0,0.0,0.0,0.0,0.0,0.0,0.0,0.0,0.0,0.0,0.0,0.0,0.0,0.0,0.0,0.0,0.0,0.0,0.0,0.0,0.0,0.0,0.0,0.0,0.0,0.0,0.0,0.0,0.0,0.0,0.0,0.0,0.0,0.0,0.0,0.0,0.0,0.0,0.0,0.0,0.0,0.0,0.0,0.0,0.0,0.0,0.0,0.0,0.0,0.0,0.0,0.0,0.0,0.0,0.0,0.0,0.0,0.0,0.0,0.0,0.0,0.0,0.0,0.0,0.0,0.0,0.0,0.0,0.0,0.0,0.0,0.0,0.0,0.0,0.0,0.0,0.0,0.0,0.0,0.0,0.0,0.0,0.0,0.0,0.0,0.0,0.0,0.0,0.0,0.0,0.0,0.0,0.0,0.0,0.0,-1.0298,-1.1419,-1.2401,-1.2638,-1.2052,-1.0583,-0.8847,0.0,0.0,0.0,0.0,0.0,0.0,0.0,0.0,0.0,0.0,0.0,0.0,0.0,0.0,0.0,0.0,0.0,0.0,0.0,0.0,0.0,0.0,0.0,0.0,0.0,0.0,0.0,0.0,0.0,0.0,0.0,0.0,0.0,0.0,0.0,0.0,0.0,0.0,0.0,0.0,0.0,0.0,0.0,0.0,0.0,0.0,0.0,0.0,0.0,0.0,0.0,0.0,0.0,0.0,0.0,0.0,0.0,0.0,0.0,0.0,0.0,0.0,0.0,0.0,0.0,0.0,0.0,0.0,0.0,0.0,0.0,0.0,0.0,0.0,0.0,0.0,0.0,0.0,0.0,0.0,0.0,0.0,0.0,0.0,0.0,0.0,0.0,0.0,0.0,0.0,0.0,0.0,0.0,0.0,0.0,0.0,0.0,0.0,0.0,0.0,0.0,0.0,0.0,0.0,0.0,0.0,0.0,0.0,-1.0982,-1.1717,-1.2373,-1.2638,-1.2387,-1.1145,-0.9692,0.0,0.0,0.0,0.0,0.0,0.0,0.0,0.0,0.0,0.0,0.0,0.0,0.0,0.0,0.0,0.0,0.0,0.0,0.0,0.0,0.0,0.0,0.0,0.0,0.0,0.0,0.0,0.0,0.0,0.0,0.0,0.0,0.0,0.0,0.0,0.0,0.0,0.0,0.0,0.0,0.0,0.0,0.0,0.0,0.0,0.0,0.0,0.0,-0.2373,0.0,0.0,0.0,0.0,0.0,0.0,0.0,0.0,0.0,0.0,0.0,0.0,0.0,0.0,0.0,0.0,0.0,0.0,0.0,0.0,0.0,0.0,0.0,0.0,0.0,0.0,0.0,0.0,0.0,0.0,0.0,0.0,0.0,0.0,0.0,0.0,0.0,0.0,0.0,0.0,0.0,0.0,0.0,0.0,0.0,0.0,0.0,0.0,0.0,0.0,0.0,0.0,0.0,0.0,0.0,0.0,0.0,0.0,0.0,-1.1562,-1.2345,-1.2614,-1.2735,-1.2589,-1.1784,-1.0418,0.0,0.0,0.0,0.0,0.0,0.0,0.0,0.0,0.0,0.0,0.0,0.0,0.0,0.0,0.0,0.0,0.0,0.0,0.0,0.0,0.0,0.0,0.0,0.0,0.0,0.0,0.0,0.0,0.0,0.0,0.0,0.0,0.0,0.0,0.0,0.0,0.0,0.0,0.0,0.0,0.0,0.0,0.0,0.0,0.0,0.0,0.0,0.0,0.0,0.0,0.0,0.0,0.0,0.0,0.0,0.0,0.0,0.0,0.0,0.0,0.0,0.0,0.0,0.0,0.0,0.0,0.0,0.0,0.0,0.0,0.0,0.0,0.0,0.0,0.0,0.0,0.0,0.0,0.0,0.0,0.0,0.0,0.0,0.0,0.0,0.0,0.0,0.0,0.0,0.0,0.0,0.0,0.0,0.0,0.0,0.0,0.0,0.0,0.0,0.0,0.0,0.0,0.0,0.0,0.0,0.0,0.0,-1.0809,-1.2048,-1.301,-1.302,-1.292,-1.2725,-1.2347,-1.0963,-0.8599,0.0,0.0,0.0,0.0,0.0,0.0,0.0,0.0,0.0,0.0,0.0,0.0,0.0,0.0,0.0,0.0,0.0,0.0,0.0,0.0,0.0,0.0,0.0,0.0,0.0,0.0,0.0,0.0,0.0,0.0,0.0,0.0,0.0,0.0,0.0,0.0,0.0,0.0,-0.2933,-0.4093,0.0,0.0,0.0,0.0,0.0,0.0,0.0,0.0,-0.4423,0.0,0.0,0.0,0.0,0.0,0.0,0.0,0.0,0.0,0.0,0.0,0.0,0.0,0.0,0.0,0.0,0.0,0.0,0.0,0.0,0.0,0.0,0.0,0.0,0.0,0.0,0.0,0.0,0.0,0.0,0.0,0.0,0.0,0.0,0.0,0.0,0.0,0.0,0.0,0.0,0.0,0.0,0.0,0.0,0.0,0.0,0.0,0.0,0.0,0.0,0.0,0.0,0.0,0.0,0.0,0.0,-1.1146,-1.1461,-1.2208,-1.3455,-1.3484,-1.3296,-1.2871,-1.2414,-1.1147,-0.9039,0.0,0.0,0.0,0.0,0.0,0.0,0.0,0.0,0.0,0.0,0.0,0.0,0.0,0.0,0.0,0.0,0.0,0.0,0.0,0.0,0.0,0.0,0.0,0.0,0.0,0.0,0.0,0.0,0.0,0.0,0.0,0.0,0.0,0.0,0.0,0.0,0.0,0.0,0.0,-0.6522,-0.7176,0.0,0.0,0.0,0.0,0.0,0.0,0.0,0.0,-0.501,0.0,0.0,0.0,0.0,0.0,0.0,0.0,0.0,0.0,0.0,0.0,0.0,0.0,0.0,0.0,0.0,0.0,0.0,0.0,0.0,0.0,0.0,0.0,0.0,0.0,0.0,0.0,0.0,0.0,0.0,0.0,0.0,0.0,0.0,0.0,0.0,0.0,0.0,0.0,0.0,0.0,0.0,0.0,0.0,0.0,0.0,0.0,0.0,0.0,0.0,0.0,0.0,0.0,0.0,0.0,-1.0945,-1.1821,-1.2784,-1.3924,-1.3478,-1.3113,-1.291,-1.2021,-1.0823,0.0,0.0,0.0,0.0,0.0,0.0,0.0,0.0,0.0,0.0,0.0,0.0,0.0,0.0,0.0,0.0,0.0,0.0,0.0,0.0,0.0,0.0,0.0,0.0,0.0,0.0,0.0,0.0,0.0,0.0,0.0,0.0,0.0,0.0,0.0,0.0,0.0,0.0,0.0,0.0,-0.7689,-0.8513,-0.9507,0.0,0.0,0.0,0.0,0.0,0.0,-0.6607,-0.6143,0.0,0.0,0.0,0.0,0.0,0.0,0.0,0.0,0.0,0.0,0.0,0.0,0.0,0.0,0.0,0.0,0.0,0.0,0.0,0.0,0.0,0.0,0.0,0.0,0.0,0.0,0.0,0.0,0.0,0.0,0.0,0.0,0.0,0.0,0.0,0.0,0.0,0.0,0.0,0.0,0.0,0.0,0.0,0.0,0.0,0.0,0.0,0.0,0.0,0.0,0.0,0.0,0.0,0.0,0.0,-1.0478,-1.1855,-1.3129,-1.4182,-1.3478,-1.2968,-1.291,-1.1777,-1.0614,0.0,0.0,0.0,0.0,0.0,0.0,0.0,0.0,0.0,0.0,0.0,0.0,0.0,0.0,0.0,0.0,0.0,0.0,0.0,0.0,0.0,0.0,0.0,0.0,0.0,0.0,0.0,0.0,0.0,0.0,0.0,0.0,0.0,0.0,0.0,0.0,0.0,0.0,0.0,0.0,0.0,-0.9762,-1.1304,-1.0637,0.0,0.0,0.0,0.0,-0.8355,-0.8058,0.0,0.0,0.0,0.0,0.0,0.0,0.0,0.0,0.0,0.0,0.0,0.0,0.0,0.0,0.0,0.0,0.0,0.0,0.0,0.0,0.0,0.0,0.0,0.0,0.0,0.0,0.0,0.0,0.0,0.0,0.0,0.0,0.0,0.0,0.0,0.0,0.0,0.0,0.0,0.0,0.0,0.0,0.0,0.0,0.0,0.0,0.0,0.0,0.0,0.0,0.0,0.0,0.0,0.0,0.0,0.0,-1.0432,-1.1346,-1.2597,-1.4196,-1.38,-1.3334,-1.2929,-1.2363,-1.1091,0.0,0.0,0.0,0.0,0.0,0.0,0.0,0.0,0.0,0.0,0.0,0.0,0.0,0.0,0.0,0.0,0.0,0.0,0.0,0.0,0.0,0.0,0.0,0.0,0.0,0.0,0.0,0.0,0.0,0.0,0.0,0.0,0.0,0.0,0.0,0.0,0.0,0.0,0.0,0.0,0.0,-1.1459,-1.0964,-1.1366,-1.1414,0.0,0.0,-1.0082,-1.1003,-1.0816,0.0,0.0,0.0,0.0,0.0,0.0,0.0,0.0,0.0,0.0,0.0,0.0,0.0,0.0,0.0,0.0,0.0,0.0,0.0,0.0,0.0,0.0,0.0,0.0,0.0,0.0,0.0,0.0,0.0,0.0,0.0,0.0,0.0,0.0,0.0,0.0,0.0,0.0,0.0,0.0,0.0,0.0,0.0,0.0,0.0,0.0,0.0,0.0,0.0,0.0,0.0,0.0,0.0,0.0,0.0,-0.88,-1.0134,-1.1597,-1.2869,-1.3924,-1.3478,-1.3113,-1.2881,-1.1738,-1.0459,0.0,0.0,0.0,0.0,0.0,0.0,0.0,0.0,0.0,0.0,0.0,0.0,0.0,0.0,0.0,0.0,0.0,0.0,0.0,0.0,0.0,0.0,0.0,0.0,0.0,0.0,0.0,0.0,0.0,0.0,0.0,0.0,0.0,0.0,0.0,0.0,0.0,0.0,0.0,0.0,0.0,0.0,-1.3375,-1.3169,0.0,0.0,0.0,-1.1334,-1.1585,0.0,0.0,0.0,0.0,0.0,0.0,0.0,0.0,0.0,0.0,0.0,0.0,0.0,0.0,0.0,0.0,0.0,0.0,0.0,0.0,0.0,0.0,0.0,0.0,0.0,0.0,0.0,0.0,0.0,0.0,0.0,0.0,0.0,0.0,0.0,0.0,0.0,0.0,0.0,0.0,0.0,0.0,0.0,0.0,0.0,0.0,0.0,0.0,0.0,0.0,0.0,0.0,0.0,0.0,0.0,0.0,0.0,-0.9939,-1.1927,-1.3249,-1.3779,-1.321,-1.2929,-1.2861,-1.1396,0.0,0.0,0.0,0.0,0.0,0.0,0.0,0.0,0.0,0.0,0.0,0.0,0.0,0.0,0.0,0.0,0.0,0.0,0.0,0.0,0.0,0.0,0.0,0.0,0.0,0.0,0.0,-0.5078,0.0,0.0,0.0,0.0,0.0,0.0,0.0,0.0,0.0,0.0,0.0,0.0,0.0,0.0,-1.2966,-1.5042,-1.4563,-1.427,0.0,0.0,-1.2782,-1.2677,-1.2687,-1.2047,0.0,0.0,0.0,0.0,0.0,0.0,0.0,0.0,0.0,0.0,0.0,0.0,0.0,0.0,0.0,0.0,0.0,0.0,0.0,0.0,0.0,0.0,0.0,0.0,0.0,0.0,0.0,0.0,0.0,0.0,0.0,0.0,0.0,0.0,0.0,0.0,0.0,0.0,0.0,0.0,0.0,0.0,0.0,0.0,0.0,0.0,0.0,0.0,0.0,0.0,0.0,0.0,0.0,0.0,0.0,-0.9939,-1.2015,-1.3303,-1.3779,-1.3306,-1.3036,-1.291,-1.2008,-1.0734,0.0,0.0,0.0,0.0,0.0,0.0,0.0,0.0,0.0,0.0,0.0,0.0,0.0,0.0,0.0,0.0,0.0,0.0,0.0,0.0,0.0,0.0,0.0,0.0,0.0,0.0,0.0,0.0,0.0,0.0,0.0,0.0,0.0,0.0,0.0,0.0,0.0,0.0,0.0,0.0,0.0,-1.3181,-1.4427,-1.4923,-1.5433,0.0,0.0,-1.4751,-1.5409,-1.5048,-1.4049,-1.2135,0.0,0.0,0.0,0.0,0.0,0.0,0.0,0.0,0.0,0.0,0.0,0.0,0.0,0.0,0.0,0.0,0.0,0.0,0.0,0.0,0.0,0.0,0.0,0.0,0.0,0.0,0.0,0.0,0.0,0.0,0.0,0.0,0.0,0.0,0.0,0.0,0.0,0.0,0.0,0.0,0.0,0.0,0.0,0.0,0.0,0.0,0.0,0.0,0.0,0.0,0.0,0.0,0.0,-0.9473,-0.9991,-1.2093,-1.3273,-1.3389,-1.321,-1.3027,-1.2939,-1.2077,-1.0879,0.0,0.0,0.0,0.0,0.0,0.0,0.0,0.0,0.0,0.0,0.0,0.0,0.0,0.0,0.0,0.0,0.0,0.0,0.0,0.0,0.0,0.0,0.0,0.0,0.0,0.0,0.0,0.0,-0.5749,-0.5752,-0.5856,0.0,0.0,0.0,0.0,0.0,0.0,0.0,0.0,0.0,0.0,-1.5459,-1.6209,-1.6608,0.0,0.0,-1.679,-1.6328,-1.7057,-1.5867,-1.4427,-1.3162,-1.1643,0.0,0.0,0.0,0.0,0.0,0.0,0.0,0.0,0.0,0.0,0.0,0.0,0.0,0.0,0.0,0.0,0.0,0.0,0.0,0.0,0.0,0.0,0.0,0.0,0.0,0.0,0.0,0.0,0.0,0.0,0.0,0.0,0.0,0.0,0.0,0.0,0.0,0.0,0.0,0.0,0.0,0.0,0.0,0.0,0.0,0.0,0.0,0.0,0.0,0.0,0.0,0.0,-0.9808,-1.0287,-1.2453,-1.36,-1.3494,-1.3248,-1.3065,-1.2997,-1.222,-1.1227,0.0,0.0,0.0,0.0,0.0,0.0,0.0,0.0,0.0,0.0,0.0,0.0,0.0,0.0,0.0,0.0,0.0,0.0,0.0,0.0,0.0,0.0,0.0,0.0,0.0,0.0,0.0,0.0,-0.6099,-0.6111,-0.6075,0.0,0.0,0.0,0.0,0.0,0.0,0.0,0.0,0.0,0.0,-1.7014,-1.7755,-1.7851,-1.8011,-1.8458,-1.7746,-1.7328,-1.7826,-1.6634,-1.5371,-1.4576,0.0,0.0,0.0,0.0,0.0,0.0,0.0,0.0,0.0,0.0,0.0,0.0,0.0,0.0,0.0,0.0,0.0,0.0,0.0,0.0,0.0,0.0,0.0,0.0,0.0,0.0,0.0,-0.5418,0.0,0.0,-0.5428,0.0,0.0,0.0,0.0,0.0,0.0,0.0,0.0,0.0,0.0,0.0,0.0,0.0,0.0,0.0,0.0,0.0,0.0,0.0,0.0,0.0,0.0,-1.0352,-1.0895,-1.3098,-1.425,-1.4154,-1.3552,-1.3218,-1.316,-1.2682,-1.179,-1.0582,0.0,0.0,0.0,0.0,0.0,0.0,0.0,0.0,0.0,0.0,0.0,0.0,0.0,0.0,0.0,0.0,0.0,0.0,0.0,0.0,0.0,0.0,0.0,0.0,0.0,0.0,-0.6201,-0.6313,-0.6402,0.0,0.0,0.0,0.0,0.0,0.0,0.0,0.0,0.0,0.0,-1.6848,-1.7576,-1.8565,-1.838,-1.8238,-1.8238,-1.7975,-1.7733,-1.7842,-1.7666,-1.7263,0.0,0.0,0.0,0.0,0.0,0.0,0.0,0.0,0.0,0.0,0.0,0.0,0.0,0.0,0.0,0.0,0.0,0.0,0.0,0.0,0.0,0.0,0.0,0.0,0.0,0.0,0.0,-0.7545,-0.7181,0.0,0.0,0.0,0.0,0.0,0.0,0.0,0.0,0.0,0.0,0.0,-1.0481,-1.1236,0.0,0.0,0.0,0.0,0.0,0.0,0.0,0.0,0.0,0.0,0.0,0.0,-1.0575,-1.1355,-1.333,-1.4301,-1.4165,-1.3647,-1.3266,-1.3218,-1.2795,-1.18,-1.0237,0.0,0.0,0.0,0.0,0.0,0.0,0.0,0.0,0.0,0.0,0.0,0.0,0.0,0.0,0.0,0.0,0.0,0.0,0.0,0.0,0.0,0.0,0.0,0.0,0.0,-0.6343,0.0,0.0,0.0,0.0,0.0,0.0,0.0,0.0,0.0,0.0,0.0,-1.5999,-1.7185,-1.831,-1.9453,-2.0569,-2.0645,-2.0891,0.0,0.0,0.0,0.0,0.0,0.0,0.0,0.0,0.0,0.0,0.0,0.0,0.0,0.0,-1.9634,-1.5057,-1.3163,-1.2276,-1.2151,0.0,0.0,0.0,0.0,0.0,0.0,0.0,0.0,0.0,0.0,0.0,0.0,0.0,0.0,-0.8995,0.0,-0.8258,0.0,0.0,0.0,0.0,0.0,0.0,0.0,0.0,-1.1327,-1.1923,-1.1988,-1.2713,-1.265,0.0,-1.1797,-1.0767,0.0,0.0,0.0,0.0,0.0,0.0,0.0,0.0,-1.1193,-1.2059,-1.3729,-1.4512,-1.4269,-1.3695,-1.3362,-1.3351,-1.2935,-1.2124,-1.0856,-0.9929,-0.8951,0.0,0.0,0.0,0.0,0.0,0.0,0.0,0.0,0.0,0.0,0.0,0.0,0.0,0.0,0.0,0.0,0.0,0.0,0.0,0.0,0.0,0.0,0.0,-0.6869,0.0,0.0,0.0,0.0,0.0,0.0,0.0,0.0,0.0,-1.4409,-1.6493,-1.8421,-1.9465,-2.0416,-2.1385,-2.2316,0.0,0.0,0.0,0.0,0.0,0.0,0.0,-2.1292,-2.1601,-2.0927,-2.0543,-2.1098,-2.2722,-2.3824,-2.3458,0.0,0.0,-1.9543,-1.7697,-1.6895,-1.6866,-1.65,-1.5755,-1.4332,-1.5235,-1.6589,0.0,0.0,0.0,0.0,0.0,0.0,0.0,0.0,-1.0188,-1.0105,0.0,-0.9601,0.0,0.0,0.0,0.0,0.0,-1.0903,0.0,0.0,-1.3081,-1.4014,-1.3972,-1.4455,-1.4457,-1.3983,-1.4315,-1.3564,-1.1893,-1.0001,0.0,0.0,0.0,0.0,0.0,0.0,-1.2161,-1.3032,-1.4393,-1.488,-1.4419,-1.3789,-1.3515,-1.3658,-1.3186,-1.2775,-1.235,-1.102,-1.0214,-1.0102,-0.8063,0.0,0.0,0.0,0.0,0.0,0.0,0.0,0.0,0.0,0.0,0.0,0.0,0.0,0.0,0.0,0.0,0.0,0.0,0.0,0.0,-0.768,0.0,0.0,0.0,0.0,0.0,0.0,0.0,0.0,0.0,0.0,-1.797,-1.9036,-2.062,-2.2667,0.0,0.0,0.0,0.0,-2.3317,-2.3418,-2.3255,-2.3209,-2.3176,-2.3664,-2.4066,-2.4113,0.0,0.0,-2.4113,-2.5094,-2.5733,-2.4832,-2.5782,-2.6355,-2.5567,-2.3615,-2.2308,-2.2279,-2.193,-2.1882,-2.1948,-2.2403,-2.3469,-1.195,0.0,0.0,0.0,0.0,-1.2062,-1.2542,-1.329,-1.3173,-1.2682,-1.1931,-1.1596,0.0,0.0,0.0,0.0,0.0,0.0,-1.2708,-1.3506,-1.4216,-1.4697,-1.4995,-1.5135,-1.5137,-1.4962,-1.5085,-1.4878,-1.4332,-1.3152,-1.1485,-0.9487,0.0,0.0,0.0,0.0,-1.3082,-1.3997,-1.5045,-1.5355,-1.4926,-1.4743,-1.464,-1.4686,-1.4231,-1.3925,-1.3802,-1.2947,-1.2092,-1.1281,-1.048,0.0,0.0,0.0,0.0,0.0,0.0,0.0,0.0,0.0,0.0,0.0,0.0,0.0,0.0,0.0,0.0,0.0,0.0,0.0,-0.8518,-0.8369,-0.8748,0.0,0.0,0.0,0.0,0.0,0.0,0.0,0.0,0.0,-2.1947,-2.2346,-2.2588,0.0,0.0,-2.3867,-2.463,-2.4974,-2.549,-2.6484,-2.662,0.0,-2.5911,-2.5938,-2.6074,-2.6328,-2.7296,-2.7926,-2.7614,-2.8088,-2.8383,-2.803,-2.8292,-2.8474,-2.8215,-2.6604,-2.5267,-2.5049,-2.4888,-2.4874,-2.5112,-2.5073,-2.4936,-1.4697,-1.4126,-1.3115,-1.3104,-1.3771,-1.3665,-1.4101,-1.4878,-1.4643,-1.4256,-1.381,-1.3508,-1.2882,-1.1995,-1.1831,0.0,0.0,0.0,-1.4132,-1.4866,-1.5096,-1.5296,-1.5485,-1.5521,-1.5508,-1.5466,-1.5466,-1.5594,-1.5811,-1.5395,-1.415,-1.2178,0.0,0.0,-1.17,-1.2728,-1.3748,-1.4642,-1.5052,-1.5096,-1.4834,-1.4834,-1.4834,-1.4834,-1.4743,-1.4699,-1.466,-1.4155,-1.3656,-1.3106,-1.2122,-1.0898,0.0,0.0,0.0,0.0,0.0,0.0,0.0,0.0,0.0,0.0,0.0,-0.8017,-0.7218,0.0,0.0,0.0,-0.8941,-0.9961,-1.093,-1.0986,0.0,0.0,0.0,0.0,0.0,0.0,0.0,-2.0017,-2.1311,-2.2785,-2.4729,-2.5379,-2.5497,-2.504,-2.5313,-2.5964,-2.708,0.0,-2.8065,-2.9044,-2.9278,-2.9119,-2.8494,-2.8406,-2.8393,-2.8224,-2.8849,-2.9401,-2.9458,-2.9621,-2.9739,-2.9788,-2.9791,-2.9742,-2.9691,-2.8686,-2.7792,-2.7488,-2.7383,-2.7409,-2.757,-2.7097,-2.6698,-1.7336,-1.7133,-1.5027,-1.4478,-1.4991,-1.5055,-1.513,-1.5248,-1.5216,-1.5236,-1.5282,-1.5147,-1.5007,-1.4864,-1.4864,0.0,-1.4939,-1.5418,-1.5622,-1.5551,-1.5791,-1.5832,-1.576,-1.5899,-1.59,-1.5715,-1.5818,-1.6092,-1.6528,-1.6912,-1.6681,-1.5897,-1.3935,-1.3249,-1.3806,-1.383,-1.4294,-1.522,-1.4823,-1.4558,-1.4558,-1.4512,-1.4512,-1.4605,-1.4971,-1.5198,-1.5232,-1.4853,-1.4815,-1.5106,-1.3168,-1.1903,-1.1593,0.0,0.0,0.0,0.0,0.0,0.0,0.0,0.0,0.0,0.0,0.0,0.0,0.0,0.0,0.0,-1.1471,0.0,-1.4139,-1.475,0.0,0.0,0.0,-1.6465,-1.8221,-1.9463,-2.0875,-2.2589,0.0,0.0,-2.664,-2.8004,-2.8792,-2.8551,-2.8434,-2.89,-3.0285,-3.0402,-3.0692,-3.0932,-3.1225,-3.1182,-3.0607,-3.0733,-3.0678,-3.0056,-2.9859,-2.9988,-3.0142,-3.0106,-3.0213,-3.034,-3.0351,-3.0263,-3.0126,-3.0075,-3.007,-2.9493,-2.9383,-2.9382,-2.9223,-2.8966,-2.868,-1.7533,-1.7575,-1.7012,-1.6828,-1.6888,-1.6958,-1.7111,-1.7266,-1.691,-1.6618,-1.6388,-1.5995,-1.568,-1.5397,-1.5284,-1.5487,-1.5945,-1.6095,-1.6342,-1.6611,-1.6863,-1.6929,-1.6929,-1.7353,-1.73,-1.6886,-1.7701,-1.7748,-1.7107,-1.7617,-1.7543,-1.6908,-1.6815,-1.6178,-1.5115,-1.4983,-1.5374,-1.6306,-1.612,-1.5988,-1.5976,-1.5668,-1.5668,-1.5976,-1.5756,-1.5856,-1.6262,-1.5466,-1.5073,-1.5247,-1.4345,-1.3254,-1.1954,-1.0284,0.0,0.0,0.0,0.0,0.0,0.0,0.0,0.0,0.0,-1.0914,-0.8913,0.0,-1.19,0.0,-1.2945,-1.4292,-1.5507,-1.6072,0.0,0.0,-1.9333,-2.0256,-2.1778,-2.2557,-2.3605,-2.5279,-2.6134,-2.7211,-2.888,-2.9438,-3.0101,-3.1076,-3.0481,-3.0054,-3.0438,-3.0884,-3.1293,-3.1671,-3.1927,-3.1938,-3.1864,-3.2053,-3.2216,-3.2146,-3.1641,-3.1337,-3.1358,-3.082,-3.0414,-3.0404,-3.0434,-3.0405,-3.0342,-3.0359,-3.0317,-3.0183,-3.0079,-2.9924,-2.9662,-2.9621,-2.9544,-1.8255,-1.833,-1.8394,-1.833,-1.8299,-1.7968,-1.793,-1.8003,-1.7786,-1.7658,-1.7567,-1.7367,-1.7129,-1.6881,-1.6871,-1.7067,-1.7383,-1.744,-1.7416,-1.7448,-1.7544,-1.7512,-1.7323,-1.7588,-1.7702,-1.7626,-1.8235,-1.8503,-1.8399,-1.8734,-1.872,-1.8349,-1.847,-1.8033,-1.7053,-1.6671,-1.6681,-1.707,-1.6834,-1.6485,-1.6032,-1.5964,-1.6039,-1.6262,-1.6293,-1.6311,-1.6296,-1.5844,-1.5497,-1.5286,-1.4829,-1.4028,-1.2904,-1.158,-1.057,0.0,0.0,0.0,0.0,0.0,0.0,0.0,0.0,0.0,0.0,0.0,-1.3779,-1.4239,-1.5643,-1.7174,-1.8772,-1.9452,-2.0307,-2.1566,-2.2133,-2.3031,-2.4559,-2.5029,-2.5849,-2.7468,-2.7997,-2.8858,-3.0287,-3.0796,-3.1387,-3.2513,-3.2392,-3.2146,-3.2119,-3.2403,-3.2799,-3.3161,-3.3373,-3.3408,-3.3177,-3.2948,-3.2848,-3.2891,-3.2397,-3.1953,-3.1837,-3.1158,-3.0592,-3.0575,-3.0613,-3.0625,-3.0587,-3.0581,-3.0547,-3.0505,-3.0485,-3.0346,-3.0037,-3.0037,-2.9994,-1.9142,-1.9142,-1.9285,-1.9351,-1.9288,-1.8554,-1.8249,-1.8228,-1.8288,-1.8416,-1.8523,-1.8676,-1.8648,-1.8538,-1.8698,-1.8747,-1.8698,-1.8747,-1.8539,-1.8075,-1.8193,-1.8003,-1.7523,-1.7679,-1.7899,-1.8267,-1.8363,-1.8898,-1.9708,-1.985,-1.9876,-1.9772,-1.949,-1.9185,-1.8993,-1.8497,-1.8003,-1.7555,-1.723,-1.6614,-1.5591,-1.5952,-1.6139,-1.612,-1.6607,-1.6565,-1.5881,-1.607,-1.5931,-1.5375,-1.4967,-1.4524,-1.404,-1.2984,-1.2334,0.0,-1.1689,0.0,0.0,0.0,0.0,0.0,0.0,0.0,0.0,-1.4963,-1.5654,-1.7349,-1.8902,-2.0572,-2.2361,-2.3321,-2.3981,-2.4364,-2.4629,-2.5346,-2.669,-2.7063,-2.7777,-2.9264,-2.978,-3.0374,-3.1359,-3.2014,-3.2607,-3.3312,-3.3739,-3.3987,-3.4218,-3.4195,-3.436,-3.4887,-3.5082,-3.4854,-3.4464,-3.3868,-3.3471,-3.3355,-3.2994,-3.248,-3.2388,-3.1672,-3.106,-3.0997,-3.1014,-3.0958,-3.0821,-3.078,-3.0765,-3.0642,-3.0715,-3.0658,-3.0385,-3.0332,-3.034,-1.9285,-1.9274,-1.9473,-1.9539,-1.9528,-1.9544,-1.9511,-1.9533,-1.9168,-1.8884,-1.8687,-1.8687,-1.8687,-1.8698,-1.895,-1.8939,-1.8687,-1.8999,-1.8884,-1.8594,-1.9126,-1.9153,-1.8757,-1.9637,-1.9687,-1.9081,-1.9811,-1.9862,-1.9198,-2.0067,-2.0283,-1.98,-2.018,-2.0052,-1.951,0.0,0.0,0.0,-1.7548,-1.7131,-1.6485,-1.6534,-1.6577,-1.659,-1.6791,0.0,-1.6149,-1.619,-1.6023,-1.5678,-1.5533,0.0,0.0,0.0,0.0,0.0,0.0,0.0,0.0,0.0,0.0,0.0,-1.5915,-1.5504,-1.5235,-1.7483,-1.944,-2.055,-2.1895,-2.286,-2.3288,-2.4789,-2.5809,-2.5912,-2.7088,-2.8051,-2.8373,-2.8516,-2.9106,-3.0404,-3.068,-3.126,-3.2606,-3.3027,-3.3294,-3.3873,-3.4124,-3.4348,-3.4735,-3.4794,-3.4942,-3.5196,-3.5415,-3.5524,-3.5446,-3.5317,-3.5139,-3.5207,-3.4671,-3.4212,-3.3973,-3.3375,-3.2576,-3.202,-3.187,-3.1618,-3.0962,-3.0801,-3.0841,-3.0768,-3.0777,-3.0724,-3.0462,-3.0513,-3.0554,-1.9684,-1.9473,-1.9681,-1.9747,0.0,-1.9944,-2.0118,-2.0238,-1.9792,-1.9648,-1.9647,-1.9834,-1.9958,-1.9958,-2.0093,-2.0093,-1.9958,-2.0389,-2.03,-1.9927,-2.0493,-2.0535,-2.0081,-2.0623,-2.0638,-2.016,-2.0643,-2.0617,-2.0029,-2.0586,-2.0649,-2.0347,-2.0662,-2.0562,-2.0169,-2.0599,-2.0087,-1.8753,-1.8409,-1.7952,-1.7424,-1.7102,-1.6918,-1.6833,-1.6947,0.0,0.0,0.0,0.0,0.0,0.0,0.0,0.0,0.0,0.0,-1.4913,-1.501,-1.5249,-1.5651,-1.6377,-1.7349,-1.8583,-1.9099,-1.8906,-1.7809,-2.0005,-2.1862,-2.2845,-2.3922,-2.4756,-2.5343,-2.6584,-2.7431,-2.7501,-2.83,-2.9003,-2.9581,-2.9828,-3.0404,-3.1496,-3.1921,-3.2384,-3.3189,-3.3465,-3.3716,-3.413,-3.4321,-3.4553,-3.4902,-3.4994,-3.513,-3.5434,-3.562,-3.5748,-3.5795,-3.5866,-3.5892,-3.5783,-3.5535,-3.5136,-3.4668,-3.4195,-3.3587,-3.2909,-3.2751,-3.2478,-3.166,-3.1445,-3.1308,-3.0915,-3.08,-3.0774,-3.0623,-3.0677,-3.0724,-2.0211,-1.9916,-2.004,-2.0129,-2.0205,-2.0183,-2.039,-2.0662,0.0,0.0,0.0,-2.1031,-2.1233,-2.1221,-2.1221,-2.1285,-2.1348,-2.1765,-2.175,-2.1416,-2.1966,-2.1932,-2.1419,-2.1511,-2.147,-2.1276,-2.1263,-2.1146,-2.101,-2.0997,-2.0961,-2.0938,-2.0951,-2.0888,-2.0762,-2.0875,-2.065,-1.9991,-1.9402,-1.8799,-1.8157,-1.766,-1.7316,-1.7099,-1.7199,-1.6978,-1.6415,-1.656,-1.6466,-1.6008,-1.615,-1.6224,-1.6304,-1.6423,-1.6742,-1.7212,-1.7706,-1.8079,-1.8332,-1.9301,-2.008,-2.0401,-2.1833,-2.2196,-2.1004,-2.2272,-2.3574,-2.4737,-2.5501,-2.6323,-2.7396,-2.8239,-2.8786,-2.89,-2.9168,-2.9731,-3.0643,-3.0994,-3.148,-3.2479,-3.2939,-3.3262,-3.3447,-3.3716,-3.3979,-3.4293,-3.4526,-3.4775,-3.5082,-3.5192,-3.5322,-3.5648,-3.5795,-3.586,-3.5896,-3.5916,-3.5908,-3.589,-3.5898,-3.5638,-3.5027,-3.4703,-3.4362,-3.3757,-3.3545,-3.3083,-3.248,-3.2151,-3.1862,-3.117,-3.1028,-3.0968,-3.0838,-3.0792,-3.079,-2.1161,-2.1075,-2.0858,-2.0896,-2.1141,-2.0707,-2.0775,-2.1117,-2.1042,-2.1094,-2.1094,-2.1158,-2.1233,-2.1221,-2.1526,-2.1714,-2.1815,-2.2187,-2.2323,-2.2433,-2.3046,-2.3097,-2.2686,-2.3102,-2.2869,-2.2016,-2.186,-2.1504,-2.105,-2.0997,-2.0997,-2.0997,-2.0997,-2.0947,-2.0947,-2.0997,-2.0957,-2.0815,-2.0162,-1.9344,-1.8288,-1.8183,-1.7906,-1.7389,-1.7419,-1.7223,-1.6691,-1.7103,-1.713,-1.6725,-1.7493,-1.7779,-1.7441,-1.8175,-1.8512,-1.8201,-1.8819,-1.9324,-1.9498,-2.03,-2.1216,-2.209,-2.3417,-2.3935,-2.3406,-2.3829,-2.4834,-2.6412,-2.6862,-2.7412,-2.8272,-2.912,-2.9654,-2.9787,-3.0657,-3.1382,-3.1543,-3.1917,-3.236,-3.2921,-3.3142,-3.3458,-3.3928,-3.408,-3.4279,-3.4691,-3.4832,-3.4996,-3.5355,-3.564,-3.5787,-3.5878,-3.5938,-3.5974,-3.5968,-3.5993,-3.5957,-3.5903,-3.594,-3.589,-3.5658,-3.5596,-3.5342,-3.4663,-3.4023,-3.3503,-3.323,-3.2572,-3.2226,-3.196,-3.1877,-3.1645,-3.1029,-3.0853,-3.0799,-2.2033,-2.1779,-2.1868,-2.197,-2.2126,-2.1999,-2.2127,-2.227,-2.242,-2.2127,-2.1526,-2.1913,-2.2099,-2.2149,-2.2567,-2.2798,-2.2847,-2.3267,-2.3446,-2.3577,-2.4119,-2.4208,-2.4093,-2.4286,-2.3998,-2.3217,-2.3137,-2.2613,-2.178,-2.1713,-2.1502,-2.1109,-2.1046,-2.0997,-2.0997,-2.1082,-2.1095,-2.1068,-2.046,-1.9867,-1.9336,-1.9017,-1.8521,-1.7938,-1.7996,-1.7771,-1.7277,-1.7719,-1.7784,-1.7388,-1.825,-1.8722,-1.8708,-1.8993,-1.925,-1.9443,-2.0019,-2.057,-2.1022,-2.2015,-2.2767,-2.3262,-2.4383,-2.5206,-2.5381,-2.5724,-2.6332,-2.7135,-2.7921,-2.8611,-2.9076,-3.0056,-3.0692,-3.0806,-3.1543,-3.2092,-3.2299,-3.2535,-3.2912,-3.3309,-3.3578,-3.3805,-3.4173,-3.4279,-3.4483,-3.4832,-3.5078,-3.538,-3.5621,-3.582,-3.5938,-3.5919,-3.5951,-3.5999,-3.6013,-3.6016,-3.5953,-3.5907,-3.5912,-3.5938,-3.5899,-3.5929,-3.5758,-3.5451,-3.4991,-3.4644,-3.4257,-3.3815,-3.3373,-3.2807,-3.236,-3.1934,-3.1563,-3.1172,-3.0811,-2.3362,-2.3006,-2.3187,-2.3206,-2.3242,-2.3575,-2.3691,-2.3715,-2.3777,-2.3248,-2.2492,-2.2885,-2.3078,-2.3078,-2.3471,-2.3636,-2.3813,-2.4118,-2.4337,-2.4465,-2.4835,-2.5005,-2.5005,-2.5005,-2.4693,-2.4177,-2.4123,-2.3567,-2.2603,-2.2373,-2.1957,-2.1282,-2.1144,-2.1095,-2.1082,-2.118,-2.1326,-2.1382,-2.0928,-2.0523,-2.0248,-1.9898,-1.9418,-1.8779,-1.8913,-1.8808,-1.8344,-1.8696,-1.8852,-1.8658,-1.9306,-1.9832,-2.0086,-2.0042,-2.0244,-2.0911,-2.1271,-2.18,-2.257,-2.3365,-2.3986,-2.4252,-2.5217,-2.6091,-2.6704,-2.7356,-2.7694,-2.786,-2.8704,-2.9447,-3.0007,-3.0811,-3.149,-3.175,-3.2162,-3.2519,-3.2813,-3.3019,-3.3268,-3.3587,-3.3921,-3.4148,-3.4274,-3.4461,-3.4695,-3.4994,-3.5348,-3.5639,-3.5781,-3.5919,-3.5958,-3.5955,-3.5965,-3.5989,-3.5976,-3.5954,-3.594,-3.5896,-3.588,-3.5852,-3.5827,-3.5858,-3.5844,-3.5747,-3.5656,-3.5392,-3.5006,-3.4745,-3.4378,-3.3776,-3.3256,-3.2653,-3.2109,-3.1368,-3.0825,-2.5493,-2.5395,-2.4988,-2.4801,-2.4716,-2.5073,-2.5204,-2.5153,-2.4625,-2.4394,-2.4221,-2.3748,-2.359,-2.3518,-2.3649,-2.3872,-2.4234,-2.4292,-2.4523,-2.4892,-2.4948,-2.5005,-2.5005,-2.5005,-2.4693,-2.4191,-2.415,-2.3825,-2.3094,-2.2563,-2.1993,-2.1442,-2.1375,-2.1361,-2.1375,-2.1361,-2.1616,-2.2091,-2.2021,-2.1495,-2.0568,-2.0886,-2.0626,-1.9632,-2.0429,-2.0638,-2.0105,-2.0581,-2.0814,-2.084,-2.1292,-2.1611,-2.1704,-2.2048,-2.2341,-2.253,-2.2635,-2.2954,-2.3674,-2.3822,-2.43,-2.5112,-2.6041,-2.6688,-2.7054,-2.8174,-2.9019,-2.9168,-2.9152,-2.9811,-3.1006,-3.1363,-3.1696,-3.2162,-3.2535,-3.2813,-3.2988,-3.3309,-3.3587,-3.3671,-3.3998,-3.4274,-3.4464,-3.4714,-3.4978,-3.5278,-3.5488,-3.5655,-3.5781,-3.5927,-3.6001,-3.5989,-3.6013,-3.5976,-3.5923,-3.591,-3.5896,-3.5885,-3.5801,-3.5745,-3.5718,-3.5729,-3.5718,-3.5709,-3.5314,-3.5178,-3.5427,-3.526,-3.4761,-3.4632,-3.4264,-3.3861,-3.2497,-3.1407,-3.0882,-2.6171,-2.6146,-2.6219,-2.6206,-2.6149,-2.6232,-2.6413,-2.6538,-2.6249,-2.6072,-2.5826,-2.5605,-2.5074,-2.4279,-2.4593,-2.4935,-2.5203,-2.5061,-2.5075,-2.5244,-2.5061,-2.5005,-2.5005,-2.5005,-2.4856,-2.4666,-2.4639,-2.434,-2.3622,-2.2766,-2.2183,-2.1975,-2.189,-2.1855,-2.1902,-2.217,-2.2374,-2.2632,-2.2618,-2.2412,-2.2002,-2.2141,-2.1855,-2.1167,-2.1441,-2.1365,-2.0922,-2.1248,-2.1575,-2.1839,-2.2117,-2.247,-2.2883,-2.2786,-2.2922,-2.3406,-2.3869,-2.4239,-2.4523,-2.4655,-2.5089,-2.587,-2.6529,-2.7251,-2.8165,-2.8987,-2.9688,-3.0212,-3.0285,-3.0695,-3.1551,-3.1842,-3.2127,-3.25,-3.2908,-3.3208,-3.3286,-3.3473,-3.3671,-3.3895,-3.4203,-3.4461,-3.4714,-3.5013,-3.5249,-3.5481,-3.564,-3.5735,-3.586,-3.5929,-3.5992,-3.5996,-3.5972,-3.5942,-3.5907,-3.5884,-3.5875,-3.5795,-3.5745,-3.5693,-3.5641,-3.565,-3.567,-3.5704,-3.5434,-3.5366,-3.5777,-3.5714,-3.5412,-3.5287,-3.4345,-3.3532,-3.2324,-3.1407,-3.0899,-2.6976,-2.7056,-2.7284,-2.751,-2.7591,-2.7522,-2.7672,-2.7926,-2.7754,-2.7547,-2.7314,-2.7173,-2.6468,-2.5533,-2.555,-2.5757,-2.5839,-2.5702,-2.5605,-2.5592,-2.5383,-2.5257,-2.523,-2.5258,-2.5258,-2.5216,-2.5216,-2.4915,-2.4353,-2.3723,-2.3192,-2.297,-2.2766,-2.2658,-2.2708,-2.29,-2.3024,-2.3157,-2.3157,-2.3231,-2.3363,-2.3377,-2.301,-2.2338,-2.2495,-2.2359,-2.1889,-2.2229,-2.2626,-2.2977,-2.3088,-2.3349,-2.3866,-2.3569,-2.3664,-2.416,-2.4665,-2.5005,-2.5084,-2.5392,-2.5885,-2.6502,-2.7173,-2.804,-2.9095,-2.9772,-3.0434,-3.1104,-3.1432,-3.1696,-3.1985,-3.2283,-3.2601,-3.2854,-3.322,-3.3422,-3.3473,-3.3615,-3.3834,-3.408,-3.4435,-3.4714,-3.4999,-3.5239,-3.5425,-3.5621,-3.5718,-3.5816,-3.5919,-3.5968,-3.5976,-3.597,-3.5913,-3.59,-3.5892,-3.5851,-3.5794,-3.5714,-3.5668,-3.5581,-3.5535,-3.5543,-3.5562,-3.556,-3.5621,-3.5713,-3.5807,-3.5839,-3.5866,-3.5674,-3.4811,-3.3532,-3.2753,-3.1777,-3.1153,-2.8522,-2.8457,-2.8522,-2.8638,-2.9022,-2.898,-2.9162,-2.9366,-2.8867,-2.8587,-2.8498,-2.806,-2.7527,-2.7044,-2.6299,-2.5907,-2.5948,-2.5893,-2.5893,-2.5907,-2.5813,-2.5868,-2.5839,-2.5849,-2.5863,-2.5825,-2.5839,-2.553,-2.5075,-2.5473,-2.5392,-2.4586,-2.4109,-2.3883,-2.3919,-2.3421,-2.3275,-2.3814,-2.3839,-2.4063,-2.441,-2.4451,-2.3964,-2.3113,-2.3706,-2.3914,-2.3731,-2.407,-2.4374,-2.4496,-2.4514,-2.4697,-2.4728,-2.4784,-2.4847,-2.4926,-2.4974,-2.51,-2.5406,-2.5981,-2.6613,-2.7153,-2.8254,-2.9244,-2.9895,-3.0577,-3.1202,-3.1785,-3.2197,-3.2488,-3.2403,-3.257,-3.288,-3.3238,-3.3345,-3.3433,-3.3522,-3.3815,-3.4023,-3.4269,-3.4609,-3.4963,-3.53,-3.5391,-3.5527,-3.5704,-3.5788,-3.5851,-3.5947,-3.6013,-3.5975,-3.5921,-3.59,-3.5892,-3.5899,-3.582,-3.5733,-3.565,-3.5527,-3.5412,-3.5418,-3.5405,-3.5418,-3.5457,-3.5523,-3.5621,-3.5741,-3.5827,-3.5864,-3.5661,-3.5162,-3.4195,-3.3202,-3.2558,-3.1797,-2.8716,-2.8908,-2.9162,-2.9289,-2.9415,-2.9415,-2.9624,-2.9924,-2.9681,-2.9472,-2.9259,-2.9056,-2.8412,-2.7559,-2.7204,-2.6834,-2.6476,-2.6258,-2.6136,-2.615,-2.5976,-2.5936,-2.5893,-2.592,-2.6068,-2.6244,-2.6297,-2.6342,-2.6329,-2.6241,-2.5967,-2.5722,-2.5416,-2.5288,-2.5244,-2.4937,-2.4848,-2.496,-2.4616,-2.4467,-2.4605,-2.4589,-2.4369,-2.4063,-2.4287,-2.4426,-2.4302,-2.4467,-2.4605,-2.4742,-2.4782,-2.4822,-2.4942,-2.4982,-2.506,-2.5178,-2.5339,-2.5745,-2.6395,-2.6974,-2.7794,-2.89,-2.9551,-3.0184,-3.0836,-3.1333,-3.1711,-3.1966,-3.2454,-3.277,-3.277,-3.2848,-3.3086,-3.3334,-3.3393,-3.3556,-3.3899,-3.4002,-3.4154,-3.4567,-3.4926,-3.5174,-3.536,-3.5476,-3.5611,-3.5764,-3.5856,-3.594,-3.5974,-3.5956,-3.5921,-3.5907,-3.5884,-3.5885,-3.5894,-3.5794,-3.5676,-3.5549,-3.5425,-3.5364,-3.5326,-3.5296,-3.5296,-3.5378,-3.5457,-3.5523,-3.565,-3.584,-3.5878,-3.5738,-3.5225,-3.4619,-3.3573,-3.291,-3.1973,-2.9035,-2.9289,-2.9477,-2.9665,-2.9741,-2.9741,-2.9984,-3.0268,-3.0276,-3.0136,-2.9952,-2.9942,-2.9334,-2.8463,-2.8347,-2.7868,-2.7113,-2.664,-2.6472,-2.6457,-2.6418,-2.6379,-2.6365,-2.651,-2.6692,-2.6953,-2.7108,-2.7246,-2.7354,-2.7199,-2.7037,-2.6943,-2.6671,-2.6565,-2.6563,-2.6287,-2.6088,-2.5994,-2.5634,-2.5321,-2.5102,-2.5039,-2.4945,-2.4757,-2.471,-2.4726,-2.4686,-2.4686,-2.4726,-2.4862,-2.4862,-2.4902,-2.4982,-2.5005,-2.5107,-2.541,-2.5816,-2.6409,-2.7274,-2.807,-2.903,-3.0088,-3.0575,-3.1008,-3.1565,-3.1802,-3.193,-3.2179,-3.2555,-3.2898,-3.2961,-3.3104,-3.3256,-3.3345,-3.3393,-3.365,-3.4194,-3.4166,-3.4413,-3.4851,-3.5089,-3.5254,-3.5397,-3.5527,-3.5659,-3.5813,-3.5929,-3.6014,-3.5996,-3.5947,-3.5896,-3.5888,-3.589,-3.5883,-3.5827,-3.5721,-3.5669,-3.5546,-3.5399,-3.5326,-3.5254,-3.5207,-3.5223,-3.5311,-3.5378,-3.5463,-3.56,-3.5791,-3.582,-3.5768,-3.5568,-3.5069,-3.4108,-3.3202,-3.2363,-2.9602,-2.9602,-2.9602,-2.9865,-3.0111,-3.0111,-3.028,-3.0536,-3.0582,-3.0553,-3.0495,-3.0524,-3.0133,-2.961,-2.9435,-2.8897,-2.7817,-2.7205,-2.6928,-2.6832,-2.7181,-2.7335,-2.7321,-2.758,-2.77,-2.7849,-2.8255,-2.8271,-2.7997,-2.8386,-2.856,-2.8341,-2.7891,-2.7703,-2.7884,-2.7256,-2.6895,-2.6907,-2.6855,-2.6598,-2.6103,-2.5967,-2.5715,-2.5203,-2.5092,-2.4981,-2.4869,-2.4838,-2.4862,-2.4966,-2.5021,-2.5005,-2.5045,-2.5147,-2.531,-2.5859,-2.6482,-2.7164,-2.794,-2.9236,-3.008,-3.0634,-3.1131,-3.1605,-3.1841,-3.1966,-3.2144,-3.2454,-3.2737,-3.2961,-3.3104,-3.3286,-3.3422,-3.3393,-3.3452,-3.3698,-3.419,-3.4325,-3.4532,-3.5053,-3.5209,-3.53,-3.5457,-3.556,-3.5685,-3.5858,-3.5955,-3.5996,-3.5993,-3.5957,-3.5888,-3.5885,-3.5894,-3.5878,-3.5764,-3.565,-3.563,-3.5585,-3.5432,-3.5326,-3.5254,-3.519,-3.519,-3.5251,-3.5311,-3.5391,-3.5457,-3.564,-3.5749,-3.5702,-3.5574,-3.5398,-3.4562,-3.3659,-3.2968,-2.9927,-2.9988,-3.0219,-3.0326,-3.0462,-3.0462,-3.0522,-3.0568,-3.0642,-3.0642,-3.0642,-3.0642,-3.0382,-3.0174,-3.0098,-2.9529,-2.8644,-2.8359,-2.7921,-2.7409,-2.761,-2.7745,-2.7795,-2.7864,-2.8061,-2.8319,-2.8716,-2.8873,-2.8764,-2.892,-2.8982,-2.8873,-2.8716,-2.8668,-2.8681,-2.8081,-2.7718,-2.7671,-2.732,-2.6972,-2.6783,-2.6767,-2.6641,-2.6419,-2.5961,-2.5677,-2.562,-2.5194,-2.4982,-2.5005,-2.5005,-2.5107,-2.5388,-2.5928,-2.6477,-2.7095,-2.8041,-2.8968,-2.9782,-3.0456,-3.115,-3.162,-3.1968,-3.2126,-3.2232,-3.2283,-3.242,-3.2639,-3.2866,-3.3055,-3.3147,-3.3433,-3.3623,-3.367,-3.368,-3.3983,-3.4596,-3.4865,-3.4982,-3.5157,-3.5289,-3.5388,-3.5483,-3.562,-3.5779,-3.5858,-3.5921,-3.5937,-3.5971,-3.5946,-3.589,-3.5889,-3.5889,-3.5883,-3.582,-3.5696,-3.564,-3.5566,-3.5445,-3.5326,-3.5219,-3.519,-3.519,-3.5223,-3.5285,-3.534,-3.5397,-3.5507,-3.5641,-3.5704,-3.5636,-3.5275,-3.4774,-3.4172,-3.35,-3.028,-3.0294,-3.0522,-3.0642,-3.0642,-3.0642,-3.0642,-3.0642,-3.0642,-3.0689,-3.0867,-3.0896,-3.0881,-3.0854,-3.0908,-3.0488,-2.9818,-2.9913,-2.9322,-2.8299,-2.8103,-2.8125,-2.8189,-2.8271,-2.8448,-2.8716,-2.8982,-2.9091,-2.9091,-2.9091,-2.9091,-2.9091,-2.9091,-2.9198,-2.9319,-2.8981,-2.8798,-2.8909,-2.8613,-2.8217,-2.7991,-2.7927,-2.7814,-2.7566,-2.7114,-2.6889,-2.6856,-2.6477,-2.5869,-2.5234,-2.5107,-2.5532,-2.6308,-2.6852,-2.7408,-2.8317,-2.923,-3.0145,-3.0889,-3.1339,-3.1826,-3.23,-3.2406,-3.2422,-3.2473,-3.2573,-3.2621,-3.2802,-3.2961,-3.3147,-3.3309,-3.3512,-3.3771,-3.3976,-3.3954,-3.4264,-3.484,-3.5399,-3.5703,-3.5863,-3.6136,-3.6194,-3.6103,-3.6105,-3.6071,-3.5988,-3.5899,-3.5898,-3.5951,-3.5919,-3.5909,-3.5889,-3.5889,-3.5883,-3.5883,-3.5791,-3.566,-3.5554,-3.5432,-3.5326,-3.5223,-3.519,-3.519,-3.5239,-3.53,-3.5383,-3.5451,-3.5574,-3.5679,-3.5678,-3.5685,-3.5473,-3.512,-3.473,-3.4144,-3.0582,-3.0642,-3.0642,-3.0642,-3.0642,-3.0642,-3.0657,-3.0671,-3.0702,-3.0925,-3.1255,-3.1304,-3.1537,-3.1849,-3.1814,-3.1515,-3.1213,-3.1334,-3.0825,-2.9785,-2.9149,-2.879,-2.8604,-2.8842,-2.8982,-2.9045,-2.9075,-2.9091,-2.9091,-2.9091,-2.9091,-2.9091,-2.9167,-2.935,-2.9645,-2.9777,-2.9929,-3.0178,-3.0278,-2.9914,-2.9426,-2.9393,-2.9168,-2.8572,-2.8423,-2.834,-2.8285,-2.8103,-2.724,-2.5598,-2.575,-2.6537,-2.7574,-2.7703,-2.8296,-2.9437,-3.0195,-3.0768,-3.1322,-3.1897,-3.2318,-3.2388,-3.244,-3.2457,-3.2573,-3.2654,-3.2816,-3.3068,-3.3178,-3.3327,-3.3615,-3.378,-3.3947,-3.425,-3.4298,-3.448,-3.4849,-3.5796,-3.6313,-3.665,-3.7286,-3.7555,-3.6798,-3.6765,-3.642,-3.6093,-3.5893,-3.5897,-3.5916,-3.5896,-3.5885,-3.5889,-3.5889,-3.5852,-3.584,-3.5752,-3.562,-3.5488,-3.5391,-3.5296,-3.5223,-3.519,-3.519,-3.5239,-3.53,-3.5397,-3.5483,-3.5566,-3.565,-3.5687,-3.5704,-3.5713,-3.55,-3.5106,-3.47,-3.0642,-3.0642,-3.0642,-3.0642,-3.0642,-3.0642,-3.0804,-3.1115,-3.1117,-3.1392,-3.1675,-3.1736,-3.1992,-3.2367,-3.2422,-3.223,-3.206,-3.2091,-3.1823,-3.1116,-3.0667,-2.9815,-2.9124,-2.9045,-2.9091,-2.9091,-2.9091,-2.9091,-2.9091,-2.9137,-2.9137,-2.9137,-2.9454,-2.9677,-2.9837,-3.0182,-3.0351,-3.046,-3.0518,-3.0452,-3.0294,-3.0227,-3.0153,-2.9938,-2.9447,-2.9198,-2.9098,-2.8677,-2.8272,-2.7641,-2.7656,-2.7981,-2.876,-2.9306,-2.9884,-3.0577,-3.1376,-3.1917,-3.2055,-3.2265,-3.2406,-3.2388,-3.2507,-3.2557,-3.2606,-3.2816,-3.3068,-3.3291,-3.3455,-3.3625,-3.3895,-3.4067,-3.4358,-3.4651,-3.4824,-3.4886,-3.517,-3.5885,-3.6539,-3.6718,-3.6983,-3.7083,-3.6917,-3.6551,-3.6176,-3.5976,-3.59,-3.5897,-3.5898,-3.5893,-3.5889,-3.5889,-3.5883,-3.5833,-3.5772,-3.567,-3.5566,-3.5425,-3.5336,-3.5235,-3.519,-3.519,-3.519,-3.5207,-3.527,-3.5355,-3.5399,-3.5456,-3.556,-3.5724,-3.5745,-3.5767,-3.5753,-3.5489,-3.5107,-3.15,-3.1291,-3.119,-3.1291,-3.1435,-3.1334,-3.153,-3.1842,-3.1905,-3.2059,-3.2321,-3.2501,-3.2641,-3.2888,-3.3033,-3.2914,-3.274,-3.2708,-3.2466,-3.2061,-3.1658,-3.0766,-2.9769,-2.9343,-2.9091,-2.9091,-2.9137,-2.9091,-2.9121,-2.9289,-2.938,-2.9499,-2.9881,-3.0166,-3.0418,-3.0584,-3.0845,-3.1021,-3.1044,-3.1061,-3.1061,-3.1044,-3.1044,-3.0977,-3.0605,-3.0425,-3.0378,-3.0173,-2.9722,-2.9101,-2.8891,-2.9183,-3.0048,-3.0489,-3.1029,-3.1601,-3.2143,-3.2406,-3.2406,-3.2406,-3.2422,-3.2473,-3.2573,-3.2654,-3.2834,-3.3068,-3.3321,-3.3512,-3.3726,-3.3921,-3.4179,-3.4643,-3.5117,-3.5495,-3.5799,-3.5759,-3.5308,-3.5985,-3.652,-3.6776,-3.7096,-3.724,-3.7065,-3.6589,-3.6231,-3.5988,-3.5884,-3.5894,-3.5898,-3.5884,-3.5894,-3.5894,-3.5883,-3.5833,-3.5749,-3.565,-3.5531,-3.5405,-3.5292,-3.519,-3.519,-3.519,-3.519,-3.5207,-3.5254,-3.5311,-3.5386,-3.5461,-3.5631,-3.5737,-3.5807,-3.5814,-3.5774,-3.5767,-3.5405,-3.2737,-3.2321,-3.2089,-3.2226,-3.2563,-3.2446,-3.2414,-3.2743,-3.2684,-3.2855,-3.3124,-3.336,-3.3387,-3.3414,-3.3591,-3.3575,-3.3366,-3.3339,-3.3227,-3.2898,-3.2513,-3.1823,-3.0972,-2.989,-2.9573,-2.9526,-2.9293,-2.9289,-2.9454,-2.9722,-2.9837,-2.9968,-3.0351,-3.0707,-3.0925,-3.1123,-3.1428,-3.1634,-3.1634,-3.1634,-3.1634,-3.1671,-3.1654,-3.1637,-3.1657,-3.1645,-3.1735,-3.1774,-3.1315,-2.995,-2.9649,-3.0329,-3.1455,-3.1359,-3.1602,-3.2126,-3.2353,-3.2406,-3.2406,-3.2422,-3.2473,-3.2573,-3.2639,-3.2752,-3.3055,-3.328,-3.3595,-3.3964,-3.3976,-3.4124,-3.4475,-3.5321,-3.591,-3.6216,-3.6919,-3.6783,-3.6086,-3.6312,-3.6916,-3.709,-3.7889,-3.7878,-3.7482,-3.7089,-3.6783,-3.5969,-3.5887,-3.5893,-3.5898,-3.5929,-3.5914,-3.5885,-3.5864,-3.5827,-3.5732,-3.563,-3.5488,-3.5364,-3.5266,-3.519,-3.519,-3.519,-3.519,-3.5207,-3.5239,-3.5326,-3.5438,-3.556,-3.5696,-3.5794,-3.5858,-3.582,-3.5767,-3.5794,-3.5587,-3.2718,-3.2633,-3.254,-3.2579,-3.2671,-3.2633,-3.2866,-3.3263,-3.3266,-3.3521,-3.3794,-3.3939,-3.3917,-3.3915,-3.3949,-3.3949,-3.3949,-3.3949,-3.4021,-3.4202,-3.4038,-3.3736,-3.2875,-3.1483,-3.0672,-3.0624,-3.0217,-3.0076,-3.0215,-3.03,-3.0351,-3.0418,-3.0747,-3.1004,-3.1162,-3.1487,-3.1671,-3.18,-3.1783,-3.1837,-3.1819,-3.1856,-3.1875,-3.1875,-3.1965,-3.2037,-3.2073,-3.2144,-3.1968,-3.1723,-3.1567,-3.1585,-3.1916,-3.2039,-3.2161,-3.2318,-3.2406,-3.2406,-3.244,-3.2507,-3.2573,-3.2639,-3.2816,-3.3024,-3.3086,-3.3491,-3.4037,-3.4547,-3.4531,-3.4587,-3.4929,-3.5684,-3.6331,-3.6709,-3.7296,-3.7728,-3.752,-3.8043,-3.8436,-3.8735,-3.8891,-3.8935,-3.816,-3.7381,-3.6837,-3.6123,-3.5884,-3.5894,-3.5916,-3.5949,-3.5931,-3.5914,-3.5852,-3.5806,-3.565,-3.5535,-3.5386,-3.5307,-3.5235,-3.519,-3.519,-3.519,-3.519,-3.519,-3.5226,-3.5326,-3.5445,-3.5549,-3.563,-3.5774,-3.588,-3.5875,-3.5858,-3.5852,-3.5846,-3.3709,-3.3563,-3.3407,-3.3495,-3.37,-3.3614,-3.3745,-3.4062,-3.4117,-3.4154,-3.4314,-3.4431,-3.4349,-3.4151,-3.4234,-3.4284,-3.4415,-3.4625,-3.4847,-3.5048,-3.5057,-3.5071,-3.4776,-3.3541,-3.2622,-3.2114,-3.1381,-3.1133,-3.1099,-3.1036,-3.0948,-3.0931,-3.1317,-3.1507,-3.1545,-3.1765,-3.1839,-3.1929,-3.1929,-3.1946,-3.1929,-3.1965,-3.1984,-3.202,-3.2108,-3.2144,-3.2144,-3.2214,-3.2267,-3.2301,-3.2301,-3.2301,-3.2301,-3.2354,-3.2406,-3.2406,-3.2406,-3.2457,-3.2507,-3.2557,-3.2672,-3.2834,-3.3024,-3.3208,-3.3513,-3.3991,-3.4621,-3.5243,-3.5581,-3.5832,-3.612,-3.6939,-3.7432,-3.7787,-3.8412,-3.9007,-3.9143,-3.897,-3.8728,-3.886,-3.881,-3.8724,-3.8257,-3.7766,-3.7229,-3.6645,-3.5984,-3.5957,-3.595,-3.5981,-3.597,-3.5929,-3.584,-3.5741,-3.559,-3.5457,-3.5292,-3.5235,-3.5223,-3.519,-3.519,-3.519,-3.519,-3.5209,-3.5226,-3.527,-3.5364,-3.5492,-3.5602,-3.5718,-3.582,-3.5904,-3.5938,-3.5899,-3.5904,-3.4888,-3.4546,-3.43,-3.4497,-3.4851,-3.4643,-3.4643,-3.4851,-3.4899,-3.4704,-3.4653,-3.4816,-3.4643,-3.4431,-3.4578,-3.4706,-3.4958,-3.5357,-3.5654,-3.5671,-3.5933,-3.6011,-3.5803,-3.5266,-3.4639,-3.3618,-3.2722,-3.235,-3.2235,-3.1901,-3.1816,-3.1716,-3.1785,-3.1912,-3.202,-3.1984,-3.1984,-3.2037,-3.2073,-3.2073,-3.2073,-3.2126,-3.2108,-3.2161,-3.2179,-3.2214,-3.2267,-3.2301,-3.2406,-3.2406,-3.2406,-3.2406,-3.2406,-3.2406,-3.244,-3.244,-3.2457,-3.2541,-3.2657,-3.2705,-3.2834,-3.3104,-3.3165,-3.3327,-3.3789,-3.4504,-3.5214,-3.5975,-3.6573,-3.7348,-3.7643,-3.8137,-3.8706,-3.9131,-3.9849,-4.0438,-4.0456,-3.9373,-3.898,-3.8875,-3.9287,-3.9344,-3.8835,-3.8303,-3.7737,-3.7159,-3.6521,-3.6032,-3.6057,-3.6004,-3.5994,-3.5924,-3.5827,-3.5601,-3.5451,-3.5391,-3.5219,-3.5207,-3.519,-3.519,-3.519,-3.5226,-3.5226,-3.5226,-3.5258,-3.5285,-3.534,-3.5463,-3.557,-3.5687,-3.5794,-3.5894,-3.5934,-3.5938,-3.5947,-3.4903,-3.4851,-3.4787,-3.4851,-3.4899,-3.4851,-3.4851,-3.4899,-3.4947,-3.4883,-3.4833,-3.4883,-3.5055,-3.5131,-3.5178,-3.5391,-3.5688,-3.6037,-3.6284,-3.6343,-3.6591,-3.6713,-3.6649,-3.6514,-3.6282,-3.5941,-3.4748,-3.3882,-3.3684,-3.3301,-3.2919,-3.28,-3.2385,-3.216,-3.2265,-3.2073,-3.2107,-3.223,-3.2178,-3.2126,-3.2161,-3.2196,-3.2214,-3.2319,-3.2319,-3.2354,-3.2354,-3.2406,-3.2406,-3.2406,-3.2406,-3.2406,-3.244,-3.244,-3.2491,-3.2523,-3.259,-3.2639,-3.2802,-3.293,-3.3024,-3.3135,-3.3328,-3.3524,-3.3973,-3.4768,-3.5899,-3.6801,-3.7687,-3.8264,-3.7681,-3.8594,-3.8988,-3.9375,-3.9915,-4.0511,-4.0655,-4.0432,-4.0095,-4.0043,-4.0179,-4.0129,-3.956,-3.9026,-3.8497,-3.7873,-3.7128,-3.6558,-3.6309,-3.6144,-3.5981,-3.5904,-3.5774,-3.5519,-3.5277,-3.5266,-3.519,-3.519,-3.519,-3.5209,-3.5226,-3.5261,-3.5277,-3.5273,-3.5289,-3.532,-3.5369,-3.5457,-3.5523,-3.564,-3.5757,-3.5883,-3.5894,-3.5894,-3.597,-3.5247,-3.4916,-3.4899,-3.4899,-3.4899,-3.4899,-3.4899,-3.4947,-3.5055,-3.5157,-3.5182,-3.5323,-3.5464,-3.5616,-3.5661,-3.5881,-3.6241,-3.6591,-3.6731,-3.6829,-3.6948,-3.697,-3.697,-3.697,-3.697,-3.6738,-3.6025,-3.5353,-3.5063,-3.4347,-3.3997,-3.3787,-3.3174,-3.2982,-3.3106,-3.2598,-3.2546,-3.2634,-3.2494,-3.2267,-3.2249,-3.2319,-3.2354,-3.2406,-3.2406,-3.2406,-3.2406,-3.2406,-3.2406,-3.244,-3.2473,-3.2507,-3.2541,-3.2608,-3.2641,-3.2674,-3.2722,-3.2852,-3.2961,-3.3104,-3.3327,-3.3882,-3.4068,-3.4501,-3.5174,-3.6207,-3.7137,-3.8229,-3.8801,-3.9315,-3.9109,-3.9429,-3.9739,-3.9946,-4.0333,-4.0617,-4.0784,-4.0837,-4.0868,-4.0907,-4.0713,-4.0535,-4.0434,-3.9875,-3.9337,-3.8624,-3.7793,-3.7182,-3.666,-3.6245,-3.5988,-3.5839,-3.5702,-3.5492,-3.5266,-3.5239,-3.5209,-3.5209,-3.5207,-3.5226,-3.5242,-3.5273,-3.5324,-3.5354,-3.5369,-3.5369,-3.5379,-3.5443,-3.5514,-3.5585,-3.567,-3.5749,-3.5801,-3.5858,-3.5938,-3.5562,-3.4899,-3.4899,-3.4947,-3.4977,-3.4977,-3.506,-3.5141,-3.5412,-3.5474,-3.554,-3.5753,-3.5907,-3.6037,-3.6122,-3.6326,-3.6609,-3.6908,-3.693,-3.697,-3.6987,-3.697,-3.697,-3.697,-3.697,-3.6952,-3.6865,-3.6671,-3.6001,-3.5247,-3.4969,-3.4668,-3.4071,-3.3948,-3.4177,-3.3475,-3.3335,-3.3318,-3.3231,-3.2845,-3.2651,-3.2476,-3.2406,-3.2406,-3.2406,-3.2406,-3.2406,-3.2406,-3.2422,-3.2473,-3.2541,-3.2606,-3.2654,-3.2834,-3.2955,-3.2948,-3.2973,-3.3064,-3.3368,-3.3453,-3.3972,-3.4806,-3.5038,-3.5615,-3.643,-3.7368,-3.8652,-3.9806,-4.0039,-4.0041,-4.0005,-4.0321,-4.0415,-4.0535,-4.063,-4.0804,-4.0868,-4.0878,-4.0869,-4.0907,-4.0917,-4.0843,-4.0708,-4.056,-3.9995,-3.9235,-3.8416,-3.7628,-3.7048,-3.6286,-3.5955,-3.5781,-3.5631,-3.547,-3.533,-3.5254,-3.5242,-3.5261,-3.5258,-3.5254,-3.5273,-3.5304,-3.5335,-3.5383,-3.5412,-3.5432,-3.5427,-3.5441,-3.5489,-3.5546,-3.5574,-3.564,-3.5729,-3.584,-3.5929,-3.5562,-3.4916,-3.4899,-3.5071,-3.5333,-3.5333,-3.5509,-3.573,-3.5813,-3.583,-3.5856,-3.5924,-3.6139,-3.6385,-3.6713,-3.6851,-3.6948,-3.693,-3.697,-3.697,-3.697,-3.697,-3.697,-3.697,-3.697,-3.697,-3.697,-3.6952,-3.6601,-3.5987,-3.5706,-3.553,-3.4986,-3.467,-3.4916,-3.4335,-3.4477,-3.4512,-3.4424,-3.4038,-3.3424,-3.2845,-3.2616,-3.2546,-3.2564,-3.2546,-3.2616,-3.2598,-3.2579,-3.2573,-3.2606,-3.2705,-3.2834,-3.2993,-3.3468,-3.3629,-3.3607,-3.3453,-3.4238,-3.4413,-3.4812,-3.5677,-3.597,-3.6306,-3.7225,-3.812,-3.9134,-3.9962,-4.0117,-4.0176,-4.0291,-4.0377,-4.0469,-4.0588,-4.0745,-4.0826,-4.0869,-4.0888,-4.0888,-4.0915,-4.0952,-4.0953,-4.0902,-4.0812,-4.0611,-3.9843,-3.9056,-3.8227,-3.7373,-3.6567,-3.5938,-3.5753,-3.56,-3.5438,-3.5345,-3.527,-3.5273,-3.5277,-3.5273,-3.5285,-3.532,-3.5335,-3.5364,-3.5412,-3.5446,-3.546,-3.5474,-3.5474,-3.5488,-3.5509,-3.5553,-3.5609,-3.5696,-3.5794,-3.5889,-3.7185,-3.6106,-3.5667,-3.5526,-3.5661,-3.5688,-3.5762,-3.5898,-3.6131,-3.6243,-3.63,-3.6481,-3.6632,-3.6771,-3.6948,-3.697,-3.697,-3.697,-3.697,-3.697,-3.697,-3.697,-3.697,-3.697,-3.697,-3.697,-3.697,-3.697,-3.6829,-3.6745,-3.6461,-3.632,-3.5776,-3.5618,-3.5766,-3.5111,-3.5039,-3.5056,-3.4916,-3.453,-3.4179,-3.388,-3.3705,-3.3705,-3.3688,-3.3477,-3.3265,-3.3195,-3.3015,-3.2915,-3.2834,-3.293,-3.3212,-3.3647,-3.4286,-3.437,-3.4925,-3.5137,-3.5284,-3.5412,-3.5962,-3.6633,-3.7147,-3.7754,-3.8565,-3.9136,-3.9602,-4.0158,-4.0215,-4.0253,-4.0362,-4.0457,-4.0579,-4.0688,-4.0792,-4.0837,-4.0869,-4.0878,-4.0897,-4.0924,-4.0964,-4.0974,-4.0998,-4.096,-4.0858,-4.0447,-3.952,-3.8537,-3.7613,-3.6674,-3.6125,-3.5732,-3.5577,-3.5402,-3.5345,-3.5285,-3.5285,-3.5304,-3.5304,-3.5315,-3.535,-3.5379,-3.5393,-3.5427,-3.5474,-3.5474,-3.5507,-3.5488,-3.5488,-3.5515,-3.5528,-3.5581,-3.564,-3.5713,-3.5807,-3.8963,-3.7861,-3.6696,-3.6139,-3.6054,-3.6037,-3.6097,-3.6224,-3.6485,-3.6626,-3.6698,-3.6843,-3.697,-3.697,-3.6987,-3.697,-3.697,-3.697,-3.697,-3.697,-3.697,-3.697,-3.697,-3.697,-3.697,-3.697,-3.697,-3.7048,-3.7147,-3.7094,-3.7058,-3.7147,-3.6734,-3.6734,-3.6785,-3.6397,-3.6078,-3.638,-3.5758,-3.5403,-3.5226,-3.5031,-3.4977,-3.4942,-3.4907,-3.4712,-3.4319,-3.4162,-3.3908,-3.3916,-3.3903,-3.4081,-3.4316,-3.4867,-3.5428,-3.5681,-3.625,-3.6654,-3.6655,-3.6728,-3.703,-3.7674,-3.8313,-3.8999,-3.969,-4.0117,-4.0157,-4.0272,-4.0291,-4.0327,-4.0408,-4.0515,-4.0635,-4.0738,-4.0848,-4.0878,-4.0888,-4.0888,-4.0897,-4.0924,-4.096,-4.0974,-4.101,-4.1053,-4.0992,-4.0862,-4.0034,-3.8902,-3.7804,-3.6735,-3.6168,-3.5726,-3.5562,-3.5435,-3.5379,-3.535,-3.533,-3.533,-3.533,-3.5345,-3.5393,-3.5427,-3.5441,-3.5474,-3.5488,-3.5507,-3.5507,-3.5507,-3.5507,-3.5501,-3.5515,-3.5528,-3.5558,-3.566,-3.5753,-4.0367,-4.0096,-3.7912,-3.6844,-3.6478,-3.6461,-3.665,-3.6794,-3.693,-3.6913,-3.6935,-3.697,-3.697,-3.697,-3.697,-3.697,-3.697,-3.697,-3.697,-3.697,-3.697,-3.697,-3.697,-3.697,-3.7009,-3.7048,-3.7069,-3.7243,-3.7432,-3.7542,-3.7505,-3.7452,-3.7505,-3.7823,-3.7841,-3.7485,-3.7358,-3.7466,-3.6942,-3.6651,-3.6486,-3.6179,-3.5883,-3.5824,-3.5656,-3.5432,-3.5475,-3.5334,-3.5238,-3.5418,-3.5357,-3.5506,-3.567,-3.6122,-3.6574,-3.6942,-3.7461,-3.7887,-3.8061,-3.7913,-3.8201,-3.8983,-3.9561,-3.9806,-4.0078,-4.0234,-4.0272,-4.0291,-4.031,-4.0344,-4.0425,-4.053,-4.0675,-4.0773,-4.0868,-4.0888,-4.0888,-4.0888,-4.0897,-4.0924,-4.0935,-4.0992,-4.1025,-4.1074,-4.1087,-4.0974,-4.0229,-3.9097,-3.7749,-3.6707,-3.6129,-3.5717,-3.5589,-3.5488,-3.5446,-3.5412,-3.5412,-3.5412,-3.5412,-3.5446,-3.5474,-3.5474,-3.5474,-3.5474,-3.5507,-3.5507,-3.5507,-3.5507,-3.5507,-3.5507,-3.5501,-3.5509,-3.5577,-3.5679,-3.5764,-4.0902,-4.0411,-3.9694,-3.8629,-3.7417,-3.7021,-3.6908,-3.6987,-3.697,-3.697,-3.697,-3.697,-3.697,-3.697,-3.697,-3.697,-3.697,-3.697,-3.697,-3.697,-3.697,-3.697,-3.697,-3.7048,-3.7087,-3.7243,-3.7301,-3.7523,-3.7844,-3.798,-3.8147,-3.8212,-3.8165,-3.805,-3.8101,-3.8168,-3.8135,-3.808,-3.7845,-3.7645,-3.7591,-3.7511,-3.7271,-3.7271,-3.7285,-3.6994,-3.6796,-3.6643,-3.6474,-3.6347,-3.636,-3.651,-3.6776,-3.718,-3.7524,-3.7886,-3.8391,-3.8898,-3.9088,-3.892,-3.9121,-3.9588,-3.9996,-4.0137,-4.0176,-4.0291,-4.0291,-4.031,-4.0326,-4.0392,-4.0515,-4.0648,-4.0769,-4.0837,-4.0878,-4.0878,-4.0888,-4.0888,-4.0924,-4.0937,-4.0978,-4.1013,-4.1033,-4.1071,-4.1101,-4.103,-4.021,-3.9286,-3.7956,-3.6818,-3.6258,-3.5737,-3.5577,-3.5515,-3.546,-3.5479,-3.5493,-3.5493,-3.5493,-3.5493,-3.5507,-3.5507,-3.5474,-3.5507,-3.5507,-3.5507,-3.5507,-3.5507,-3.5507,-3.5507,-3.5501,-3.5522,-3.5593,-3.5689,-3.576,-4.1505,-4.1054,-4.0931,-3.984,-3.8232,-3.7668,-3.7312,-3.7167,-3.7062,-3.697,-3.697,-3.697,-3.697,-3.697,-3.697,-3.697,-3.697,-3.697,-3.697,-3.697,-3.697,-3.697,-3.7013,-3.7135,-3.7288,-3.7488,-3.7685,-3.7879,-3.8249,-3.8486,-3.8579,-3.8579,-3.8535,-3.8473,-3.8442,-3.8378,-3.8428,-3.841,-3.841,-3.8442,-3.8468,-3.8493,-3.8517,-3.8481,-3.8426,-3.829,-3.7982,-3.7824,-3.7698,-3.7526,-3.7441,-3.7394,-3.7668,-3.7962,-3.8305,-3.8644,-3.9033,-3.9604,-3.9551,-3.9599,-3.9758,-3.9996,-4.0117,-4.0215,-4.0273,-4.0329,-4.0329,-4.031,-4.036,-4.0454,-4.0588,-4.0707,-4.0804,-4.0868,-4.0869,-4.0888,-4.0888,-4.0888,-4.0949,-4.0974,-4.1003,-4.1021,-4.1054,-4.1087,-4.1099,-4.0952,-4.0268,-3.9361,-3.8239,-3.7229,-3.6487,-3.5979,-3.5558,-3.5522,-3.5507,-3.5493,-3.5493,-3.5493,-3.5493,-3.5493,-3.5507,-3.5507,-3.5507,-3.5507,-3.5507,-3.5507,-3.5507,-3.5507,-3.5507,-3.5507,-3.5501,-3.5509,-3.554,-3.5607,-3.5679,-4.2269,-4.2162,-4.1413,-4.0064,-3.8575,-3.8429,-3.8086,-3.751,-3.7193,-3.7069,-3.7087,-3.7087,-3.7048,-3.7048,-3.7087,-3.7069,-3.7048,-3.7009,-3.7009,-3.7048,-3.7062,-3.7044,-3.7135,-3.7308,-3.7576,-3.7596,-3.7895,-3.8231,-3.8597,-3.8688,-3.8836,-3.897,-3.897,-3.897,-3.9045,-3.9055,-3.9082,-3.9156,-3.911,-3.9129,-3.9175,-3.9193,-3.9202,-3.9202,-3.911,-3.8952,-3.8878,-3.8785,-3.8665,-3.8681,-3.8707,-3.8805,-3.9064,-3.9189,-3.9321,-3.9427,-3.9548,-3.9693,-3.9717,-3.9954,-4.0057,-4.0137,-4.0215,-4.0273,-4.0291,-4.0329,-4.0329,-4.0327,-4.0394,-4.0504,-4.0607,-4.0732,-4.0837,-4.0878,-4.0878,-4.0888,-4.0888,-4.0888,-4.0941,-4.098,-4.1012,-4.1021,-4.1074,-4.1107,-4.1097,-4.0834,-4.0249,-3.9392,-3.8424,-3.7683,-3.6956,-3.6037,-3.5546,-3.5522,-3.5507,-3.5507,-3.5507,-3.5507,-3.5507,-3.5507,-3.5507,-3.5507,-3.5507,-3.5507,-3.5507,-3.5507,-3.5507,-3.5507,-3.5507,-3.5507,-3.5507,-3.5501,-3.5522,-3.5546,-3.5629,-4.2287,-4.2257,-4.159,-4.0738,-3.9805,-3.9006,-3.8277,-3.768,-3.7539,-3.7542,-3.7559,-3.765,-3.7559,-3.7413,-3.7356,-3.7339,-3.7301,-3.7048,-3.7048,-3.7319,-3.7326,-3.7329,-3.745,-3.7718,-3.8005,-3.8227,-3.8423,-3.8628,-3.8942,-3.8942,-3.9027,-3.9156,-3.9229,-3.9229,-3.9202,-3.9229,-3.932,-3.932,-3.9328,-3.9328,-3.9391,-3.9444,-3.9469,-3.9495,-3.9406,-3.9432,-3.9432,-3.9328,-3.9354,-3.9432,-3.9432,-3.9483,-3.9602,-3.9602,-3.9631,-3.9684,-3.9762,-3.9933,-4.0036,-4.0215,-4.0234,-4.0273,-4.0273,-4.0329,-4.0329,-4.0329,-4.0328,-4.0377,-4.0473,-4.0574,-4.072,-4.0815,-4.0888,-4.0898,-4.0888,-4.0888,-4.0888,-4.0897,-4.0913,-4.0964,-4.0994,-4.1033,-4.109,-4.1103,-4.1114,-4.1108,-4.0639,-3.97,-3.8706,-3.8143,-3.748,-3.6239,-3.5534,-3.5509,-3.5507,-3.5507,-3.5507,-3.5507,-3.5507,-3.5507,-3.5507,-3.5507,-3.5507,-3.5507,-3.5507,-3.5507,-3.5507,-3.5507,-3.5507,-3.5507,-3.5507,-3.5507,-3.5501,-3.5565,-3.5639,-4.2788,-4.2698,-4.205,-4.1395,-4.0698,-3.9535,-3.8545,-3.7972,-3.7995,-3.8038,-3.8032,-3.8117,-3.8032,-3.7843,-3.7773,-3.7755,-3.7755,-3.7578,-3.7505,-3.7774,-3.7791,-3.7774,-3.7897,-3.8122,-3.837,-3.8645,-3.8836,-3.8998,-3.9175,-3.9229,-3.9275,-3.9301,-3.9373,-3.9373,-3.9373,-3.9373,-3.9418,-3.9418,-3.9425,-3.9444,-3.9495,-3.952,-3.9546,-3.9546,-3.9552,-3.9596,-3.962,-3.962,-3.962,-3.962,-3.962,-3.9626,-3.9631,-3.9637,-3.9684,-3.9781,-3.9892,-4.0076,-4.0234,-4.0291,-4.0291,-4.0291,-4.0329,-4.0329,-4.0329,-4.0329,-4.0345,-4.0408,-4.0545,-4.0662,-4.0781,-4.0868,-4.0898,-4.0888,-4.0888,-4.0888,-4.0906,-4.0906,-4.094,-4.0988,-4.1027,-4.1054,-4.1082,-4.1097,-4.1111,-4.1108,-4.1049,-4.0043,-3.9039,-3.8439,-3.7812,-3.6601,-3.5637,-3.5515,-3.5507,-3.5507,-3.5507,-3.5507,-3.5507,-3.5507,-3.5507,-3.5507,-3.5507,-3.5507,-3.5507,-3.5507,-3.5507,-3.5507,-3.5507,-3.5507,-3.5507,-3.5507,-3.5507,-3.554,-3.5618,-4.3642,-4.3545,-4.2756,-4.1889,-4.1101,-3.9863,-3.8951,-3.836,-3.8499,-3.8517,-3.8342,-3.8373,-3.8373,-3.8323,-3.8291,-3.8291,-3.8227,-3.8194,-3.8227,-3.8249,-3.8264,-3.8223,-3.8337,-3.8607,-3.8785,-3.8915,-3.9073,-3.9248,-3.9373,-3.9373,-3.9373,-3.9399,-3.9469,-3.9495,-3.9469,-3.9469,-3.9469,-3.9495,-3.9495,-3.952,-3.9571,-3.9596,-3.9596,-3.9596,-3.9596,-3.962,-3.962,-3.9602,-3.9602,-3.9602,-3.9626,-3.9637,-3.9689,-3.9693,-3.9781,-3.9911,-4.0055,-4.0157,-4.0273,-4.0329,-4.0329,-4.0329,-4.0329,-4.0329,-4.0329,-4.031,-4.0363,-4.0457,-4.0588,-4.07,-4.0812,-4.0858,-4.0888,-4.0888,-4.0888,-4.0897,-4.0924,-4.0945,-4.0998,-4.103,-4.1052,-4.109,-4.1099,-4.1108,-4.1108,-4.1108,-4.1042,-4.0666,-3.9662,-3.8634,-3.7899,-3.6845,-3.6034,-3.5559,-3.5507,-3.5507,-3.5507,-3.5507,-3.5507,-3.5507,-3.5507,-3.5507,-3.5507,-3.5507,-3.5507,-3.5507,-3.5507,-3.5507,-3.5507,-3.5507,-3.5507,-3.5507,-3.5507,-3.5528,-3.5589,-4.2848,-4.2682,-4.1354,-4.0707,-4.0568,-3.9863,-3.9231,-3.8796,-3.8878,-3.8934,-3.8865,-3.9045,-3.8913,-3.8651,-3.8651,-3.8651,-3.856,-3.8449,-3.848,-3.8566,-3.867,-3.8664,-3.877,-3.898,-3.9163,-3.9219,-3.9301,-3.9418,-3.9418,-3.9444,-3.9476,-3.9546,-3.9546,-3.9571,-3.9571,-3.9571,-3.9571,-3.9571,-3.9571,-3.9571,-3.9596,-3.962,-3.962,-3.9602,-3.9602,-3.9626,-3.9626,-3.9661,-3.9637,-3.9626,-3.975,-3.9781,-3.9693,-3.9804,-3.9911,-4.0036,-4.0157,-4.0253,-4.0291,-4.0329,-4.0329,-4.031,-4.031,-4.0329,-4.0329,-4.0328,-4.0379,-4.0534,-4.0642,-4.0761,-4.0837,-4.0878,-4.0888,-4.0888,-4.0897,-4.0915,-4.0921,-4.0968,-4.1003,-4.1069,-4.1092,-4.1087,-4.1111,-4.1108,-4.1108,-4.1108,-4.0996,-4.0713,-4.0116,-3.9027,-3.8142,-3.7109,-3.6122,-3.5565,-3.5507,-3.5507,-3.5507,-3.5507,-3.5507,-3.5507,-3.5507,-3.5507,-3.5507,-3.5507,-3.5507,-3.5507,-3.5507,-3.5507,-3.5507,-3.5507,-3.5507,-3.5507,-3.5488,-3.5541,-3.5589,-4.2809,-4.2586,-4.1062,-4.0291,-4.0034,-3.9752,-3.9425,-3.921,-3.9257,-3.9313,-3.929,-3.9425,-3.9354,-3.9165,-3.9137,-3.9137,-3.911,-3.9008,-3.899,-3.9064,-3.9082,-3.9101,-3.921,-3.929,-3.9406,-3.9451,-3.9469,-3.9495,-3.9495,-3.9502,-3.9552,-3.9596,-3.962,-3.962,-3.9596,-3.9596,-3.9596,-3.9596,-3.962,-3.962,-3.962,-3.962,-3.9626,-3.9631,-3.9613,-3.9656,-3.9703,-3.9758,-3.9754,-3.9727,-3.9867,-3.9911,-3.987,-3.9975,-4.0076,-4.0195,-4.0234,-4.0291,-4.0329,-4.0329,-4.0329,-4.0329,-4.0327,-4.0344,-4.0381,-4.0396,-4.0523,-4.0648,-4.0738,-4.0818,-4.0859,-4.0888,-4.0888,-4.0888,-4.0906,-4.0932,-4.0948,-4.0972,-4.1035,-4.1093,-4.1103,-4.1116,-4.1108,-4.1108,-4.1108,-4.1108,-4.0937,-4.0622,-3.9967,-3.8971,-3.8304,-3.7544,-3.6425,-3.5507,-3.5507,-3.5507,-3.5507,-3.5507,-3.5507,-3.5507,-3.5507,-3.5507,-3.5507,-3.5507,-3.5507,-3.5507,-3.5507,-3.5507,-3.5507,-3.5507,-3.5488,-3.5488,-3.5488,-3.5515,-3.5581,-4.3125,-4.2919,-4.1379,-4.0246,-3.9677,-3.962,-3.9596,-3.962,-3.9577,-3.9596,-3.9577,-3.9596,-3.9552,-3.9483,-3.9483,-3.9502,-3.9483,-3.9413,-3.9388,-3.9577,-3.9502,-3.9476,-3.9451,-3.9552,-3.9527,-3.9546,-3.9546,-3.9571,-3.9596,-3.9596,-3.9596,-3.962,-3.962,-3.962,-3.962,-3.962,-3.962,-3.962,-3.9626,-3.9607,-3.9602,-3.9626,-3.9613,-3.9689,-3.9717,-3.9758,-3.9867,-3.9908,-3.993,-3.9911,-3.9954,-4.0015,-4.0098,-4.0176,-4.0253,-4.0291,-4.0291,-4.0291,-4.031,-4.031,-4.0309,-4.0326,-4.0377,-4.0441,-4.0489,-4.0504,-4.0621,-4.0732,-4.0815,-4.0839,-4.0878,-4.0888,-4.0888,-4.0888,-4.0897,-4.0926,-4.0972,-4.1,-4.1054,-4.1103,-4.1116,-4.1108,-4.1108,-4.1108,-4.1104,-4.1108,-4.0766,-4.0393,-3.9843,-3.8924,-3.8225,-3.7718,-3.681,-3.5815,-3.5507,-3.5507,-3.5507,-3.5507,-3.5507,-3.5507,-3.5507,-3.5507,-3.5507,-3.5507,-3.5507,-3.5507,-3.5507,-3.5507,-3.5507,-3.5507,-3.5488,-3.5488,-3.5501,-3.5541,-3.5593,-4.1961,-4.1304,-4.029,-3.9746,-3.962,-3.962,-3.962,-3.962,-3.962,-3.962,-3.962,-3.962,-3.962,-3.962,-3.962,-3.962,-3.962,-3.962,-3.962,-3.962,-3.962,-3.9596,-3.9596,-3.9596,-3.9596,-3.9596,-3.9596,-3.962,-3.962,-3.962,-3.962,-3.962,-3.962,-3.962,-3.962,-3.962,-3.9602,-3.9626,-3.9679,-3.9656,-3.965,-3.9661,-3.9693,-3.9739,-3.9781,-3.9867,-3.9951,-4.0015,-3.9973,-3.9951,-4.0117,-4.0215,-4.0253,-4.0272,-4.031,-4.0329,-4.0329,-4.031,-4.0328,-4.0325,-4.0341,-4.0389,-4.045,-4.0574,-4.0642,-4.0642,-4.07,-4.0792,-4.0848,-4.0888,-4.0888,-4.0888,-4.0888,-4.0888,-4.0906,-4.0942,-4.0988,-4.103,-4.1068,-4.1099,-4.1111,-4.1108,-4.1108,-4.1104,-4.1104,-4.0808,-4.0297,-3.9897,-3.9622,-3.8917,-3.7981,-3.7442,-3.7041,-3.6301,-3.5815,-3.5507,-3.5507,-3.5507,-3.5507,-3.5507,-3.5507,-3.5507,-3.5507,-3.5507,-3.5507,-3.5507,-3.5507,-3.5507,-3.5507,-3.5507,-3.5501,-3.5501,-3.554,-3.5589,-3.562,-4.121,-4.0703,-3.9915,-3.962,-3.962,-3.962,-3.962,-3.962,-3.962,-3.962,-3.962,-3.962,-3.962,-3.962,-3.962,-3.962,-3.962,-3.962,-3.962,-3.962,-3.962,-3.962,-3.962,-3.962,-3.962,-3.962,-3.962,-3.962,-3.962,-3.962,-3.962,-3.962,-3.962,-3.962,-3.962,-3.9607,-3.9637,-3.9637,-3.9735,-3.9754,-3.9746,-3.9777,-3.9826,-3.9889,-3.9933,-4.0015,-4.0096,-4.0157,-4.0137,-4.0117,-4.0253,-4.0273,-4.0291,-4.0291,-4.031,-4.0329,-4.031,-4.031,-4.0344,-4.0356,-4.0399,-4.0481,-4.0602,-4.0732,-4.0757,-4.0769,-4.0796,-4.0868,-4.0878,-4.0888,-4.0888,-4.0888,-4.0888,-4.0888,-4.0937,-4.0992,-4.1035,-4.1074,-4.1101,-4.1094,-4.1108,-4.1104,-4.1104,-4.1097,-4.1117,-4.109,-4.0481,-3.99,-3.9521,-3.9092,-3.8106,-3.7295,-3.6991,-3.6392,-3.5699,-3.5507,-3.5507,-3.5507,-3.5507,-3.5507,-3.5507,-3.5507,-3.5507,-3.5488,-3.5488,-3.5507,-3.5507,-3.5501,-3.5488,-3.5507,-3.5501,-3.5528,-3.5577,-3.5649,-3.5697,-4.0741,-4.0553,-3.9877,-3.962,-3.962,-3.962,-3.962,-3.962,-3.962,-3.962,-3.962,-3.962,-3.962,-3.962,-3.962,-3.962,-3.962,-3.962,-3.962,-3.962,-3.962,-3.962,-3.962,-3.962,-3.962,-3.962,-3.962,-3.962,-3.962,-3.962,-3.962,-3.962,-3.9602,-3.9626,-3.9631,-3.9684,-3.9735,-3.9758,-3.9826,-3.9911,-3.993,-3.9911,-3.9994,-4.0057,-4.0137,-4.0176,-4.0253,-4.0272,-4.0291,-4.0291,-4.0291,-4.0291,-4.0329,-4.0329,-4.0329,-4.031,-4.0328,-4.0344,-4.0392,-4.0434,-4.0511,-4.0602,-4.0745,-4.0812,-4.0834,-4.0867,-4.0888,-4.0907,-4.0888,-4.0888,-4.0888,-4.0888,-4.0888,-4.0924,-4.0974,-4.1018,-4.1069,-4.1105,-4.1116,-4.1108,-4.1104,-4.1104,-4.1097,-4.1113,-4.1105,-4.1115,-4.0797,-4.0291,-3.9768,-3.9276,-3.8549,-3.775,-3.7205,-3.6523,-3.5694,-3.5488,-3.5501,-3.5507,-3.5507,-3.5507,-3.5507,-3.5507,-3.5488,-3.5488,-3.5488,-3.5528,-3.5522,-3.5547,-3.5522,-3.5522,-3.5565,-3.5615,-3.5669,-3.5752,-3.5784,-4.0403,-3.9802,-3.9677,-3.962,-3.962,-3.962,-3.962,-3.962,-3.962,-3.962,-3.962,-3.962,-3.962,-3.962,-3.962,-3.962,-3.962,-3.962,-3.962,-3.962,-3.962,-3.962,-3.962,-3.962,-3.962,-3.962,-3.962,-3.962,-3.965,-3.9626,-3.962,-3.9645,-3.9684,-3.9689,-3.9712,-3.9781,-3.9867,-3.9892,-3.9975,-4.0057,-4.0076,-4.0076,-4.0076,-4.0137,-4.0196,-4.0253,-4.0291,-4.031,-4.0329,-4.0329,-4.0329,-4.0329,-4.0329,-4.031,-4.031,-4.0346,-4.0344,-4.0392,-4.0454,-4.0554,-4.0655,-4.0725,-4.0826,-4.0868,-4.0878,-4.0878,-4.0888,-4.0888,-4.0888,-4.0888,-4.0888,-4.0888,-4.0897,-4.0945,-4.0986,-4.1049,-4.1094,-4.1105,-4.1111,-4.1108,-4.1104,-4.1097,-4.1113,-4.1105,-4.1115,-4.0989,-4.0593,-4.011,-3.9754,-3.9352,-3.8898,-3.81,-3.7295,-3.6633,-3.5842,-3.5572,-3.5515,-3.5501,-3.5507,-3.5507,-3.5507,-3.5507,-3.5488,-3.5509,-3.5528,-3.5565,-3.5558,-3.5574,-3.5596,-3.5588,-3.5641,-3.5696,-3.5772,-3.582,-3.5859]}]]